<?xml version='1.0' encoding='UTF-8'?>
<gpx version="1.1" creator="https://www.komoot.de" xmlns="http://www.topografix.com/GPX/1/1" xmlns:xsi="http://www.w3.org/2001/XMLSchema-instance" xsi:schemaLocation="http://www.topografix.com/GPX/1/1 http://www.topografix.com/GPX/1/1/gpx.xsd">
  <metadata>
    <name>RTCN Bunnik 100km gpx</name>
    <author>
      <link href="https://www.komoot.de">
        <text>komoot</text>
        <type>text/html</type>
      </link>
    </author>
  </metadata>
  <trk>
    <name>RTCN Bunnik 100km gpx</name>
    <type>racebike</type>
    <trkseg>
      <trkpt lat="52.132768" lon="4.763050">
        <ele>-0.809003</ele>
        <time>2026-08-15T07:24:08.361Z</time>
      </trkpt>
      <trkpt lat="52.132814" lon="4.763143">
        <ele>-0.809003</ele>
        <time>2026-08-15T07:24:09.843Z</time>
      </trkpt>
      <trkpt lat="52.132968" lon="4.763456">
        <ele>-0.809003</ele>
        <time>2026-08-15T07:24:14.679Z</time>
      </trkpt>
      <trkpt lat="52.133001" lon="4.763528">
        <ele>-0.809003</ele>
        <time>2026-08-15T07:24:15.818Z</time>
      </trkpt>
      <trkpt lat="52.133199" lon="4.763873">
        <ele>-0.809003</ele>
        <time>2026-08-15T07:24:21.615Z</time>
      </trkpt>
      <trkpt lat="52.133226" lon="4.763918">
        <ele>-0.809003</ele>
        <time>2026-08-15T07:24:22.377Z</time>
      </trkpt>
      <trkpt lat="52.133456" lon="4.764302">
        <ele>-0.816321</ele>
        <time>2026-08-15T07:24:29.037Z</time>
      </trkpt>
      <trkpt lat="52.133537" lon="4.764438">
        <ele>-0.822709</ele>
        <time>2026-08-15T07:24:31.382Z</time>
      </trkpt>
      <trkpt lat="52.133659" lon="4.764591">
        <ele>-0.831164</ele>
        <time>2026-08-15T07:24:34.486Z</time>
      </trkpt>
      <trkpt lat="52.134311" lon="4.765224">
        <ele>-0.872847</ele>
        <time>2026-08-15T07:24:49.578Z</time>
      </trkpt>
      <trkpt lat="52.134794" lon="4.765634">
        <ele>-0.902758</ele>
        <time>2026-08-15T07:25:00.554Z</time>
      </trkpt>
      <trkpt lat="52.134871" lon="4.765699">
        <ele>-0.907521</ele>
        <time>2026-08-15T07:25:02.294Z</time>
      </trkpt>
      <trkpt lat="52.134905" lon="4.765728">
        <ele>-0.911107</ele>
        <time>2026-08-15T07:25:03.079Z</time>
      </trkpt>
      <trkpt lat="52.135289" lon="4.765926">
        <ele>-0.950945</ele>
        <time>2026-08-15T07:25:11.097Z</time>
      </trkpt>
      <trkpt lat="52.135842" lon="4.766196">
        <ele>-1.008046</ele>
        <time>2026-08-15T07:25:22.569Z</time>
      </trkpt>
      <trkpt lat="52.136032" lon="4.766290">
        <ele>-1.027686</ele>
        <time>2026-08-15T07:25:26.582Z</time>
      </trkpt>
      <trkpt lat="52.136241" lon="4.766402">
        <ele>-1.049447</ele>
        <time>2026-08-15T07:25:31.026Z</time>
      </trkpt>
      <trkpt lat="52.136380" lon="4.766475">
        <ele>-1.063893</ele>
        <time>2026-08-15T07:25:33.943Z</time>
      </trkpt>
      <trkpt lat="52.136592" lon="4.766588">
        <ele>-1.086476</ele>
        <time>2026-08-15T07:25:38.252Z</time>
      </trkpt>
      <trkpt lat="52.136639" lon="4.766611">
        <ele>-1.100706</ele>
        <time>2026-08-15T07:25:39.205Z</time>
      </trkpt>
      <trkpt lat="52.136838" lon="4.766707">
        <ele>-1.160888</ele>
        <time>2026-08-15T07:25:43.205Z</time>
      </trkpt>
      <trkpt lat="52.137017" lon="4.766794">
        <ele>-1.215055</ele>
        <time>2026-08-15T07:25:46.806Z</time>
      </trkpt>
      <trkpt lat="52.137027" lon="4.766800">
        <ele>-1.218145</ele>
        <time>2026-08-15T07:25:47.014Z</time>
      </trkpt>
      <trkpt lat="52.137180" lon="4.766877">
        <ele>-1.264580</ele>
        <time>2026-08-15T07:25:50.131Z</time>
      </trkpt>
      <trkpt lat="52.137249" lon="4.766911">
        <ele>-1.285484</ele>
        <time>2026-08-15T07:25:51.511Z</time>
      </trkpt>
      <trkpt lat="52.137395" lon="4.766985">
        <ele>-1.329822</ele>
        <time>2026-08-15T07:25:54.379Z</time>
      </trkpt>
      <trkpt lat="52.137492" lon="4.767033">
        <ele>-1.359218</ele>
        <time>2026-08-15T07:25:56.250Z</time>
      </trkpt>
      <trkpt lat="52.137619" lon="4.767097">
        <ele>-1.397767</ele>
        <time>2026-08-15T07:25:58.702Z</time>
      </trkpt>
      <trkpt lat="52.137697" lon="4.767136">
        <ele>-1.421426</ele>
        <time>2026-08-15T07:26:00.196Z</time>
      </trkpt>
      <trkpt lat="52.138196" lon="4.767383">
        <ele>-1.572656</ele>
        <time>2026-08-15T07:26:10.021Z</time>
      </trkpt>
      <trkpt lat="52.138605" lon="4.767595">
        <ele>-1.591790</ele>
        <time>2026-08-15T07:26:18.404Z</time>
      </trkpt>
      <trkpt lat="52.139087" lon="4.767849">
        <ele>-1.566511</ele>
        <time>2026-08-15T07:26:28.813Z</time>
      </trkpt>
      <trkpt lat="52.139183" lon="4.767905">
        <ele>-1.561423</ele>
        <time>2026-08-15T07:26:30.866Z</time>
      </trkpt>
      <trkpt lat="52.139325" lon="4.767986">
        <ele>-1.553916</ele>
        <time>2026-08-15T07:26:33.880Z</time>
      </trkpt>
      <trkpt lat="52.139504" lon="4.768092">
        <ele>-1.544412</ele>
        <time>2026-08-15T07:26:37.747Z</time>
      </trkpt>
      <trkpt lat="52.139841" lon="4.768296">
        <ele>-1.526473</ele>
        <time>2026-08-15T07:26:45.608Z</time>
      </trkpt>
      <trkpt lat="52.140168" lon="4.768555">
        <ele>-1.483071</ele>
        <time>2026-08-15T07:26:53.415Z</time>
      </trkpt>
      <trkpt lat="52.140409" lon="4.768805">
        <ele>-1.429553</ele>
        <time>2026-08-15T07:26:59.406Z</time>
      </trkpt>
      <trkpt lat="52.140748" lon="4.769156">
        <ele>-1.354312</ele>
        <time>2026-08-15T07:27:07.665Z</time>
      </trkpt>
      <trkpt lat="52.140865" lon="4.769284">
        <ele>-1.327913</ele>
        <time>2026-08-15T07:27:10.589Z</time>
      </trkpt>
      <trkpt lat="52.141382" lon="4.769843">
        <ele>-1.211682</ele>
        <time>2026-08-15T07:27:23.725Z</time>
      </trkpt>
      <trkpt lat="52.141906" lon="4.770411">
        <ele>-1.143467</ele>
        <time>2026-08-15T07:27:36.775Z</time>
      </trkpt>
      <trkpt lat="52.142087" lon="4.770607">
        <ele>-1.126062</ele>
        <time>2026-08-15T07:27:41.241Z</time>
      </trkpt>
      <trkpt lat="52.143000" lon="4.771604">
        <ele>-1.038043</ele>
        <time>2026-08-15T07:28:03.719Z</time>
      </trkpt>
      <trkpt lat="52.143098" lon="4.771706">
        <ele>-1.043334</ele>
        <time>2026-08-15T07:28:06.032Z</time>
      </trkpt>
      <trkpt lat="52.143991" lon="4.772627">
        <ele>-1.117338</ele>
        <time>2026-08-15T07:28:27.198Z</time>
      </trkpt>
      <trkpt lat="52.144111" lon="4.772749">
        <ele>-1.127242</ele>
        <time>2026-08-15T07:28:29.957Z</time>
      </trkpt>
      <trkpt lat="52.144553" lon="4.773200">
        <ele>-1.166870</ele>
        <time>2026-08-15T07:28:40.111Z</time>
      </trkpt>
      <trkpt lat="52.145034" lon="4.773719">
        <ele>-1.304649</ele>
        <time>2026-08-15T07:28:51.669Z</time>
      </trkpt>
      <trkpt lat="52.145210" lon="4.773910">
        <ele>-1.355152</ele>
        <time>2026-08-15T07:28:55.936Z</time>
      </trkpt>
      <trkpt lat="52.145493" lon="4.774211">
        <ele>-1.435865</ele>
        <time>2026-08-15T07:29:02.718Z</time>
      </trkpt>
      <trkpt lat="52.145901" lon="4.774621">
        <ele>-1.550346</ele>
        <time>2026-08-15T07:29:11.866Z</time>
      </trkpt>
      <trkpt lat="52.146166" lon="4.774880">
        <ele>-1.728972</ele>
        <time>2026-08-15T07:29:17.593Z</time>
      </trkpt>
      <trkpt lat="52.146296" lon="4.774848">
        <ele>-1.862902</ele>
        <time>2026-08-15T07:29:19.998Z</time>
      </trkpt>
      <trkpt lat="52.146325" lon="4.774809">
        <ele>-1.901204</ele>
        <time>2026-08-15T07:29:20.691Z</time>
      </trkpt>
      <trkpt lat="52.146628" lon="4.774234">
        <ele>-2.374980</ele>
        <time>2026-08-15T07:29:28.783Z</time>
      </trkpt>
      <trkpt lat="52.146825" lon="4.773908">
        <ele>-2.660987</ele>
        <time>2026-08-15T07:29:32.075Z</time>
      </trkpt>
      <trkpt lat="52.147079" lon="4.773652">
        <ele>-2.965217</ele>
        <time>2026-08-15T07:29:35.540Z</time>
      </trkpt>
      <trkpt lat="52.147162" lon="4.773595">
        <ele>-3.056968</ele>
        <time>2026-08-15T07:29:36.582Z</time>
      </trkpt>
      <trkpt lat="52.147644" lon="4.773278">
        <ele>-3.471735</ele>
        <time>2026-08-15T07:29:42.631Z</time>
      </trkpt>
      <trkpt lat="52.147799" lon="4.773179">
        <ele>-3.521363</ele>
        <time>2026-08-15T07:29:44.723Z</time>
      </trkpt>
      <trkpt lat="52.147863" lon="4.773137">
        <ele>-3.541931</ele>
        <time>2026-08-15T07:29:45.617Z</time>
      </trkpt>
      <trkpt lat="52.148058" lon="4.773015">
        <ele>-3.604198</ele>
        <time>2026-08-15T07:29:48.352Z</time>
      </trkpt>
      <trkpt lat="52.148075" lon="4.773004">
        <ele>-3.609651</ele>
        <time>2026-08-15T07:29:48.594Z</time>
      </trkpt>
      <trkpt lat="52.148257" lon="4.772896">
        <ele>-3.667391</ele>
        <time>2026-08-15T07:29:51.251Z</time>
      </trkpt>
      <trkpt lat="52.148394" lon="4.772859">
        <ele>-3.708789</ele>
        <time>2026-08-15T07:29:53.959Z</time>
      </trkpt>
      <trkpt lat="52.148439" lon="4.772839">
        <ele>-3.722693</ele>
        <time>2026-08-15T07:29:54.876Z</time>
      </trkpt>
      <trkpt lat="52.148483" lon="4.772903">
        <ele>-3.740275</ele>
        <time>2026-08-15T07:29:55.764Z</time>
      </trkpt>
      <trkpt lat="52.148541" lon="4.772914">
        <ele>-3.757681</ele>
        <time>2026-08-15T07:29:56.750Z</time>
      </trkpt>
      <trkpt lat="52.148555" lon="4.772964">
        <ele>-3.767735</ele>
        <time>2026-08-15T07:29:57.233Z</time>
      </trkpt>
      <trkpt lat="52.148637" lon="4.773205">
        <ele>-3.818143</ele>
        <time>2026-08-15T07:29:59.958Z</time>
      </trkpt>
      <trkpt lat="52.148842" lon="4.774047">
        <ele>-3.933184</ele>
        <time>2026-08-15T07:30:08.659Z</time>
      </trkpt>
      <trkpt lat="52.148873" lon="4.774176">
        <ele>-3.903615</ele>
        <time>2026-08-15T07:30:09.833Z</time>
      </trkpt>
      <trkpt lat="52.148947" lon="4.774468">
        <ele>-3.836188</ele>
        <time>2026-08-15T07:30:13.082Z</time>
      </trkpt>
      <trkpt lat="52.148959" lon="4.774520">
        <ele>-3.824331</ele>
        <time>2026-08-15T07:30:13.706Z</time>
      </trkpt>
      <trkpt lat="52.149054" lon="4.774921">
        <ele>-3.732589</ele>
        <time>2026-08-15T07:30:18.392Z</time>
      </trkpt>
      <trkpt lat="52.149087" lon="4.775063">
        <ele>-3.700182</ele>
        <time>2026-08-15T07:30:19.919Z</time>
      </trkpt>
      <trkpt lat="52.149134" lon="4.775262">
        <ele>-3.654672</ele>
        <time>2026-08-15T07:30:22.094Z</time>
      </trkpt>
      <trkpt lat="52.149195" lon="4.775507">
        <ele>-3.598242</ele>
        <time>2026-08-15T07:30:24.702Z</time>
      </trkpt>
      <trkpt lat="52.149239" lon="4.775684">
        <ele>-3.557483</ele>
        <time>2026-08-15T07:30:26.596Z</time>
      </trkpt>
      <trkpt lat="52.149264" lon="4.775786">
        <ele>-3.534041</ele>
        <time>2026-08-15T07:30:27.591Z</time>
      </trkpt>
      <trkpt lat="52.149303" lon="4.775941">
        <ele>-3.498286</ele>
        <time>2026-08-15T07:30:29.337Z</time>
      </trkpt>
      <trkpt lat="52.149341" lon="4.776084">
        <ele>-3.465027</ele>
        <time>2026-08-15T07:30:30.853Z</time>
      </trkpt>
      <trkpt lat="52.149368" lon="4.776189">
        <ele>-3.440729</ele>
        <time>2026-08-15T07:30:31.947Z</time>
      </trkpt>
      <trkpt lat="52.149450" lon="4.776394">
        <ele>-3.388501</ele>
        <time>2026-08-15T07:30:34.231Z</time>
      </trkpt>
      <trkpt lat="52.149721" lon="4.776629">
        <ele>-3.291141</ele>
        <time>2026-08-15T07:30:38.924Z</time>
      </trkpt>
      <trkpt lat="52.149775" lon="4.776670">
        <ele>-3.274092</ele>
        <time>2026-08-15T07:30:39.798Z</time>
      </trkpt>
      <trkpt lat="52.150291" lon="4.777057">
        <ele>-3.111528</ele>
        <time>2026-08-15T07:30:49.491Z</time>
      </trkpt>
      <trkpt lat="52.150296" lon="4.777063">
        <ele>-3.109751</ele>
        <time>2026-08-15T07:30:49.594Z</time>
      </trkpt>
      <trkpt lat="52.150394" lon="4.777173">
        <ele>-3.075696</ele>
        <time>2026-08-15T07:30:51.487Z</time>
      </trkpt>
      <trkpt lat="52.150417" lon="4.777204">
        <ele>-3.067154</ele>
        <time>2026-08-15T07:30:51.950Z</time>
      </trkpt>
      <trkpt lat="52.150494" lon="4.777314">
        <ele>-3.037850</ele>
        <time>2026-08-15T07:30:53.481Z</time>
      </trkpt>
      <trkpt lat="52.150622" lon="4.777505">
        <ele>-2.988181</ele>
        <time>2026-08-15T07:30:56.106Z</time>
      </trkpt>
      <trkpt lat="52.150712" lon="4.777639">
        <ele>-2.953293</ele>
        <time>2026-08-15T07:30:58.015Z</time>
      </trkpt>
      <trkpt lat="52.150777" lon="4.777737">
        <ele>-2.927951</ele>
        <time>2026-08-15T07:30:59.458Z</time>
      </trkpt>
      <trkpt lat="52.151088" lon="4.778184">
        <ele>-2.814894</ele>
        <time>2026-08-15T07:31:06.074Z</time>
      </trkpt>
      <trkpt lat="52.151146" lon="4.778271">
        <ele>-2.804053</ele>
        <time>2026-08-15T07:31:07.334Z</time>
      </trkpt>
      <trkpt lat="52.151386" lon="4.778632">
        <ele>-2.759134</ele>
        <time>2026-08-15T07:31:12.473Z</time>
      </trkpt>
      <trkpt lat="52.151718" lon="4.779146">
        <ele>-2.696152</ele>
        <time>2026-08-15T07:31:19.634Z</time>
      </trkpt>
      <trkpt lat="52.151969" lon="4.779519">
        <ele>-2.649434</ele>
        <time>2026-08-15T07:31:24.783Z</time>
      </trkpt>
      <trkpt lat="52.152140" lon="4.779860">
        <ele>-2.612269</ele>
        <time>2026-08-15T07:31:28.848Z</time>
      </trkpt>
      <trkpt lat="52.152889" lon="4.781855">
        <ele>-2.278164</ele>
        <time>2026-08-15T07:31:50.468Z</time>
      </trkpt>
      <trkpt lat="52.153266" lon="4.782862">
        <ele>-2.073084</ele>
        <time>2026-08-15T07:32:02.560Z</time>
      </trkpt>
      <trkpt lat="52.153445" lon="4.783544">
        <ele>-1.835302</ele>
        <time>2026-08-15T07:32:10.761Z</time>
      </trkpt>
      <trkpt lat="52.153487" lon="4.783749">
        <ele>-1.766021</ele>
        <time>2026-08-15T07:32:13.141Z</time>
      </trkpt>
      <trkpt lat="52.153503" lon="4.783820">
        <ele>-1.741775</ele>
        <time>2026-08-15T07:32:14.188Z</time>
      </trkpt>
      <trkpt lat="52.153287" lon="4.783953">
        <ele>-1.621138</ele>
        <time>2026-08-15T07:32:19.554Z</time>
      </trkpt>
      <trkpt lat="52.153203" lon="4.784152">
        <ele>-1.543709</ele>
        <time>2026-08-15T07:32:22.900Z</time>
      </trkpt>
      <trkpt lat="52.153206" lon="4.784287">
        <ele>-1.500405</ele>
        <time>2026-08-15T07:32:24.715Z</time>
      </trkpt>
      <trkpt lat="52.153507" lon="4.784930">
        <ele>-1.241146</ele>
        <time>2026-08-15T07:32:35.775Z</time>
      </trkpt>
      <trkpt lat="52.154376" lon="4.786658">
        <ele>-1.071435</ele>
        <time>2026-08-15T07:33:03.876Z</time>
      </trkpt>
      <trkpt lat="52.154466" lon="4.786838">
        <ele>-1.059939</ele>
        <time>2026-08-15T07:33:06.799Z</time>
      </trkpt>
      <trkpt lat="52.154535" lon="4.787043">
        <ele>-1.048362</ele>
        <time>2026-08-15T07:33:09.724Z</time>
      </trkpt>
      <trkpt lat="52.154790" lon="4.787747">
        <ele>-1.067168</ele>
        <time>2026-08-15T07:33:19.775Z</time>
      </trkpt>
      <trkpt lat="52.154857" lon="4.787821">
        <ele>-1.081873</ele>
        <time>2026-08-15T07:33:21.374Z</time>
      </trkpt>
      <trkpt lat="52.155047" lon="4.788415">
        <ele>-1.156543</ele>
        <time>2026-08-15T07:33:29.371Z</time>
      </trkpt>
      <trkpt lat="52.155784" lon="4.790725">
        <ele>-1.333050</ele>
        <time>2026-08-15T07:34:00.241Z</time>
      </trkpt>
      <trkpt lat="52.156479" lon="4.793111">
        <ele>-1.301691</ele>
        <time>2026-08-15T07:34:34.202Z</time>
      </trkpt>
      <trkpt lat="52.156605" lon="4.793550">
        <ele>-1.317417</ele>
        <time>2026-08-15T07:34:40.165Z</time>
      </trkpt>
      <trkpt lat="52.156936" lon="4.794703">
        <ele>-1.358722</ele>
        <time>2026-08-15T07:34:55.416Z</time>
      </trkpt>
      <trkpt lat="52.157355" lon="4.796170">
        <ele>-1.371105</ele>
        <time>2026-08-15T07:35:15.359Z</time>
      </trkpt>
      <trkpt lat="52.157830" lon="4.797868">
        <ele>-1.356459</ele>
        <time>2026-08-15T07:35:32.569Z</time>
      </trkpt>
      <trkpt lat="52.158075" lon="4.798610">
        <ele>-1.401364</ele>
        <time>2026-08-15T07:35:40.091Z</time>
      </trkpt>
      <trkpt lat="52.158197" lon="4.799199">
        <ele>-1.437929</ele>
        <time>2026-08-15T07:35:45.564Z</time>
      </trkpt>
      <trkpt lat="52.158701" lon="4.801008">
        <ele>-1.516673</ele>
        <time>2026-08-15T07:36:03.072Z</time>
      </trkpt>
      <trkpt lat="52.159239" lon="4.802843">
        <ele>-1.463792</ele>
        <time>2026-08-15T07:36:21.821Z</time>
      </trkpt>
      <trkpt lat="52.159309" lon="4.803090">
        <ele>-1.456718</ele>
        <time>2026-08-15T07:36:24.371Z</time>
      </trkpt>
      <trkpt lat="52.159503" lon="4.803778">
        <ele>-1.399934</ele>
        <time>2026-08-15T07:36:31.494Z</time>
      </trkpt>
      <trkpt lat="52.160011" lon="4.805587">
        <ele>-1.221080</ele>
        <time>2026-08-15T07:36:50.334Z</time>
      </trkpt>
      <trkpt lat="52.160480" lon="4.807187">
        <ele>-1.055712</ele>
        <time>2026-08-15T07:37:07.175Z</time>
      </trkpt>
      <trkpt lat="52.160533" lon="4.807373">
        <ele>-1.036411</ele>
        <time>2026-08-15T07:37:09.110Z</time>
      </trkpt>
      <trkpt lat="52.160558" lon="4.807479">
        <ele>-1.025722</ele>
        <time>2026-08-15T07:37:10.186Z</time>
      </trkpt>
      <trkpt lat="52.160532" lon="4.807614">
        <ele>-1.012405</ele>
        <time>2026-08-15T07:37:11.509Z</time>
      </trkpt>
      <trkpt lat="52.161476" lon="4.810932">
        <ele>-0.744023</ele>
        <time>2026-08-15T07:37:45.951Z</time>
      </trkpt>
      <trkpt lat="52.161774" lon="4.812112">
        <ele>-0.760769</ele>
        <time>2026-08-15T07:37:57.518Z</time>
      </trkpt>
      <trkpt lat="52.162254" lon="4.814108">
        <ele>-0.844148</ele>
        <time>2026-08-15T07:38:16.563Z</time>
      </trkpt>
      <trkpt lat="52.162664" lon="4.815808">
        <ele>-0.867321</ele>
        <time>2026-08-15T07:38:33.286Z</time>
      </trkpt>
      <trkpt lat="52.163535" lon="4.819429">
        <ele>-1.099005</ele>
        <time>2026-08-15T07:39:07.509Z</time>
      </trkpt>
      <trkpt lat="52.163547" lon="4.819475">
        <ele>-1.098721</ele>
        <time>2026-08-15T07:39:07.938Z</time>
      </trkpt>
      <trkpt lat="52.163827" lon="4.820597">
        <ele>-1.091841</ele>
        <time>2026-08-15T07:39:18.644Z</time>
      </trkpt>
      <trkpt lat="52.163946" lon="4.821500">
        <ele>-1.086596</ele>
        <time>2026-08-15T07:39:27.081Z</time>
      </trkpt>
      <trkpt lat="52.164085" lon="4.823041">
        <ele>-0.962838</ele>
        <time>2026-08-15T07:39:41.919Z</time>
      </trkpt>
      <trkpt lat="52.164109" lon="4.823316">
        <ele>-0.922091</ele>
        <time>2026-08-15T07:39:44.879Z</time>
      </trkpt>
      <trkpt lat="52.164116" lon="4.823434">
        <ele>-0.904700</ele>
        <time>2026-08-15T07:39:46.192Z</time>
      </trkpt>
      <trkpt lat="52.164174" lon="4.824277">
        <ele>-0.780262</ele>
        <time>2026-08-15T07:39:54.573Z</time>
      </trkpt>
      <trkpt lat="52.164217" lon="4.824908">
        <ele>-0.687129</ele>
        <time>2026-08-15T07:40:00.642Z</time>
      </trkpt>
      <trkpt lat="52.164226" lon="4.825076">
        <ele>-0.662391</ele>
        <time>2026-08-15T07:40:02.755Z</time>
      </trkpt>
      <trkpt lat="52.164250" lon="4.825355">
        <ele>-0.680944</ele>
        <time>2026-08-15T07:40:06.368Z</time>
      </trkpt>
      <trkpt lat="52.164269" lon="4.825594">
        <ele>-0.713500</ele>
        <time>2026-08-15T07:40:09.382Z</time>
      </trkpt>
      <trkpt lat="52.164288" lon="4.825821">
        <ele>-0.744450</ele>
        <time>2026-08-15T07:40:12.192Z</time>
      </trkpt>
      <trkpt lat="52.164305" lon="4.825998">
        <ele>-0.768652</ele>
        <time>2026-08-15T07:40:14.371Z</time>
      </trkpt>
      <trkpt lat="52.164338" lon="4.826394">
        <ele>-0.822639</ele>
        <time>2026-08-15T07:40:19.234Z</time>
      </trkpt>
      <trkpt lat="52.164344" lon="4.826456">
        <ele>-0.831118</ele>
        <time>2026-08-15T07:40:19.931Z</time>
      </trkpt>
      <trkpt lat="52.164443" lon="4.827687">
        <ele>-0.998836</ele>
        <time>2026-08-15T07:40:29.891Z</time>
      </trkpt>
      <trkpt lat="52.164494" lon="4.828288">
        <ele>-1.057067</ele>
        <time>2026-08-15T07:40:35.291Z</time>
      </trkpt>
      <trkpt lat="52.164640" lon="4.830006">
        <ele>-1.119996</ele>
        <time>2026-08-15T07:40:50.850Z</time>
      </trkpt>
      <trkpt lat="52.164654" lon="4.830161">
        <ele>-1.125680</ele>
        <time>2026-08-15T07:40:52.344Z</time>
      </trkpt>
      <trkpt lat="52.164660" lon="4.830230">
        <ele>-1.128209</ele>
        <time>2026-08-15T07:40:53.007Z</time>
      </trkpt>
      <trkpt lat="52.164810" lon="4.832104">
        <ele>-1.149970</ele>
        <time>2026-08-15T07:41:10.558Z</time>
      </trkpt>
      <trkpt lat="52.164837" lon="4.832656">
        <ele>-1.147689</ele>
        <time>2026-08-15T07:41:15.482Z</time>
      </trkpt>
      <trkpt lat="52.164973" lon="4.834018">
        <ele>-1.126374</ele>
        <time>2026-08-15T07:41:27.782Z</time>
      </trkpt>
      <trkpt lat="52.165077" lon="4.835164">
        <ele>-1.008400</ele>
        <time>2026-08-15T07:41:38.578Z</time>
      </trkpt>
      <trkpt lat="52.165226" lon="4.837550">
        <ele>-0.830896</ele>
        <time>2026-08-15T07:42:01.809Z</time>
      </trkpt>
      <trkpt lat="52.165330" lon="4.838589">
        <ele>-0.813245</ele>
        <time>2026-08-15T07:42:11.407Z</time>
      </trkpt>
      <trkpt lat="52.165398" lon="4.839382">
        <ele>-0.799820</ele>
        <time>2026-08-15T07:42:18.481Z</time>
      </trkpt>
      <trkpt lat="52.165561" lon="4.841862">
        <ele>-0.878054</ele>
        <time>2026-08-15T07:42:40.613Z</time>
      </trkpt>
      <trkpt lat="52.165667" lon="4.843196">
        <ele>-0.983597</ele>
        <time>2026-08-15T07:42:52.915Z</time>
      </trkpt>
      <trkpt lat="52.165769" lon="4.844503">
        <ele>-1.151026</ele>
        <time>2026-08-15T07:43:04.647Z</time>
      </trkpt>
      <trkpt lat="52.165807" lon="4.845055">
        <ele>-1.221613</ele>
        <time>2026-08-15T07:43:09.290Z</time>
      </trkpt>
      <trkpt lat="52.165824" lon="4.845274">
        <ele>-1.249665</ele>
        <time>2026-08-15T07:43:11.107Z</time>
      </trkpt>
      <trkpt lat="52.166013" lon="4.847611">
        <ele>-1.739384</ele>
        <time>2026-08-15T07:43:30.163Z</time>
      </trkpt>
      <trkpt lat="52.166188" lon="4.850094">
        <ele>-1.802810</ele>
        <time>2026-08-15T07:43:52.671Z</time>
      </trkpt>
      <trkpt lat="52.166216" lon="4.850390">
        <ele>-1.783434</ele>
        <time>2026-08-15T07:43:55.595Z</time>
      </trkpt>
      <trkpt lat="52.166299" lon="4.851255">
        <ele>-1.726790</ele>
        <time>2026-08-15T07:44:04.297Z</time>
      </trkpt>
      <trkpt lat="52.166483" lon="4.851190">
        <ele>-1.688911</ele>
        <time>2026-08-15T07:44:07.389Z</time>
      </trkpt>
      <trkpt lat="52.166550" lon="4.851486">
        <ele>-1.645550</ele>
        <time>2026-08-15T07:44:11.627Z</time>
      </trkpt>
      <trkpt lat="52.166602" lon="4.851712">
        <ele>-1.612377</ele>
        <time>2026-08-15T07:44:14.892Z</time>
      </trkpt>
      <trkpt lat="52.166522" lon="4.851773">
        <ele>-1.592589</ele>
        <time>2026-08-15T07:44:16.824Z</time>
      </trkpt>
      <trkpt lat="52.166481" lon="4.851779">
        <ele>-1.583366</ele>
        <time>2026-08-15T07:44:17.742Z</time>
      </trkpt>
      <trkpt lat="52.166413" lon="4.851868">
        <ele>-1.563828</ele>
        <time>2026-08-15T07:44:19.629Z</time>
      </trkpt>
      <trkpt lat="52.166346" lon="4.852071">
        <ele>-1.532147</ele>
        <time>2026-08-15T07:44:22.707Z</time>
      </trkpt>
      <trkpt lat="52.165912" lon="4.853005">
        <ele>-1.371112</ele>
        <time>2026-08-15T07:44:37.814Z</time>
      </trkpt>
      <trkpt lat="52.165541" lon="4.853636">
        <ele>-1.416969</ele>
        <time>2026-08-15T07:44:48.296Z</time>
      </trkpt>
      <trkpt lat="52.165305" lon="4.853916">
        <ele>-1.508943</ele>
        <time>2026-08-15T07:44:53.814Z</time>
      </trkpt>
      <trkpt lat="52.164919" lon="4.854067">
        <ele>-1.634028</ele>
        <time>2026-08-15T07:45:01.178Z</time>
      </trkpt>
      <trkpt lat="52.163865" lon="4.854381">
        <ele>-1.912655</ele>
        <time>2026-08-15T07:45:21.493Z</time>
      </trkpt>
      <trkpt lat="52.163647" lon="4.854447">
        <ele>-1.933982</ele>
        <time>2026-08-15T07:45:25.830Z</time>
      </trkpt>
      <trkpt lat="52.163406" lon="4.854520">
        <ele>-1.957560</ele>
        <time>2026-08-15T07:45:30.675Z</time>
      </trkpt>
      <trkpt lat="52.162508" lon="4.854794">
        <ele>-2.045437</ele>
        <time>2026-08-15T07:45:49.199Z</time>
      </trkpt>
      <trkpt lat="52.161819" lon="4.855004">
        <ele>-1.990225</ele>
        <time>2026-08-15T07:46:03.742Z</time>
      </trkpt>
      <trkpt lat="52.161628" lon="4.855062">
        <ele>-1.965769</ele>
        <time>2026-08-15T07:46:07.795Z</time>
      </trkpt>
      <trkpt lat="52.160764" lon="4.855321">
        <ele>-1.855186</ele>
        <time>2026-08-15T07:46:26.187Z</time>
      </trkpt>
      <trkpt lat="52.156014" lon="4.856775">
        <ele>-1.697576</ele>
        <time>2026-08-15T07:48:04.005Z</time>
      </trkpt>
      <trkpt lat="52.155903" lon="4.856808">
        <ele>-1.686695</ele>
        <time>2026-08-15T07:48:06.348Z</time>
      </trkpt>
      <trkpt lat="52.155461" lon="4.856976">
        <ele>-1.642927</ele>
        <time>2026-08-15T07:48:15.891Z</time>
      </trkpt>
      <trkpt lat="52.155328" lon="4.857056">
        <ele>-1.629256</ele>
        <time>2026-08-15T07:48:18.888Z</time>
      </trkpt>
      <trkpt lat="52.155251" lon="4.857142">
        <ele>-1.612391</ele>
        <time>2026-08-15T07:48:20.887Z</time>
      </trkpt>
      <trkpt lat="52.155225" lon="4.857243">
        <ele>-1.597815</ele>
        <time>2026-08-15T07:48:22.305Z</time>
      </trkpt>
      <trkpt lat="52.155199" lon="4.857877">
        <ele>-1.513253</ele>
        <time>2026-08-15T07:48:30.626Z</time>
      </trkpt>
      <trkpt lat="52.155029" lon="4.858748">
        <ele>-1.391615</ele>
        <time>2026-08-15T07:48:42.627Z</time>
      </trkpt>
      <trkpt lat="52.154840" lon="4.860051">
        <ele>-1.237463</ele>
        <time>2026-08-15T07:48:59.823Z</time>
      </trkpt>
      <trkpt lat="52.154647" lon="4.861851">
        <ele>-1.248721</ele>
        <time>2026-08-15T07:49:22.269Z</time>
      </trkpt>
      <trkpt lat="52.154488" lon="4.863220">
        <ele>-1.242891</ele>
        <time>2026-08-15T07:49:39.373Z</time>
      </trkpt>
      <trkpt lat="52.154261" lon="4.863812">
        <ele>-1.225392</ele>
        <time>2026-08-15T07:49:48.069Z</time>
      </trkpt>
      <trkpt lat="52.154132" lon="4.864209">
        <ele>-1.214131</ele>
        <time>2026-08-15T07:49:52.235Z</time>
      </trkpt>
      <trkpt lat="52.154103" lon="4.864354">
        <ele>-1.210308</ele>
        <time>2026-08-15T07:49:54.156Z</time>
      </trkpt>
      <trkpt lat="52.154090" lon="4.864467">
        <ele>-1.207426</ele>
        <time>2026-08-15T07:49:55.597Z</time>
      </trkpt>
      <trkpt lat="52.154083" lon="4.864539">
        <ele>-1.205599</ele>
        <time>2026-08-15T07:49:56.271Z</time>
      </trkpt>
      <trkpt lat="52.154071" lon="4.864809">
        <ele>-1.198813</ele>
        <time>2026-08-15T07:49:58.790Z</time>
      </trkpt>
      <trkpt lat="52.154124" lon="4.865235">
        <ele>-1.187917</ele>
        <time>2026-08-15T07:50:02.848Z</time>
      </trkpt>
      <trkpt lat="52.154333" lon="4.865891">
        <ele>-1.240072</ele>
        <time>2026-08-15T07:50:09.763Z</time>
      </trkpt>
      <trkpt lat="52.154676" lon="4.867032">
        <ele>-1.402505</ele>
        <time>2026-08-15T07:50:20.761Z</time>
      </trkpt>
      <trkpt lat="52.155153" lon="4.868758">
        <ele>-1.643943</ele>
        <time>2026-08-15T07:50:36.481Z</time>
      </trkpt>
      <trkpt lat="52.155329" lon="4.868997">
        <ele>-1.691371</ele>
        <time>2026-08-15T07:50:39.654Z</time>
      </trkpt>
      <trkpt lat="52.155530" lon="4.869748">
        <ele>-1.795449</ele>
        <time>2026-08-15T07:50:46.839Z</time>
      </trkpt>
      <trkpt lat="52.155621" lon="4.869974">
        <ele>-1.829787</ele>
        <time>2026-08-15T07:50:49.234Z</time>
      </trkpt>
      <trkpt lat="52.155651" lon="4.870072">
        <ele>-1.843699</ele>
        <time>2026-08-15T07:50:50.558Z</time>
      </trkpt>
      <trkpt lat="52.155696" lon="4.870437">
        <ele>-1.890990</ele>
        <time>2026-08-15T07:50:53.850Z</time>
      </trkpt>
      <trkpt lat="52.155942" lon="4.871316">
        <ele>-1.887782</ele>
        <time>2026-08-15T07:51:02.479Z</time>
      </trkpt>
      <trkpt lat="52.156176" lon="4.872151">
        <ele>-1.832774</ele>
        <time>2026-08-15T07:51:10.972Z</time>
      </trkpt>
      <trkpt lat="52.158014" lon="4.878772">
        <ele>-1.144528</ele>
        <time>2026-08-15T07:52:20.261Z</time>
      </trkpt>
      <trkpt lat="52.158080" lon="4.879132">
        <ele>-1.148143</ele>
        <time>2026-08-15T07:52:23.828Z</time>
      </trkpt>
      <trkpt lat="52.158163" lon="4.879425">
        <ele>-1.151247</ele>
        <time>2026-08-15T07:52:27.915Z</time>
      </trkpt>
      <trkpt lat="52.158332" lon="4.880025">
        <ele>-1.157598</ele>
        <time>2026-08-15T07:52:36.145Z</time>
      </trkpt>
      <trkpt lat="52.158438" lon="4.880404">
        <ele>-1.161605</ele>
        <time>2026-08-15T07:52:41.287Z</time>
      </trkpt>
      <trkpt lat="52.158572" lon="4.880792">
        <ele>-1.165888</ele>
        <time>2026-08-15T07:52:46.678Z</time>
      </trkpt>
      <trkpt lat="52.159120" lon="4.882707">
        <ele>-1.198051</ele>
        <time>2026-08-15T07:53:12.038Z</time>
      </trkpt>
      <trkpt lat="52.159439" lon="4.883826">
        <ele>-1.219888</ele>
        <time>2026-08-15T07:53:27.725Z</time>
      </trkpt>
      <trkpt lat="52.159534" lon="4.884308">
        <ele>-1.228443</ele>
        <time>2026-08-15T07:53:34.179Z</time>
      </trkpt>
      <trkpt lat="52.159642" lon="4.884810">
        <ele>-1.237073</ele>
        <time>2026-08-15T07:53:40.913Z</time>
      </trkpt>
      <trkpt lat="52.160338" lon="4.887027">
        <ele>-1.266667</ele>
        <time>2026-08-15T07:54:11.438Z</time>
      </trkpt>
      <trkpt lat="52.161478" lon="4.890300">
        <ele>-1.246837</ele>
        <time>2026-08-15T07:54:58.434Z</time>
      </trkpt>
      <trkpt lat="52.161657" lon="4.891116">
        <ele>-1.257516</ele>
        <time>2026-08-15T07:55:09.023Z</time>
      </trkpt>
      <trkpt lat="52.161752" lon="4.891768">
        <ele>-1.265775</ele>
        <time>2026-08-15T07:55:17.189Z</time>
      </trkpt>
      <trkpt lat="52.161780" lon="4.892194">
        <ele>-1.279217</ele>
        <time>2026-08-15T07:55:22.425Z</time>
      </trkpt>
      <trkpt lat="52.161746" lon="4.893634">
        <ele>-1.348372</ele>
        <time>2026-08-15T07:55:40.112Z</time>
      </trkpt>
      <trkpt lat="52.161762" lon="4.894500">
        <ele>-1.389949</ele>
        <time>2026-08-15T07:55:50.626Z</time>
      </trkpt>
      <trkpt lat="52.161831" lon="4.894491">
        <ele>-1.395364</ele>
        <time>2026-08-15T07:55:52.022Z</time>
      </trkpt>
      <trkpt lat="52.161905" lon="4.894487">
        <ele>-1.401156</ele>
        <time>2026-08-15T07:55:53.454Z</time>
      </trkpt>
      <trkpt lat="52.162016" lon="4.894492">
        <ele>-1.409790</ele>
        <time>2026-08-15T07:55:55.648Z</time>
      </trkpt>
      <trkpt lat="52.162008" lon="4.895627">
        <ele>-1.461050</ele>
        <time>2026-08-15T07:56:09.285Z</time>
      </trkpt>
      <trkpt lat="52.162298" lon="4.905600">
        <ele>-1.741878</ele>
        <time>2026-08-15T07:58:11.601Z</time>
      </trkpt>
      <trkpt lat="52.162269" lon="4.906304">
        <ele>-1.690225</ele>
        <time>2026-08-15T07:58:20.912Z</time>
      </trkpt>
      <trkpt lat="52.162063" lon="4.907665">
        <ele>-1.258925</ele>
        <time>2026-08-15T07:58:40.296Z</time>
      </trkpt>
      <trkpt lat="52.162072" lon="4.908314">
        <ele>-1.059194</ele>
        <time>2026-08-15T07:58:49.567Z</time>
      </trkpt>
      <trkpt lat="52.162166" lon="4.908774">
        <ele>-0.910018</ele>
        <time>2026-08-15T07:58:56.268Z</time>
      </trkpt>
      <trkpt lat="52.162297" lon="4.908695">
        <ele>-0.839962</ele>
        <time>2026-08-15T07:58:59.316Z</time>
      </trkpt>
      <trkpt lat="52.162330" lon="4.908807">
        <ele>-0.824972</ele>
        <time>2026-08-15T07:59:00.970Z</time>
      </trkpt>
      <trkpt lat="52.162353" lon="4.908891">
        <ele>-0.826837</ele>
        <time>2026-08-15T07:59:02.165Z</time>
      </trkpt>
      <trkpt lat="52.162368" lon="4.908950">
        <ele>-0.828131</ele>
        <time>2026-08-15T07:59:02.999Z</time>
      </trkpt>
      <trkpt lat="52.162324" lon="4.909203">
        <ele>-0.833461</ele>
        <time>2026-08-15T07:59:06.386Z</time>
      </trkpt>
      <trkpt lat="52.162307" lon="4.909251">
        <ele>-0.834585</ele>
        <time>2026-08-15T07:59:07.098Z</time>
      </trkpt>
      <trkpt lat="52.162327" lon="4.909337">
        <ele>-0.836449</ele>
        <time>2026-08-15T07:59:08.256Z</time>
      </trkpt>
      <trkpt lat="52.162355" lon="4.909481">
        <ele>-0.839511</ele>
        <time>2026-08-15T07:59:10.155Z</time>
      </trkpt>
      <trkpt lat="52.162449" lon="4.910734">
        <ele>-0.865097</ele>
        <time>2026-08-15T07:59:25.464Z</time>
      </trkpt>
      <trkpt lat="52.162498" lon="4.910988">
        <ele>-0.870494</ele>
        <time>2026-08-15T07:59:28.561Z</time>
      </trkpt>
      <trkpt lat="52.162599" lon="4.911358">
        <ele>-0.878703</ele>
        <time>2026-08-15T07:59:33.239Z</time>
      </trkpt>
      <trkpt lat="52.163293" lon="4.913005">
        <ele>-1.124442</ele>
        <time>2026-08-15T07:59:57.186Z</time>
      </trkpt>
      <trkpt lat="52.163570" lon="4.913955">
        <ele>-1.266518</ele>
        <time>2026-08-15T08:00:09.888Z</time>
      </trkpt>
      <trkpt lat="52.163593" lon="4.914035">
        <ele>-1.278451</ele>
        <time>2026-08-15T08:00:10.956Z</time>
      </trkpt>
      <trkpt lat="52.163661" lon="4.914298">
        <ele>-1.348557</ele>
        <time>2026-08-15T08:00:14.330Z</time>
      </trkpt>
      <trkpt lat="52.164085" lon="4.916023">
        <ele>-1.808109</ele>
        <time>2026-08-15T08:00:35.531Z</time>
      </trkpt>
      <trkpt lat="52.164328" lon="4.916896">
        <ele>-2.025105</ele>
        <time>2026-08-15T08:00:46.541Z</time>
      </trkpt>
      <trkpt lat="52.164439" lon="4.917319">
        <ele>-2.083230</ele>
        <time>2026-08-15T08:00:51.915Z</time>
      </trkpt>
      <trkpt lat="52.164473" lon="4.917450">
        <ele>-2.101201</ele>
        <time>2026-08-15T08:00:53.599Z</time>
      </trkpt>
      <trkpt lat="52.165091" lon="4.919847">
        <ele>-2.411777</ele>
        <time>2026-08-15T08:01:24.862Z</time>
      </trkpt>
      <trkpt lat="52.165676" lon="4.922116">
        <ele>-2.621646</ele>
        <time>2026-08-15T08:01:54.405Z</time>
      </trkpt>
      <trkpt lat="52.165953" lon="4.923192">
        <ele>-2.559949</ele>
        <time>2026-08-15T08:02:09.357Z</time>
      </trkpt>
      <trkpt lat="52.166869" lon="4.926664">
        <ele>-2.132070</ele>
        <time>2026-08-15T08:02:57.350Z</time>
      </trkpt>
      <trkpt lat="52.167163" lon="4.927808">
        <ele>-1.899198</ele>
        <time>2026-08-15T08:03:14.288Z</time>
      </trkpt>
      <trkpt lat="52.167274" lon="4.928155">
        <ele>-1.795161</ele>
        <time>2026-08-15T08:03:19.756Z</time>
      </trkpt>
      <trkpt lat="52.167362" lon="4.928297">
        <ele>-1.741499</ele>
        <time>2026-08-15T08:03:22.626Z</time>
      </trkpt>
      <trkpt lat="52.167627" lon="4.928458">
        <ele>-1.618930</ele>
        <time>2026-08-15T08:03:29.178Z</time>
      </trkpt>
      <trkpt lat="52.167949" lon="4.928663">
        <ele>-1.469109</ele>
        <time>2026-08-15T08:03:37.008Z</time>
      </trkpt>
      <trkpt lat="52.168227" lon="4.928721">
        <ele>-1.347639</ele>
        <time>2026-08-15T08:03:43.012Z</time>
      </trkpt>
      <trkpt lat="52.168267" lon="4.928751">
        <ele>-1.328556</ele>
        <time>2026-08-15T08:03:43.940Z</time>
      </trkpt>
      <trkpt lat="52.168300" lon="4.928975">
        <ele>-1.267316</ele>
        <time>2026-08-15T08:03:46.939Z</time>
      </trkpt>
      <trkpt lat="52.168253" lon="4.929156">
        <ele>-1.215067</ele>
        <time>2026-08-15T08:03:49.462Z</time>
      </trkpt>
      <trkpt lat="52.168202" lon="4.929251">
        <ele>-1.213389</ele>
        <time>2026-08-15T08:03:51.049Z</time>
      </trkpt>
      <trkpt lat="52.168150" lon="4.929358">
        <ele>-1.257003</ele>
        <time>2026-08-15T08:03:52.762Z</time>
      </trkpt>
      <trkpt lat="52.168061" lon="4.929743">
        <ele>-1.388446</ele>
        <time>2026-08-15T08:03:57.752Z</time>
      </trkpt>
      <trkpt lat="52.168050" lon="4.929814">
        <ele>-1.411841</ele>
        <time>2026-08-15T08:03:58.602Z</time>
      </trkpt>
      <trkpt lat="52.168036" lon="4.929914">
        <ele>-1.444610</ele>
        <time>2026-08-15T08:03:59.790Z</time>
      </trkpt>
      <trkpt lat="52.168015" lon="4.930073">
        <ele>-1.496571</ele>
        <time>2026-08-15T08:04:01.668Z</time>
      </trkpt>
      <trkpt lat="52.168009" lon="4.930138">
        <ele>-1.517570</ele>
        <time>2026-08-15T08:04:02.415Z</time>
      </trkpt>
      <trkpt lat="52.167895" lon="4.931222">
        <ele>-1.868934</ele>
        <time>2026-08-15T08:04:14.515Z</time>
      </trkpt>
      <trkpt lat="52.167839" lon="4.931722">
        <ele>-2.031313</ele>
        <time>2026-08-15T08:04:19.941Z</time>
      </trkpt>
      <trkpt lat="52.167833" lon="4.932204">
        <ele>-2.156957</ele>
        <time>2026-08-15T08:04:25.170Z</time>
      </trkpt>
      <trkpt lat="52.167873" lon="4.932670">
        <ele>-2.226019</ele>
        <time>2026-08-15T08:04:30.341Z</time>
      </trkpt>
      <trkpt lat="52.167938" lon="4.933033">
        <ele>-2.281520</ele>
        <time>2026-08-15T08:04:34.584Z</time>
      </trkpt>
      <trkpt lat="52.168158" lon="4.933939">
        <ele>-2.424536</ele>
        <time>2026-08-15T08:04:46.330Z</time>
      </trkpt>
      <trkpt lat="52.168445" lon="4.935124">
        <ele>-2.544227</ele>
        <time>2026-08-15T08:05:02.981Z</time>
      </trkpt>
      <trkpt lat="52.170255" lon="4.942589">
        <ele>-2.000931</ele>
        <time>2026-08-15T08:06:44.276Z</time>
      </trkpt>
      <trkpt lat="52.170824" lon="4.944936">
        <ele>-1.756003</ele>
        <time>2026-08-15T08:07:17.844Z</time>
      </trkpt>
      <trkpt lat="52.171031" lon="4.945512">
        <ele>-1.690157</ele>
        <time>2026-08-15T08:07:26.037Z</time>
      </trkpt>
      <trkpt lat="52.171377" lon="4.946214">
        <ele>-1.894036</ele>
        <time>2026-08-15T08:07:36.204Z</time>
      </trkpt>
      <trkpt lat="52.171569" lon="4.946685">
        <ele>-2.068948</ele>
        <time>2026-08-15T08:07:40.683Z</time>
      </trkpt>
      <trkpt lat="52.171626" lon="4.946916">
        <ele>-2.145956</ele>
        <time>2026-08-15T08:07:42.630Z</time>
      </trkpt>
      <trkpt lat="52.171716" lon="4.947719">
        <ele>-2.398418</ele>
        <time>2026-08-15T08:07:48.973Z</time>
      </trkpt>
      <trkpt lat="52.171791" lon="4.948015">
        <ele>-2.497469</ele>
        <time>2026-08-15T08:07:51.471Z</time>
      </trkpt>
      <trkpt lat="52.173948" lon="4.953770">
        <ele>-2.922048</ele>
        <time>2026-08-15T08:08:52.097Z</time>
      </trkpt>
      <trkpt lat="52.174909" lon="4.956334">
        <ele>-3.107894</ele>
        <time>2026-08-15T08:09:18.652Z</time>
      </trkpt>
      <trkpt lat="52.174965" lon="4.956487">
        <ele>-3.121174</ele>
        <time>2026-08-15T08:09:20.140Z</time>
      </trkpt>
      <trkpt lat="52.175162" lon="4.957066">
        <ele>-3.170524</ele>
        <time>2026-08-15T08:09:25.714Z</time>
      </trkpt>
      <trkpt lat="52.175230" lon="4.957289">
        <ele>-3.189086</ele>
        <time>2026-08-15T08:09:27.851Z</time>
      </trkpt>
      <trkpt lat="52.175262" lon="4.957413">
        <ele>-3.199113</ele>
        <time>2026-08-15T08:09:28.990Z</time>
      </trkpt>
      <trkpt lat="52.175342" lon="4.957734">
        <ele>-3.224937</ele>
        <time>2026-08-15T08:09:32.057Z</time>
      </trkpt>
      <trkpt lat="52.175464" lon="4.958548">
        <ele>-3.263594</ele>
        <time>2026-08-15T08:09:39.658Z</time>
      </trkpt>
      <trkpt lat="52.175503" lon="4.958997">
        <ele>-3.230942</ele>
        <time>2026-08-15T08:09:43.903Z</time>
      </trkpt>
      <trkpt lat="52.175528" lon="4.959654">
        <ele>-3.183544</ele>
        <time>2026-08-15T08:09:50.183Z</time>
      </trkpt>
      <trkpt lat="52.175483" lon="4.964536">
        <ele>-2.797213</ele>
        <time>2026-08-15T08:10:36.245Z</time>
      </trkpt>
      <trkpt lat="52.175477" lon="4.965182">
        <ele>-2.715698</ele>
        <time>2026-08-15T08:10:42.275Z</time>
      </trkpt>
      <trkpt lat="52.175472" lon="4.965700">
        <ele>-2.650334</ele>
        <time>2026-08-15T08:10:47.152Z</time>
      </trkpt>
      <trkpt lat="52.175466" lon="4.966486">
        <ele>-2.551156</ele>
        <time>2026-08-15T08:10:54.631Z</time>
      </trkpt>
      <trkpt lat="52.175154" lon="4.975524">
        <ele>-0.875778</ele>
        <time>2026-08-15T08:12:23.813Z</time>
      </trkpt>
      <trkpt lat="52.175183" lon="4.975933">
        <ele>-0.794458</ele>
        <time>2026-08-15T08:12:28.009Z</time>
      </trkpt>
      <trkpt lat="52.175242" lon="4.976198">
        <ele>-0.762066</ele>
        <time>2026-08-15T08:12:30.866Z</time>
      </trkpt>
      <trkpt lat="52.175375" lon="4.976529">
        <ele>-0.720062</ele>
        <time>2026-08-15T08:12:34.856Z</time>
      </trkpt>
      <trkpt lat="52.173508" lon="4.978693">
        <ele>-0.545949</ele>
        <time>2026-08-15T08:13:09.775Z</time>
      </trkpt>
      <trkpt lat="52.172652" lon="4.979564">
        <ele>-0.632805</ele>
        <time>2026-08-15T08:13:23.804Z</time>
      </trkpt>
      <trkpt lat="52.171996" lon="4.980161">
        <ele>-0.762030</ele>
        <time>2026-08-15T08:13:34.161Z</time>
      </trkpt>
      <trkpt lat="52.171483" lon="4.980663">
        <ele>-0.864943</ele>
        <time>2026-08-15T08:13:42.622Z</time>
      </trkpt>
      <trkpt lat="52.170979" lon="4.981131">
        <ele>-0.892037</ele>
        <time>2026-08-15T08:13:51.442Z</time>
      </trkpt>
      <trkpt lat="52.170601" lon="4.981507">
        <ele>-0.829639</ele>
        <time>2026-08-15T08:13:58.217Z</time>
      </trkpt>
      <trkpt lat="52.170476" lon="4.981682">
        <ele>-0.806421</ele>
        <time>2026-08-15T08:14:00.824Z</time>
      </trkpt>
      <trkpt lat="52.170262" lon="4.981984">
        <ele>-0.766538</ele>
        <time>2026-08-15T08:14:05.208Z</time>
      </trkpt>
      <trkpt lat="52.170111" lon="4.982200">
        <ele>-0.738230</ele>
        <time>2026-08-15T08:14:08.305Z</time>
      </trkpt>
      <trkpt lat="52.170018" lon="4.982344">
        <ele>-0.720157</ele>
        <time>2026-08-15T08:14:10.263Z</time>
      </trkpt>
      <trkpt lat="52.169789" lon="4.982692">
        <ele>-0.676043</ele>
        <time>2026-08-15T08:14:15.289Z</time>
      </trkpt>
      <trkpt lat="52.169725" lon="4.982865">
        <ele>-0.664891</ele>
        <time>2026-08-15T08:14:17.409Z</time>
      </trkpt>
      <trkpt lat="52.169678" lon="4.983068">
        <ele>-0.655443</ele>
        <time>2026-08-15T08:14:19.505Z</time>
      </trkpt>
      <trkpt lat="52.169658" lon="4.983305">
        <ele>-0.645026</ele>
        <time>2026-08-15T08:14:21.725Z</time>
      </trkpt>
      <trkpt lat="52.169572" lon="4.983612">
        <ele>-0.630330</ele>
        <time>2026-08-15T08:14:24.761Z</time>
      </trkpt>
      <trkpt lat="52.169409" lon="4.983810">
        <ele>-0.615899</ele>
        <time>2026-08-15T08:14:27.809Z</time>
      </trkpt>
      <trkpt lat="52.169267" lon="4.983944">
        <ele>-0.604250</ele>
        <time>2026-08-15T08:14:31.053Z</time>
      </trkpt>
      <trkpt lat="52.169247" lon="4.983964">
        <ele>-0.602585</ele>
        <time>2026-08-15T08:14:31.381Z</time>
      </trkpt>
      <trkpt lat="52.169081" lon="4.984124">
        <ele>-0.588894</ele>
        <time>2026-08-15T08:14:34.047Z</time>
      </trkpt>
      <trkpt lat="52.169049" lon="4.984238">
        <ele>-0.583435</ele>
        <time>2026-08-15T08:14:35.072Z</time>
      </trkpt>
      <trkpt lat="52.168911" lon="4.984477">
        <ele>-0.569141</ele>
        <time>2026-08-15T08:14:38.003Z</time>
      </trkpt>
      <trkpt lat="52.168894" lon="4.984801">
        <ele>-0.554981</ele>
        <time>2026-08-15T08:14:41.023Z</time>
      </trkpt>
      <trkpt lat="52.168848" lon="4.984865">
        <ele>-0.550688</ele>
        <time>2026-08-15T08:14:41.885Z</time>
      </trkpt>
      <trkpt lat="52.168801" lon="4.984942">
        <ele>-0.545958</ele>
        <time>2026-08-15T08:14:42.981Z</time>
      </trkpt>
      <trkpt lat="52.168647" lon="4.985365">
        <ele>-0.468673</ele>
        <time>2026-08-15T08:14:47.910Z</time>
      </trkpt>
      <trkpt lat="52.168608" lon="4.985494">
        <ele>-0.444058</ele>
        <time>2026-08-15T08:14:49.345Z</time>
      </trkpt>
      <trkpt lat="52.168948" lon="4.985755">
        <ele>-0.339192</ele>
        <time>2026-08-15T08:14:55.689Z</time>
      </trkpt>
      <trkpt lat="52.169436" lon="4.986184">
        <ele>-0.184485</ele>
        <time>2026-08-15T08:15:04.561Z</time>
      </trkpt>
      <trkpt lat="52.169549" lon="4.986389">
        <ele>-0.137313</ele>
        <time>2026-08-15T08:15:07.332Z</time>
      </trkpt>
      <trkpt lat="52.169721" lon="4.988084">
        <ele>0.031116</ele>
        <time>2026-08-15T08:15:23.443Z</time>
      </trkpt>
      <trkpt lat="52.169790" lon="4.988311">
        <ele>0.047028</ele>
        <time>2026-08-15T08:15:25.613Z</time>
      </trkpt>
      <trkpt lat="52.169897" lon="4.988539">
        <ele>0.065058</ele>
        <time>2026-08-15T08:15:28.182Z</time>
      </trkpt>
      <trkpt lat="52.170138" lon="4.989041">
        <ele>0.105096</ele>
        <time>2026-08-15T08:15:34.341Z</time>
      </trkpt>
      <trkpt lat="52.170230" lon="4.989318">
        <ele>0.124880</ele>
        <time>2026-08-15T08:15:37.146Z</time>
      </trkpt>
      <trkpt lat="52.170261" lon="4.989402">
        <ele>0.131037</ele>
        <time>2026-08-15T08:15:38.001Z</time>
      </trkpt>
      <trkpt lat="52.170523" lon="4.990192">
        <ele>0.206244</ele>
        <time>2026-08-15T08:15:46.507Z</time>
      </trkpt>
      <trkpt lat="52.170538" lon="4.990399">
        <ele>0.224810</ele>
        <time>2026-08-15T08:15:48.642Z</time>
      </trkpt>
      <trkpt lat="52.170538" lon="4.990587">
        <ele>0.241556</ele>
        <time>2026-08-15T08:15:50.588Z</time>
      </trkpt>
      <trkpt lat="52.170538" lon="4.990592">
        <ele>0.242001</ele>
        <time>2026-08-15T08:15:50.632Z</time>
      </trkpt>
      <trkpt lat="52.170538" lon="4.990633">
        <ele>0.245653</ele>
        <time>2026-08-15T08:15:51.030Z</time>
      </trkpt>
      <trkpt lat="52.170538" lon="4.990678">
        <ele>0.249661</ele>
        <time>2026-08-15T08:15:51.497Z</time>
      </trkpt>
      <trkpt lat="52.170538" lon="4.990903">
        <ele>0.269702</ele>
        <time>2026-08-15T08:15:53.828Z</time>
      </trkpt>
      <trkpt lat="52.170538" lon="4.990984">
        <ele>0.276917</ele>
        <time>2026-08-15T08:15:54.670Z</time>
      </trkpt>
      <trkpt lat="52.170539" lon="4.991126">
        <ele>0.289566</ele>
        <time>2026-08-15T08:15:56.140Z</time>
      </trkpt>
      <trkpt lat="52.170539" lon="4.991766">
        <ele>0.346572</ele>
        <time>2026-08-15T08:16:02.539Z</time>
      </trkpt>
      <trkpt lat="52.170624" lon="4.992144">
        <ele>0.382432</ele>
        <time>2026-08-15T08:16:05.891Z</time>
      </trkpt>
      <trkpt lat="52.170656" lon="4.992359">
        <ele>0.402138</ele>
        <time>2026-08-15T08:16:07.612Z</time>
      </trkpt>
      <trkpt lat="52.170682" lon="4.992931">
        <ele>0.347737</ele>
        <time>2026-08-15T08:16:12.393Z</time>
      </trkpt>
      <trkpt lat="52.170733" lon="4.993348">
        <ele>0.304939</ele>
        <time>2026-08-15T08:16:16.345Z</time>
      </trkpt>
      <trkpt lat="52.170839" lon="4.993499">
        <ele>0.281840</ele>
        <time>2026-08-15T08:16:18.423Z</time>
      </trkpt>
      <trkpt lat="52.170871" lon="4.993626">
        <ele>0.268021</ele>
        <time>2026-08-15T08:16:19.609Z</time>
      </trkpt>
      <trkpt lat="52.170874" lon="4.993769">
        <ele>0.253619</ele>
        <time>2026-08-15T08:16:20.879Z</time>
      </trkpt>
      <trkpt lat="52.170738" lon="4.993959">
        <ele>0.224228</ele>
        <time>2026-08-15T08:16:23.358Z</time>
      </trkpt>
      <trkpt lat="52.170592" lon="4.994023">
        <ele>0.199418</ele>
        <time>2026-08-15T08:16:25.410Z</time>
      </trkpt>
      <trkpt lat="52.170044" lon="4.994143">
        <ele>0.108678</ele>
        <time>2026-08-15T08:16:32.810Z</time>
      </trkpt>
      <trkpt lat="52.169139" lon="4.994222">
        <ele>0.509685</ele>
        <time>2026-08-15T08:16:48.392Z</time>
      </trkpt>
      <trkpt lat="52.168996" lon="4.994087">
        <ele>0.582901</ele>
        <time>2026-08-15T08:16:52.194Z</time>
      </trkpt>
      <trkpt lat="52.168905" lon="4.994019">
        <ele>0.627255</ele>
        <time>2026-08-15T08:16:54.479Z</time>
      </trkpt>
      <trkpt lat="52.167974" lon="4.993787">
        <ele>0.983288</ele>
        <time>2026-08-15T08:17:15.577Z</time>
      </trkpt>
      <trkpt lat="52.167849" lon="4.993794">
        <ele>1.014292</ele>
        <time>2026-08-15T08:17:18.317Z</time>
      </trkpt>
      <trkpt lat="52.167738" lon="4.993865">
        <ele>1.043849</ele>
        <time>2026-08-15T08:17:20.814Z</time>
      </trkpt>
      <trkpt lat="52.167656" lon="4.993980">
        <ele>1.070661</ele>
        <time>2026-08-15T08:17:23.047Z</time>
      </trkpt>
      <trkpt lat="52.167605" lon="4.994134">
        <ele>1.097271</ele>
        <time>2026-08-15T08:17:25.283Z</time>
      </trkpt>
      <trkpt lat="52.167601" lon="4.994346">
        <ele>1.129519</ele>
        <time>2026-08-15T08:17:27.973Z</time>
      </trkpt>
      <trkpt lat="52.167726" lon="4.996378">
        <ele>1.429309</ele>
        <time>2026-08-15T08:17:47.149Z</time>
      </trkpt>
      <trkpt lat="52.167806" lon="4.997609">
        <ele>1.594789</ele>
        <time>2026-08-15T08:17:59.302Z</time>
      </trkpt>
      <trkpt lat="52.167864" lon="4.998034">
        <ele>1.652992</ele>
        <time>2026-08-15T08:18:03.626Z</time>
      </trkpt>
      <trkpt lat="52.167952" lon="4.998400">
        <ele>1.705543</ele>
        <time>2026-08-15T08:18:07.451Z</time>
      </trkpt>
      <trkpt lat="52.168021" lon="4.998529">
        <ele>1.728424</ele>
        <time>2026-08-15T08:18:09.116Z</time>
      </trkpt>
      <trkpt lat="52.168128" lon="4.999099">
        <ele>1.695557</ele>
        <time>2026-08-15T08:18:14.676Z</time>
      </trkpt>
      <trkpt lat="52.168194" lon="4.999355">
        <ele>1.668160</ele>
        <time>2026-08-15T08:18:17.183Z</time>
      </trkpt>
      <trkpt lat="52.168277" lon="4.999375">
        <ele>1.654664</ele>
        <time>2026-08-15T08:18:18.403Z</time>
      </trkpt>
      <trkpt lat="52.168807" lon="4.999026">
        <ele>1.562720</ele>
        <time>2026-08-15T08:18:26.622Z</time>
      </trkpt>
      <trkpt lat="52.168861" lon="4.998899">
        <ele>1.547474</ele>
        <time>2026-08-15T08:18:27.897Z</time>
      </trkpt>
      <trkpt lat="52.168930" lon="4.998943">
        <ele>1.535556</ele>
        <time>2026-08-15T08:18:28.881Z</time>
      </trkpt>
      <trkpt lat="52.169030" lon="4.998970">
        <ele>1.519251</ele>
        <time>2026-08-15T08:18:30.776Z</time>
      </trkpt>
      <trkpt lat="52.169144" lon="4.998902">
        <ele>1.499725</ele>
        <time>2026-08-15T08:18:33.022Z</time>
      </trkpt>
      <trkpt lat="52.169455" lon="4.998679">
        <ele>1.443243</ele>
        <time>2026-08-15T08:18:39.371Z</time>
      </trkpt>
      <trkpt lat="52.169486" lon="4.998799">
        <ele>1.427770</ele>
        <time>2026-08-15T08:18:40.854Z</time>
      </trkpt>
      <trkpt lat="52.169531" lon="4.999179">
        <ele>1.381778</ele>
        <time>2026-08-15T08:18:45.295Z</time>
      </trkpt>
      <trkpt lat="52.169505" lon="4.999460">
        <ele>1.348008</ele>
        <time>2026-08-15T08:18:48.557Z</time>
      </trkpt>
      <trkpt lat="52.169327" lon="4.999741">
        <ele>1.300002</ele>
        <time>2026-08-15T08:18:53.251Z</time>
      </trkpt>
      <trkpt lat="52.169388" lon="5.000021">
        <ele>1.264692</ele>
        <time>2026-08-15T08:18:56.733Z</time>
      </trkpt>
      <trkpt lat="52.169522" lon="5.000680">
        <ele>1.182187</ele>
        <time>2026-08-15T08:19:05.063Z</time>
      </trkpt>
      <trkpt lat="52.169725" lon="5.001721">
        <ele>1.192485</ele>
        <time>2026-08-15T08:19:19.049Z</time>
      </trkpt>
      <trkpt lat="52.169908" lon="5.002657">
        <ele>1.383454</ele>
        <time>2026-08-15T08:19:32.039Z</time>
      </trkpt>
      <trkpt lat="52.170027" lon="5.003228">
        <ele>1.500682</ele>
        <time>2026-08-15T08:19:39.578Z</time>
      </trkpt>
      <trkpt lat="52.170049" lon="5.003306">
        <ele>1.517371</ele>
        <time>2026-08-15T08:19:40.765Z</time>
      </trkpt>
      <trkpt lat="52.170120" lon="5.003230">
        <ele>1.544290</ele>
        <time>2026-08-15T08:19:42.252Z</time>
      </trkpt>
      <trkpt lat="52.170330" lon="5.003013">
        <ele>1.623089</ele>
        <time>2026-08-15T08:19:46.617Z</time>
      </trkpt>
      <trkpt lat="52.170611" lon="5.002788">
        <ele>1.728071</ele>
        <time>2026-08-15T08:19:52.034Z</time>
      </trkpt>
      <trkpt lat="52.170639" lon="5.002897">
        <ele>1.753875</ele>
        <time>2026-08-15T08:19:53.637Z</time>
      </trkpt>
      <trkpt lat="52.170662" lon="5.002992">
        <ele>1.776178</ele>
        <time>2026-08-15T08:19:55.049Z</time>
      </trkpt>
      <trkpt lat="52.170686" lon="5.003125">
        <ele>1.806451</ele>
        <time>2026-08-15T08:19:56.957Z</time>
      </trkpt>
      <trkpt lat="52.170740" lon="5.003443">
        <ele>1.878502</ele>
        <time>2026-08-15T08:20:01.534Z</time>
      </trkpt>
      <trkpt lat="52.170769" lon="5.003592">
        <ele>1.912637</ele>
        <time>2026-08-15T08:20:03.716Z</time>
      </trkpt>
      <trkpt lat="52.170841" lon="5.003746">
        <ele>1.954921</ele>
        <time>2026-08-15T08:20:06.391Z</time>
      </trkpt>
      <trkpt lat="52.171024" lon="5.004057">
        <ele>2.049032</ele>
        <time>2026-08-15T08:20:12.232Z</time>
      </trkpt>
      <trkpt lat="52.171099" lon="5.004079">
        <ele>2.076163</ele>
        <time>2026-08-15T08:20:13.894Z</time>
      </trkpt>
      <trkpt lat="52.171301" lon="5.004009">
        <ele>2.149689</ele>
        <time>2026-08-15T08:20:18.185Z</time>
      </trkpt>
      <trkpt lat="52.171695" lon="5.003840">
        <ele>2.294740</ele>
        <time>2026-08-15T08:20:27.068Z</time>
      </trkpt>
      <trkpt lat="52.171708" lon="5.003832">
        <ele>2.299687</ele>
        <time>2026-08-15T08:20:27.336Z</time>
      </trkpt>
      <trkpt lat="52.171761" lon="5.003812">
        <ele>2.313459</ele>
        <time>2026-08-15T08:20:28.399Z</time>
      </trkpt>
      <trkpt lat="52.171971" lon="5.003684">
        <ele>2.247887</ele>
        <time>2026-08-15T08:20:32.726Z</time>
      </trkpt>
      <trkpt lat="52.172056" lon="5.004058">
        <ele>2.176343</ele>
        <time>2026-08-15T08:20:37.408Z</time>
      </trkpt>
      <trkpt lat="52.172283" lon="5.004811">
        <ele>2.025838</ele>
        <time>2026-08-15T08:20:47.055Z</time>
      </trkpt>
      <trkpt lat="52.172335" lon="5.004940">
        <ele>1.998148</ele>
        <time>2026-08-15T08:20:48.274Z</time>
      </trkpt>
      <trkpt lat="52.172366" lon="5.005050">
        <ele>1.976434</ele>
        <time>2026-08-15T08:20:49.625Z</time>
      </trkpt>
      <trkpt lat="52.172240" lon="5.005224">
        <ele>1.928141</ele>
        <time>2026-08-15T08:20:52.600Z</time>
      </trkpt>
      <trkpt lat="52.171129" lon="5.006909">
        <ele>1.489091</ele>
        <time>2026-08-15T08:21:13.674Z</time>
      </trkpt>
      <trkpt lat="52.170547" lon="5.007723">
        <ele>1.266571</ele>
        <time>2026-08-15T08:21:24.533Z</time>
      </trkpt>
      <trkpt lat="52.169961" lon="5.008483">
        <ele>0.950551</ele>
        <time>2026-08-15T08:21:34.453Z</time>
      </trkpt>
      <trkpt lat="52.169508" lon="5.008956">
        <ele>0.723518</ele>
        <time>2026-08-15T08:21:41.676Z</time>
      </trkpt>
      <trkpt lat="52.169080" lon="5.009350">
        <ele>0.516078</ele>
        <time>2026-08-15T08:21:48.243Z</time>
      </trkpt>
      <trkpt lat="52.168791" lon="5.009518">
        <ele>0.502050</ele>
        <time>2026-08-15T08:21:52.321Z</time>
      </trkpt>
      <trkpt lat="52.168112" lon="5.009873">
        <ele>0.476228</ele>
        <time>2026-08-15T08:22:02.713Z</time>
      </trkpt>
      <trkpt lat="52.167716" lon="5.009957">
        <ele>0.461767</ele>
        <time>2026-08-15T08:22:08.677Z</time>
      </trkpt>
      <trkpt lat="52.166850" lon="5.010060">
        <ele>0.483008</ele>
        <time>2026-08-15T08:22:22.561Z</time>
      </trkpt>
      <trkpt lat="52.165993" lon="5.010245">
        <ele>0.546328</ele>
        <time>2026-08-15T08:22:35.897Z</time>
      </trkpt>
      <trkpt lat="52.165072" lon="5.010443">
        <ele>0.529911</ele>
        <time>2026-08-15T08:22:49.089Z</time>
      </trkpt>
      <trkpt lat="52.164781" lon="5.010498">
        <ele>0.499401</ele>
        <time>2026-08-15T08:22:53.069Z</time>
      </trkpt>
      <trkpt lat="52.164598" lon="5.010535">
        <ele>0.480195</ele>
        <time>2026-08-15T08:22:55.623Z</time>
      </trkpt>
      <trkpt lat="52.164160" lon="5.010640">
        <ele>0.434088</ele>
        <time>2026-08-15T08:23:02.093Z</time>
      </trkpt>
      <trkpt lat="52.163140" lon="5.011021">
        <ele>0.256953</ele>
        <time>2026-08-15T08:23:17.658Z</time>
      </trkpt>
      <trkpt lat="52.162697" lon="5.011241">
        <ele>0.159714</ele>
        <time>2026-08-15T08:23:24.000Z</time>
      </trkpt>
      <trkpt lat="52.162210" lon="5.011540">
        <ele>0.050443</ele>
        <time>2026-08-15T08:23:31.030Z</time>
      </trkpt>
      <trkpt lat="52.161656" lon="5.011934">
        <ele>0.024104</ele>
        <time>2026-08-15T08:23:39.495Z</time>
      </trkpt>
      <trkpt lat="52.161428" lon="5.012146">
        <ele>0.029922</ele>
        <time>2026-08-15T08:23:43.361Z</time>
      </trkpt>
      <trkpt lat="52.160944" lon="5.012742">
        <ele>0.043368</ele>
        <time>2026-08-15T08:23:52.723Z</time>
      </trkpt>
      <trkpt lat="52.160775" lon="5.013074">
        <ele>0.049235</ele>
        <time>2026-08-15T08:23:56.866Z</time>
      </trkpt>
      <trkpt lat="52.160595" lon="5.013649">
        <ele>0.095648</ele>
        <time>2026-08-15T08:24:03.082Z</time>
      </trkpt>
      <trkpt lat="52.160193" lon="5.015018">
        <ele>0.329545</ele>
        <time>2026-08-15T08:24:17.824Z</time>
      </trkpt>
      <trkpt lat="52.160070" lon="5.015468">
        <ele>0.405466</ele>
        <time>2026-08-15T08:24:22.579Z</time>
      </trkpt>
      <trkpt lat="52.159764" lon="5.016426">
        <ele>0.497811</ele>
        <time>2026-08-15T08:24:33.142Z</time>
      </trkpt>
      <trkpt lat="52.159490" lon="5.017132">
        <ele>0.481349</ele>
        <time>2026-08-15T08:24:41.137Z</time>
      </trkpt>
      <trkpt lat="52.159024" lon="5.018097">
        <ele>0.457150</ele>
        <time>2026-08-15T08:24:51.808Z</time>
      </trkpt>
      <trkpt lat="52.158877" lon="5.018385">
        <ele>0.449767</ele>
        <time>2026-08-15T08:24:54.987Z</time>
      </trkpt>
      <trkpt lat="52.158925" lon="5.018893">
        <ele>0.372208</ele>
        <time>2026-08-15T08:24:59.321Z</time>
      </trkpt>
      <trkpt lat="52.159042" lon="5.019322">
        <ele>0.292067</ele>
        <time>2026-08-15T08:25:04.810Z</time>
      </trkpt>
      <trkpt lat="52.159764" lon="5.020923">
        <ele>-0.047117</ele>
        <time>2026-08-15T08:25:28.250Z</time>
      </trkpt>
      <trkpt lat="52.160030" lon="5.021357">
        <ele>-0.133230</ele>
        <time>2026-08-15T08:25:35.582Z</time>
      </trkpt>
      <trkpt lat="52.161154" lon="5.022763">
        <ele>-0.453953</ele>
        <time>2026-08-15T08:26:02.747Z</time>
      </trkpt>
      <trkpt lat="52.161384" lon="5.023050">
        <ele>-0.454181</ele>
        <time>2026-08-15T08:26:08.446Z</time>
      </trkpt>
      <trkpt lat="52.161668" lon="5.023541">
        <ele>-0.446384</ele>
        <time>2026-08-15T08:26:16.960Z</time>
      </trkpt>
      <trkpt lat="52.161765" lon="5.023791">
        <ele>-0.442966</ele>
        <time>2026-08-15T08:26:20.846Z</time>
      </trkpt>
      <trkpt lat="52.161895" lon="5.024306">
        <ele>-0.436531</ele>
        <time>2026-08-15T08:26:28.063Z</time>
      </trkpt>
      <trkpt lat="52.161934" lon="5.024825">
        <ele>-0.430490</ele>
        <time>2026-08-15T08:26:34.708Z</time>
      </trkpt>
      <trkpt lat="52.161922" lon="5.025083">
        <ele>-0.427500</ele>
        <time>2026-08-15T08:26:37.955Z</time>
      </trkpt>
      <trkpt lat="52.161853" lon="5.025462">
        <ele>-0.446271</ele>
        <time>2026-08-15T08:26:42.788Z</time>
      </trkpt>
      <trkpt lat="52.161392" lon="5.026783">
        <ele>-0.600215</ele>
        <time>2026-08-15T08:27:01.114Z</time>
      </trkpt>
      <trkpt lat="52.161354" lon="5.026948">
        <ele>-0.618068</ele>
        <time>2026-08-15T08:27:03.098Z</time>
      </trkpt>
      <trkpt lat="52.161336" lon="5.027059">
        <ele>-0.629697</ele>
        <time>2026-08-15T08:27:04.436Z</time>
      </trkpt>
      <trkpt lat="52.161326" lon="5.027226">
        <ele>-0.646694</ele>
        <time>2026-08-15T08:27:06.364Z</time>
      </trkpt>
      <trkpt lat="52.161347" lon="5.027564">
        <ele>-0.681106</ele>
        <time>2026-08-15T08:27:10.298Z</time>
      </trkpt>
      <trkpt lat="52.161416" lon="5.027903">
        <ele>-0.717285</ele>
        <time>2026-08-15T08:27:14.519Z</time>
      </trkpt>
      <trkpt lat="52.161635" lon="5.028954">
        <ele>-0.836317</ele>
        <time>2026-08-15T08:27:24.723Z</time>
      </trkpt>
      <trkpt lat="52.161603" lon="5.029147">
        <ele>-0.857812</ele>
        <time>2026-08-15T08:27:26.505Z</time>
      </trkpt>
      <trkpt lat="52.161363" lon="5.029648">
        <ele>-0.926157</ele>
        <time>2026-08-15T08:27:32.548Z</time>
      </trkpt>
      <trkpt lat="52.161328" lon="5.029843">
        <ele>-0.948001</ele>
        <time>2026-08-15T08:27:34.424Z</time>
      </trkpt>
      <trkpt lat="52.161323" lon="5.030027">
        <ele>-0.967804</ele>
        <time>2026-08-15T08:27:36.022Z</time>
      </trkpt>
      <trkpt lat="52.161425" lon="5.030577">
        <ele>-1.029581</ele>
        <time>2026-08-15T08:27:40.846Z</time>
      </trkpt>
      <trkpt lat="52.161538" lon="5.030879">
        <ele>-1.191454</ele>
        <time>2026-08-15T08:27:43.520Z</time>
      </trkpt>
      <trkpt lat="52.161551" lon="5.030895">
        <ele>-1.206075</ele>
        <time>2026-08-15T08:27:43.710Z</time>
      </trkpt>
      <trkpt lat="52.161717" lon="5.031102">
        <ele>-1.393670</ele>
        <time>2026-08-15T08:27:46.264Z</time>
      </trkpt>
      <trkpt lat="52.161746" lon="5.031122">
        <ele>-1.421933</ele>
        <time>2026-08-15T08:27:46.656Z</time>
      </trkpt>
      <trkpt lat="52.161804" lon="5.031154">
        <ele>-1.476894</ele>
        <time>2026-08-15T08:27:47.383Z</time>
      </trkpt>
      <trkpt lat="52.161993" lon="5.031265">
        <ele>-1.657212</ele>
        <time>2026-08-15T08:27:49.822Z</time>
      </trkpt>
      <trkpt lat="52.162197" lon="5.031414">
        <ele>-1.857859</ele>
        <time>2026-08-15T08:27:52.528Z</time>
      </trkpt>
      <trkpt lat="52.162283" lon="5.031541">
        <ele>-1.962015</ele>
        <time>2026-08-15T08:27:53.936Z</time>
      </trkpt>
      <trkpt lat="52.162318" lon="5.031629">
        <ele>-2.019762</ele>
        <time>2026-08-15T08:27:54.696Z</time>
      </trkpt>
      <trkpt lat="52.162357" lon="5.031774">
        <ele>-2.106937</ele>
        <time>2026-08-15T08:27:55.886Z</time>
      </trkpt>
      <trkpt lat="52.162320" lon="5.031878">
        <ele>-2.173133</ele>
        <time>2026-08-15T08:27:56.753Z</time>
      </trkpt>
      <trkpt lat="52.162426" lon="5.032407">
        <ele>-2.479549</ele>
        <time>2026-08-15T08:28:00.855Z</time>
      </trkpt>
      <trkpt lat="52.162659" lon="5.033321">
        <ele>-2.660046</ele>
        <time>2026-08-15T08:28:08.563Z</time>
      </trkpt>
      <trkpt lat="52.164426" lon="5.041028">
        <ele>-2.529669</ele>
        <time>2026-08-15T08:29:25.614Z</time>
      </trkpt>
      <trkpt lat="52.164506" lon="5.041265">
        <ele>-2.526827</ele>
        <time>2026-08-15T08:29:28.093Z</time>
      </trkpt>
      <trkpt lat="52.164601" lon="5.041670">
        <ele>-2.522273</ele>
        <time>2026-08-15T08:29:32.026Z</time>
      </trkpt>
      <trkpt lat="52.164649" lon="5.041971">
        <ele>-2.519006</ele>
        <time>2026-08-15T08:29:34.812Z</time>
      </trkpt>
      <trkpt lat="52.165314" lon="5.044839">
        <ele>-2.496020</ele>
        <time>2026-08-15T08:30:02.667Z</time>
      </trkpt>
      <trkpt lat="52.165355" lon="5.044945">
        <ele>-2.495623</ele>
        <time>2026-08-15T08:30:03.938Z</time>
      </trkpt>
      <trkpt lat="52.165432" lon="5.045026">
        <ele>-2.495149</ele>
        <time>2026-08-15T08:30:05.442Z</time>
      </trkpt>
      <trkpt lat="52.165518" lon="5.045394">
        <ele>-2.493902</ele>
        <time>2026-08-15T08:30:09.245Z</time>
      </trkpt>
      <trkpt lat="52.165763" lon="5.046443">
        <ele>-2.531698</ele>
        <time>2026-08-15T08:30:19.313Z</time>
      </trkpt>
      <trkpt lat="52.165279" lon="5.046821">
        <ele>-2.842761</ele>
        <time>2026-08-15T08:30:29.638Z</time>
      </trkpt>
      <trkpt lat="52.164828" lon="5.047119">
        <ele>-3.124823</ele>
        <time>2026-08-15T08:30:38.323Z</time>
      </trkpt>
      <trkpt lat="52.164724" lon="5.047189">
        <ele>-3.190039</ele>
        <time>2026-08-15T08:30:40.268Z</time>
      </trkpt>
      <trkpt lat="52.163775" lon="5.047793">
        <ele>-3.666156</ele>
        <time>2026-08-15T08:30:58.385Z</time>
      </trkpt>
      <trkpt lat="52.163159" lon="5.048141">
        <ele>-3.869263</ele>
        <time>2026-08-15T08:31:10.845Z</time>
      </trkpt>
      <trkpt lat="52.162042" lon="5.048738">
        <ele>-4.069635</ele>
        <time>2026-08-15T08:31:34.719Z</time>
      </trkpt>
      <trkpt lat="52.162014" lon="5.048754">
        <ele>-4.068074</ele>
        <time>2026-08-15T08:31:35.349Z</time>
      </trkpt>
      <trkpt lat="52.158382" lon="5.051074">
        <ele>-3.629168</ele>
        <time>2026-08-15T08:32:55.384Z</time>
      </trkpt>
      <trkpt lat="52.157270" lon="5.051788">
        <ele>-3.326992</ele>
        <time>2026-08-15T08:33:21.789Z</time>
      </trkpt>
      <trkpt lat="52.157186" lon="5.051831">
        <ele>-3.323372</ele>
        <time>2026-08-15T08:33:23.689Z</time>
      </trkpt>
      <trkpt lat="52.157002" lon="5.051902">
        <ele>-3.315599</ele>
        <time>2026-08-15T08:33:27.669Z</time>
      </trkpt>
      <trkpt lat="52.156876" lon="5.051907">
        <ele>-3.310418</ele>
        <time>2026-08-15T08:33:30.309Z</time>
      </trkpt>
      <trkpt lat="52.157039" lon="5.052621">
        <ele>-3.291205</ele>
        <time>2026-08-15T08:33:37.285Z</time>
      </trkpt>
      <trkpt lat="52.157080" lon="5.052798">
        <ele>-3.286433</ele>
        <time>2026-08-15T08:33:39.597Z</time>
      </trkpt>
      <trkpt lat="52.158044" lon="5.057119">
        <ele>-3.750627</ele>
        <time>2026-08-15T08:34:18.869Z</time>
      </trkpt>
      <trkpt lat="52.158655" lon="5.059776">
        <ele>-3.993544</ele>
        <time>2026-08-15T08:34:44.231Z</time>
      </trkpt>
      <trkpt lat="52.158620" lon="5.059795">
        <ele>-3.997537</ele>
        <time>2026-08-15T08:34:44.959Z</time>
      </trkpt>
      <trkpt lat="52.158530" lon="5.059843">
        <ele>-4.007786</ele>
        <time>2026-08-15T08:34:46.862Z</time>
      </trkpt>
      <trkpt lat="52.156063" lon="5.061326">
        <ele>-4.255194</ele>
        <time>2026-08-15T08:35:38.732Z</time>
      </trkpt>
      <trkpt lat="52.152699" lon="5.063335">
        <ele>-4.108483</ele>
        <time>2026-08-15T08:36:51.259Z</time>
      </trkpt>
      <trkpt lat="52.151339" lon="5.064150">
        <ele>-3.575412</ele>
        <time>2026-08-15T08:37:23.174Z</time>
      </trkpt>
      <trkpt lat="52.151041" lon="5.064326">
        <ele>-3.420737</ele>
        <time>2026-08-15T08:37:30.224Z</time>
      </trkpt>
      <trkpt lat="52.148597" lon="5.065794">
        <ele>-1.958396</ele>
        <time>2026-08-15T08:38:29.022Z</time>
      </trkpt>
      <trkpt lat="52.148538" lon="5.065876">
        <ele>-1.920191</ele>
        <time>2026-08-15T08:38:30.752Z</time>
      </trkpt>
      <trkpt lat="52.147757" lon="5.064340">
        <ele>-1.317086</ele>
        <time>2026-08-15T08:38:51.328Z</time>
      </trkpt>
      <trkpt lat="52.147378" lon="5.063588">
        <ele>-1.086080</ele>
        <time>2026-08-15T08:39:01.137Z</time>
      </trkpt>
      <trkpt lat="52.147155" lon="5.062986">
        <ele>-0.949224</ele>
        <time>2026-08-15T08:39:08.301Z</time>
      </trkpt>
      <trkpt lat="52.146829" lon="5.062260">
        <ele>-0.774138</ele>
        <time>2026-08-15T08:39:17.409Z</time>
      </trkpt>
      <trkpt lat="52.146794" lon="5.062310">
        <ele>-0.759376</ele>
        <time>2026-08-15T08:39:18.167Z</time>
      </trkpt>
      <trkpt lat="52.146743" lon="5.062391">
        <ele>-0.736789</ele>
        <time>2026-08-15T08:39:19.267Z</time>
      </trkpt>
      <trkpt lat="52.146603" lon="5.062618">
        <ele>-0.674151</ele>
        <time>2026-08-15T08:39:22.334Z</time>
      </trkpt>
      <trkpt lat="52.146440" lon="5.062908">
        <ele>-0.628919</ele>
        <time>2026-08-15T08:39:25.935Z</time>
      </trkpt>
      <trkpt lat="52.146266" lon="5.063239">
        <ele>-0.626543</ele>
        <time>2026-08-15T08:39:29.833Z</time>
      </trkpt>
      <trkpt lat="52.146125" lon="5.063508">
        <ele>-0.624615</ele>
        <time>2026-08-15T08:39:33.041Z</time>
      </trkpt>
      <trkpt lat="52.146093" lon="5.063570">
        <ele>-0.624173</ele>
        <time>2026-08-15T08:39:33.785Z</time>
      </trkpt>
      <trkpt lat="52.145944" lon="5.063861">
        <ele>-0.622108</ele>
        <time>2026-08-15T08:39:37.239Z</time>
      </trkpt>
      <trkpt lat="52.145645" lon="5.064434">
        <ele>-0.618008</ele>
        <time>2026-08-15T08:39:43.966Z</time>
      </trkpt>
      <trkpt lat="52.145542" lon="5.064629">
        <ele>-0.616605</ele>
        <time>2026-08-15T08:39:46.246Z</time>
      </trkpt>
      <trkpt lat="52.145341" lon="5.065020">
        <ele>-0.613979</ele>
        <time>2026-08-15T08:39:50.811Z</time>
      </trkpt>
      <trkpt lat="52.144302" lon="5.067037">
        <ele>-0.712685</ele>
        <time>2026-08-15T08:40:14.706Z</time>
      </trkpt>
      <trkpt lat="52.143678" lon="5.068283">
        <ele>-0.688049</ele>
        <time>2026-08-15T08:40:28.665Z</time>
      </trkpt>
      <trkpt lat="52.143472" lon="5.068767">
        <ele>-0.672069</ele>
        <time>2026-08-15T08:40:34.019Z</time>
      </trkpt>
      <trkpt lat="52.142993" lon="5.070034">
        <ele>-0.635787</ele>
        <time>2026-08-15T08:40:48.713Z</time>
      </trkpt>
      <trkpt lat="52.142639" lon="5.070774">
        <ele>-0.618665</ele>
        <time>2026-08-15T08:40:57.900Z</time>
      </trkpt>
      <trkpt lat="52.142361" lon="5.071368">
        <ele>-0.605033</ele>
        <time>2026-08-15T08:41:04.449Z</time>
      </trkpt>
      <trkpt lat="52.141984" lon="5.072260">
        <ele>-0.596409</ele>
        <time>2026-08-15T08:41:13.647Z</time>
      </trkpt>
      <trkpt lat="52.141621" lon="5.073140">
        <ele>-0.616697</ele>
        <time>2026-08-15T08:41:22.904Z</time>
      </trkpt>
      <trkpt lat="52.141438" lon="5.073377">
        <ele>-0.623984</ele>
        <time>2026-08-15T08:41:26.473Z</time>
      </trkpt>
      <trkpt lat="52.141464" lon="5.073448">
        <ele>-0.625566</ele>
        <time>2026-08-15T08:41:27.187Z</time>
      </trkpt>
      <trkpt lat="52.141500" lon="5.073562">
        <ele>-0.628019</ele>
        <time>2026-08-15T08:41:28.449Z</time>
      </trkpt>
      <trkpt lat="52.141507" lon="5.073759">
        <ele>-0.631795</ele>
        <time>2026-08-15T08:41:30.311Z</time>
      </trkpt>
      <trkpt lat="52.141475" lon="5.073935">
        <ele>-0.635307</ele>
        <time>2026-08-15T08:41:32.027Z</time>
      </trkpt>
      <trkpt lat="52.141394" lon="5.074154">
        <ele>-0.640199</ele>
        <time>2026-08-15T08:41:34.430Z</time>
      </trkpt>
      <trkpt lat="52.141348" lon="5.074379">
        <ele>-0.644737</ele>
        <time>2026-08-15T08:41:36.680Z</time>
      </trkpt>
      <trkpt lat="52.141326" lon="5.074456">
        <ele>-0.646362</ele>
        <time>2026-08-15T08:41:37.520Z</time>
      </trkpt>
      <trkpt lat="52.141192" lon="5.074737">
        <ele>-0.676002</ele>
        <time>2026-08-15T08:41:40.997Z</time>
      </trkpt>
      <trkpt lat="52.141067" lon="5.074876">
        <ele>-0.697581</ele>
        <time>2026-08-15T08:41:43.360Z</time>
      </trkpt>
      <trkpt lat="52.140977" lon="5.074936">
        <ele>-0.711447</ele>
        <time>2026-08-15T08:41:45.255Z</time>
      </trkpt>
      <trkpt lat="52.140957" lon="5.074945">
        <ele>-0.714406</ele>
        <time>2026-08-15T08:41:45.548Z</time>
      </trkpt>
      <trkpt lat="52.140881" lon="5.075004">
        <ele>-0.726410</ele>
        <time>2026-08-15T08:41:46.683Z</time>
      </trkpt>
      <trkpt lat="52.140635" lon="5.075523">
        <ele>-0.783798</ele>
        <time>2026-08-15T08:41:52.234Z</time>
      </trkpt>
      <trkpt lat="52.140430" lon="5.075996">
        <ele>-0.834473</ele>
        <time>2026-08-15T08:41:57.066Z</time>
      </trkpt>
      <trkpt lat="52.140366" lon="5.076148">
        <ele>-0.850604</ele>
        <time>2026-08-15T08:41:58.595Z</time>
      </trkpt>
      <trkpt lat="52.140212" lon="5.076563">
        <ele>-0.893045</ele>
        <time>2026-08-15T08:42:02.626Z</time>
      </trkpt>
      <trkpt lat="52.137913" lon="5.082122">
        <ele>-0.719651</ele>
        <time>2026-08-15T08:43:04.761Z</time>
      </trkpt>
      <trkpt lat="52.137800" lon="5.082396">
        <ele>-0.711917</ele>
        <time>2026-08-15T08:43:07.742Z</time>
      </trkpt>
      <trkpt lat="52.137344" lon="5.083497">
        <ele>-0.680799</ele>
        <time>2026-08-15T08:43:20.119Z</time>
      </trkpt>
      <trkpt lat="52.136600" lon="5.085282">
        <ele>-0.543321</ele>
        <time>2026-08-15T08:43:40.059Z</time>
      </trkpt>
      <trkpt lat="52.136201" lon="5.086259">
        <ele>-0.452502</ele>
        <time>2026-08-15T08:43:51.163Z</time>
      </trkpt>
      <trkpt lat="52.136018" lon="5.086709">
        <ele>-0.383015</ele>
        <time>2026-08-15T08:43:56.284Z</time>
      </trkpt>
      <trkpt lat="52.135665" lon="5.087561">
        <ele>-0.231123</ele>
        <time>2026-08-15T08:44:06.508Z</time>
      </trkpt>
      <trkpt lat="52.135588" lon="5.087749">
        <ele>-0.197727</ele>
        <time>2026-08-15T08:44:08.960Z</time>
      </trkpt>
      <trkpt lat="52.134648" lon="5.090011">
        <ele>-0.033610</ele>
        <time>2026-08-15T08:44:34.656Z</time>
      </trkpt>
      <trkpt lat="52.134303" lon="5.090798">
        <ele>-0.050571</ele>
        <time>2026-08-15T08:44:43.144Z</time>
      </trkpt>
      <trkpt lat="52.134157" lon="5.091146">
        <ele>-0.057963</ele>
        <time>2026-08-15T08:44:46.805Z</time>
      </trkpt>
      <trkpt lat="52.133946" lon="5.091653">
        <ele>-0.071053</ele>
        <time>2026-08-15T08:44:51.947Z</time>
      </trkpt>
      <trkpt lat="52.133411" lon="5.092927">
        <ele>-0.105093</ele>
        <time>2026-08-15T08:45:06.263Z</time>
      </trkpt>
      <trkpt lat="52.133260" lon="5.093319">
        <ele>-0.115299</ele>
        <time>2026-08-15T08:45:10.349Z</time>
      </trkpt>
      <trkpt lat="52.133230" lon="5.093413">
        <ele>-0.117636</ele>
        <time>2026-08-15T08:45:11.286Z</time>
      </trkpt>
      <trkpt lat="52.133161" lon="5.093557">
        <ele>-0.121664</ele>
        <time>2026-08-15T08:45:12.910Z</time>
      </trkpt>
      <trkpt lat="52.133106" lon="5.093506">
        <ele>-0.123938</ele>
        <time>2026-08-15T08:45:13.842Z</time>
      </trkpt>
      <trkpt lat="52.133038" lon="5.093451">
        <ele>-0.118729</ele>
        <time>2026-08-15T08:45:14.944Z</time>
      </trkpt>
      <trkpt lat="52.133013" lon="5.093464">
        <ele>-0.116627</ele>
        <time>2026-08-15T08:45:15.334Z</time>
      </trkpt>
      <trkpt lat="52.131803" lon="5.096342">
        <ele>0.015117</ele>
        <time>2026-08-15T08:45:48.007Z</time>
      </trkpt>
      <trkpt lat="52.131488" lon="5.097096">
        <ele>0.009095</ele>
        <time>2026-08-15T08:45:56.151Z</time>
      </trkpt>
      <trkpt lat="52.131403" lon="5.097298">
        <ele>0.007479</ele>
        <time>2026-08-15T08:45:58.338Z</time>
      </trkpt>
      <trkpt lat="52.131340" lon="5.097441">
        <ele>0.006316</ele>
        <time>2026-08-15T08:45:59.922Z</time>
      </trkpt>
      <trkpt lat="52.131278" lon="5.097594">
        <ele>0.005106</ele>
        <time>2026-08-15T08:46:01.589Z</time>
      </trkpt>
      <trkpt lat="52.130924" lon="5.098438">
        <ele>0.059820</ele>
        <time>2026-08-15T08:46:10.932Z</time>
      </trkpt>
      <trkpt lat="52.130800" lon="5.098734">
        <ele>0.126113</ele>
        <time>2026-08-15T08:46:14.073Z</time>
      </trkpt>
      <trkpt lat="52.130510" lon="5.099426">
        <ele>0.281114</ele>
        <time>2026-08-15T08:46:21.758Z</time>
      </trkpt>
      <trkpt lat="52.130069" lon="5.100478">
        <ele>0.516776</ele>
        <time>2026-08-15T08:46:35.060Z</time>
      </trkpt>
      <trkpt lat="52.129999" lon="5.100638">
        <ele>0.564030</ele>
        <time>2026-08-15T08:46:37.221Z</time>
      </trkpt>
      <trkpt lat="52.129955" lon="5.100740">
        <ele>0.610794</ele>
        <time>2026-08-15T08:46:38.620Z</time>
      </trkpt>
      <trkpt lat="52.129907" lon="5.100848">
        <ele>0.660809</ele>
        <time>2026-08-15T08:46:40.047Z</time>
      </trkpt>
      <trkpt lat="52.129818" lon="5.101053">
        <ele>0.754994</ele>
        <time>2026-08-15T08:46:42.767Z</time>
      </trkpt>
      <trkpt lat="52.129279" lon="5.101058">
        <ele>1.084360</ele>
        <time>2026-08-15T08:46:52.586Z</time>
      </trkpt>
      <trkpt lat="52.129134" lon="5.101107">
        <ele>1.174849</ele>
        <time>2026-08-15T08:46:55.392Z</time>
      </trkpt>
      <trkpt lat="52.129025" lon="5.101208">
        <ele>1.251476</ele>
        <time>2026-08-15T08:46:57.718Z</time>
      </trkpt>
      <trkpt lat="52.128796" lon="5.101708">
        <ele>1.485484</ele>
        <time>2026-08-15T08:47:04.283Z</time>
      </trkpt>
      <trkpt lat="52.128724" lon="5.101784">
        <ele>1.537910</ele>
        <time>2026-08-15T08:47:05.645Z</time>
      </trkpt>
      <trkpt lat="52.128664" lon="5.101822">
        <ele>1.577247</ele>
        <time>2026-08-15T08:47:06.679Z</time>
      </trkpt>
      <trkpt lat="52.128613" lon="5.101936">
        <ele>1.630161</ele>
        <time>2026-08-15T08:47:07.994Z</time>
      </trkpt>
      <trkpt lat="52.128585" lon="5.102214">
        <ele>1.619005</ele>
        <time>2026-08-15T08:47:10.582Z</time>
      </trkpt>
      <trkpt lat="52.128577" lon="5.102467">
        <ele>1.596240</ele>
        <time>2026-08-15T08:47:12.787Z</time>
      </trkpt>
      <trkpt lat="52.128611" lon="5.102738">
        <ele>1.571386</ele>
        <time>2026-08-15T08:47:15.170Z</time>
      </trkpt>
      <trkpt lat="52.128963" lon="5.103210">
        <ele>1.504651</ele>
        <time>2026-08-15T08:47:21.489Z</time>
      </trkpt>
      <trkpt lat="52.128963" lon="5.103278">
        <ele>1.498541</ele>
        <time>2026-08-15T08:47:22.282Z</time>
      </trkpt>
      <trkpt lat="52.128920" lon="5.103367">
        <ele>1.488364</ele>
        <time>2026-08-15T08:47:23.628Z</time>
      </trkpt>
      <trkpt lat="52.128685" lon="5.103873">
        <ele>1.431350</ele>
        <time>2026-08-15T08:47:28.892Z</time>
      </trkpt>
      <trkpt lat="52.128529" lon="5.104255">
        <ele>1.390123</ele>
        <time>2026-08-15T08:47:32.721Z</time>
      </trkpt>
      <trkpt lat="52.127540" lon="5.106607">
        <ele>1.519824</ele>
        <time>2026-08-15T08:47:59.138Z</time>
      </trkpt>
      <trkpt lat="52.127310" lon="5.107144">
        <ele>1.620260</ele>
        <time>2026-08-15T08:48:05.759Z</time>
      </trkpt>
      <trkpt lat="52.126447" lon="5.109311">
        <ele>2.107284</ele>
        <time>2026-08-15T08:48:32.250Z</time>
      </trkpt>
      <trkpt lat="52.124731" lon="5.113236">
        <ele>1.460436</ele>
        <time>2026-08-15T08:49:12.790Z</time>
      </trkpt>
      <trkpt lat="52.124357" lon="5.114071">
        <ele>1.346747</ele>
        <time>2026-08-15T08:49:21.991Z</time>
      </trkpt>
      <trkpt lat="52.124018" lon="5.114807">
        <ele>1.406919</ele>
        <time>2026-08-15T08:49:30.644Z</time>
      </trkpt>
      <trkpt lat="52.123992" lon="5.114860">
        <ele>1.411355</ele>
        <time>2026-08-15T08:49:31.289Z</time>
      </trkpt>
      <trkpt lat="52.123750" lon="5.115355">
        <ele>1.452736</ele>
        <time>2026-08-15T08:49:37.204Z</time>
      </trkpt>
      <trkpt lat="52.123611" lon="5.115640">
        <ele>1.476540</ele>
        <time>2026-08-15T08:49:40.583Z</time>
      </trkpt>
      <trkpt lat="52.122831" lon="5.117258">
        <ele>1.692532</ele>
        <time>2026-08-15T08:50:00.424Z</time>
      </trkpt>
      <trkpt lat="52.122753" lon="5.117435">
        <ele>1.721540</ele>
        <time>2026-08-15T08:50:02.614Z</time>
      </trkpt>
      <trkpt lat="52.122703" lon="5.117548">
        <ele>1.740085</ele>
        <time>2026-08-15T08:50:03.997Z</time>
      </trkpt>
      <trkpt lat="52.122666" lon="5.117631">
        <ele>1.753741</ele>
        <time>2026-08-15T08:50:04.985Z</time>
      </trkpt>
      <trkpt lat="52.122374" lon="5.118298">
        <ele>1.862810</ele>
        <time>2026-08-15T08:50:12.636Z</time>
      </trkpt>
      <trkpt lat="52.122314" lon="5.118429">
        <ele>1.884570</ele>
        <time>2026-08-15T08:50:14.170Z</time>
      </trkpt>
      <trkpt lat="52.122215" lon="5.118646">
        <ele>1.920565</ele>
        <time>2026-08-15T08:50:16.775Z</time>
      </trkpt>
      <trkpt lat="52.122036" lon="5.119039">
        <ele>1.933446</ele>
        <time>2026-08-15T08:50:21.545Z</time>
      </trkpt>
      <trkpt lat="52.121859" lon="5.119439">
        <ele>1.944832</ele>
        <time>2026-08-15T08:50:26.405Z</time>
      </trkpt>
      <trkpt lat="52.121622" lon="5.119967">
        <ele>1.959937</ele>
        <time>2026-08-15T08:50:32.268Z</time>
      </trkpt>
      <trkpt lat="52.121459" lon="5.120346">
        <ele>1.970624</ele>
        <time>2026-08-15T08:50:36.264Z</time>
      </trkpt>
      <trkpt lat="52.121375" lon="5.120542">
        <ele>1.976144</ele>
        <time>2026-08-15T08:50:38.403Z</time>
      </trkpt>
      <trkpt lat="52.121220" lon="5.120956">
        <ele>1.987342</ele>
        <time>2026-08-15T08:50:42.962Z</time>
      </trkpt>
      <trkpt lat="52.121004" lon="5.121533">
        <ele>1.905340</ele>
        <time>2026-08-15T08:50:49.115Z</time>
      </trkpt>
      <trkpt lat="52.120932" lon="5.121730">
        <ele>1.870319</ele>
        <time>2026-08-15T08:50:51.085Z</time>
      </trkpt>
      <trkpt lat="52.120706" lon="5.122385">
        <ele>1.755548</ele>
        <time>2026-08-15T08:50:57.581Z</time>
      </trkpt>
      <trkpt lat="52.120608" lon="5.122663">
        <ele>1.706580</ele>
        <time>2026-08-15T08:51:00.255Z</time>
      </trkpt>
      <trkpt lat="52.120495" lon="5.122953">
        <ele>1.654113</ele>
        <time>2026-08-15T08:51:03.043Z</time>
      </trkpt>
      <trkpt lat="52.120339" lon="5.123099">
        <ele>1.609350</ele>
        <time>2026-08-15T08:51:05.446Z</time>
      </trkpt>
      <trkpt lat="52.120147" lon="5.123056">
        <ele>1.561133</ele>
        <time>2026-08-15T08:51:08.063Z</time>
      </trkpt>
      <trkpt lat="52.120067" lon="5.123179">
        <ele>1.543569</ele>
        <time>2026-08-15T08:51:09.539Z</time>
      </trkpt>
      <trkpt lat="52.119720" lon="5.124139">
        <ele>1.561234</ele>
        <time>2026-08-15T08:51:19.118Z</time>
      </trkpt>
      <trkpt lat="52.119434" lon="5.125057">
        <ele>1.577557</ele>
        <time>2026-08-15T08:51:29.084Z</time>
      </trkpt>
      <trkpt lat="52.119174" lon="5.126019">
        <ele>1.565535</ele>
        <time>2026-08-15T08:51:39.426Z</time>
      </trkpt>
      <trkpt lat="52.119101" lon="5.126333">
        <ele>1.541066</ele>
        <time>2026-08-15T08:51:42.599Z</time>
      </trkpt>
      <trkpt lat="52.119065" lon="5.126479">
        <ele>1.529600</ele>
        <time>2026-08-15T08:51:44.069Z</time>
      </trkpt>
      <trkpt lat="52.118808" lon="5.127464">
        <ele>1.451605</ele>
        <time>2026-08-15T08:51:53.421Z</time>
      </trkpt>
      <trkpt lat="52.118726" lon="5.127790">
        <ele>1.425931</ele>
        <time>2026-08-15T08:51:56.487Z</time>
      </trkpt>
      <trkpt lat="52.118626" lon="5.128189">
        <ele>1.394523</ele>
        <time>2026-08-15T08:52:00.083Z</time>
      </trkpt>
      <trkpt lat="52.118544" lon="5.128492">
        <ele>1.364732</ele>
        <time>2026-08-15T08:52:02.757Z</time>
      </trkpt>
      <trkpt lat="52.118536" lon="5.128522">
        <ele>1.359768</ele>
        <time>2026-08-15T08:52:03.022Z</time>
      </trkpt>
      <trkpt lat="52.118399" lon="5.128986">
        <ele>1.281628</ele>
        <time>2026-08-15T08:52:07.292Z</time>
      </trkpt>
      <trkpt lat="52.118235" lon="5.129630">
        <ele>1.175816</ele>
        <time>2026-08-15T08:52:13.244Z</time>
      </trkpt>
      <trkpt lat="52.118180" lon="5.129862">
        <ele>1.138072</ele>
        <time>2026-08-15T08:52:15.387Z</time>
      </trkpt>
      <trkpt lat="52.117809" lon="5.131359">
        <ele>0.969433</ele>
        <time>2026-08-15T08:52:29.395Z</time>
      </trkpt>
      <trkpt lat="52.117660" lon="5.131926">
        <ele>1.064011</ele>
        <time>2026-08-15T08:52:34.815Z</time>
      </trkpt>
      <trkpt lat="52.117482" lon="5.132574">
        <ele>1.172872</ele>
        <time>2026-08-15T08:52:41.233Z</time>
      </trkpt>
      <trkpt lat="52.117393" lon="5.132854">
        <ele>1.221222</ele>
        <time>2026-08-15T08:52:44.390Z</time>
      </trkpt>
      <trkpt lat="52.117354" lon="5.133065">
        <ele>1.255013</ele>
        <time>2026-08-15T08:52:46.736Z</time>
      </trkpt>
      <trkpt lat="52.117373" lon="5.133538">
        <ele>1.327704</ele>
        <time>2026-08-15T08:52:51.929Z</time>
      </trkpt>
      <trkpt lat="52.117487" lon="5.134038">
        <ele>1.434903</ele>
        <time>2026-08-15T08:52:57.843Z</time>
      </trkpt>
      <trkpt lat="52.117368" lon="5.134173">
        <ele>1.502583</ele>
        <time>2026-08-15T08:53:01.255Z</time>
      </trkpt>
      <trkpt lat="52.117163" lon="5.134494">
        <ele>1.635299</ele>
        <time>2026-08-15T08:53:07.870Z</time>
      </trkpt>
      <trkpt lat="52.117030" lon="5.134808">
        <ele>1.744609</ele>
        <time>2026-08-15T08:53:13.189Z</time>
      </trkpt>
      <trkpt lat="52.116961" lon="5.134999">
        <ele>1.808111</ele>
        <time>2026-08-15T08:53:16.269Z</time>
      </trkpt>
      <trkpt lat="52.116992" lon="5.135017">
        <ele>1.823470</ele>
        <time>2026-08-15T08:53:16.839Z</time>
      </trkpt>
      <trkpt lat="52.117462" lon="5.135451">
        <ele>2.075611</ele>
        <time>2026-08-15T08:53:26.090Z</time>
      </trkpt>
      <trkpt lat="52.117782" lon="5.135864">
        <ele>2.176088</ele>
        <time>2026-08-15T08:53:32.160Z</time>
      </trkpt>
      <trkpt lat="52.118068" lon="5.136342">
        <ele>1.997205</ele>
        <time>2026-08-15T08:53:37.771Z</time>
      </trkpt>
      <trkpt lat="52.118251" lon="5.136719">
        <ele>1.868399</ele>
        <time>2026-08-15T08:53:41.695Z</time>
      </trkpt>
      <trkpt lat="52.118301" lon="5.136822">
        <ele>1.833207</ele>
        <time>2026-08-15T08:53:42.759Z</time>
      </trkpt>
      <trkpt lat="52.118381" lon="5.137044">
        <ele>1.764215</ele>
        <time>2026-08-15T08:53:44.830Z</time>
      </trkpt>
      <trkpt lat="52.118494" lon="5.137446">
        <ele>1.645716</ele>
        <time>2026-08-15T08:53:48.350Z</time>
      </trkpt>
      <trkpt lat="52.118567" lon="5.137853">
        <ele>1.532071</ele>
        <time>2026-08-15T08:53:51.698Z</time>
      </trkpt>
      <trkpt lat="52.118590" lon="5.138133">
        <ele>1.456355</ele>
        <time>2026-08-15T08:53:53.929Z</time>
      </trkpt>
      <trkpt lat="52.118589" lon="5.138724">
        <ele>1.343708</ele>
        <time>2026-08-15T08:53:58.594Z</time>
      </trkpt>
      <trkpt lat="52.118504" lon="5.139456">
        <ele>1.210940</ele>
        <time>2026-08-15T08:54:04.486Z</time>
      </trkpt>
      <trkpt lat="52.118497" lon="5.139710">
        <ele>1.165627</ele>
        <time>2026-08-15T08:54:06.591Z</time>
      </trkpt>
      <trkpt lat="52.118549" lon="5.140134">
        <ele>1.088570</ele>
        <time>2026-08-15T08:54:10.307Z</time>
      </trkpt>
      <trkpt lat="52.118472" lon="5.140171">
        <ele>1.065269</ele>
        <time>2026-08-15T08:54:11.472Z</time>
      </trkpt>
      <trkpt lat="52.118397" lon="5.140225">
        <ele>1.041468</ele>
        <time>2026-08-15T08:54:12.690Z</time>
      </trkpt>
      <trkpt lat="52.118337" lon="5.140247">
        <ele>1.023617</ele>
        <time>2026-08-15T08:54:13.619Z</time>
      </trkpt>
      <trkpt lat="52.118119" lon="5.140326">
        <ele>0.958797</ele>
        <time>2026-08-15T08:54:17.098Z</time>
      </trkpt>
      <trkpt lat="52.117407" lon="5.140611">
        <ele>0.897699</ele>
        <time>2026-08-15T08:54:28.492Z</time>
      </trkpt>
      <trkpt lat="52.117309" lon="5.140754">
        <ele>0.894312</ele>
        <time>2026-08-15T08:54:30.498Z</time>
      </trkpt>
      <trkpt lat="52.117233" lon="5.141066">
        <ele>0.889006</ele>
        <time>2026-08-15T08:54:33.657Z</time>
      </trkpt>
      <trkpt lat="52.117174" lon="5.141478">
        <ele>0.882319</ele>
        <time>2026-08-15T08:54:37.583Z</time>
      </trkpt>
      <trkpt lat="52.117116" lon="5.141725">
        <ele>0.878139</ele>
        <time>2026-08-15T08:54:39.969Z</time>
      </trkpt>
      <trkpt lat="52.117007" lon="5.141902">
        <ele>0.874177</ele>
        <time>2026-08-15T08:54:42.173Z</time>
      </trkpt>
      <trkpt lat="52.116846" lon="5.142004">
        <ele>0.869730</ele>
        <time>2026-08-15T08:54:44.617Z</time>
      </trkpt>
      <trkpt lat="52.116378" lon="5.141971">
        <ele>0.803191</ele>
        <time>2026-08-15T08:54:50.944Z</time>
      </trkpt>
      <trkpt lat="52.116003" lon="5.141883">
        <ele>0.730866</ele>
        <time>2026-08-15T08:54:56.029Z</time>
      </trkpt>
      <trkpt lat="52.115561" lon="5.141708">
        <ele>0.644033</ele>
        <time>2026-08-15T08:55:02.213Z</time>
      </trkpt>
      <trkpt lat="52.115471" lon="5.142052">
        <ele>0.600201</ele>
        <time>2026-08-15T08:55:05.509Z</time>
      </trkpt>
      <trkpt lat="52.115175" lon="5.142567">
        <ele>0.531625</ele>
        <time>2026-08-15T08:55:12.072Z</time>
      </trkpt>
      <trkpt lat="52.115091" lon="5.142656">
        <ele>0.563437</ele>
        <time>2026-08-15T08:55:13.619Z</time>
      </trkpt>
      <trkpt lat="52.115072" lon="5.142668">
        <ele>0.569906</ele>
        <time>2026-08-15T08:55:13.930Z</time>
      </trkpt>
      <trkpt lat="52.115030" lon="5.142695">
        <ele>0.584240</ele>
        <time>2026-08-15T08:55:14.640Z</time>
      </trkpt>
      <trkpt lat="52.114950" lon="5.142802">
        <ele>0.617102</ele>
        <time>2026-08-15T08:55:16.251Z</time>
      </trkpt>
      <trkpt lat="52.114806" lon="5.143022">
        <ele>0.679781</ele>
        <time>2026-08-15T08:55:19.342Z</time>
      </trkpt>
      <trkpt lat="52.114441" lon="5.143597">
        <ele>0.840988</ele>
        <time>2026-08-15T08:55:27.454Z</time>
      </trkpt>
      <trkpt lat="52.114222" lon="5.143955">
        <ele>0.939492</ele>
        <time>2026-08-15T08:55:34.171Z</time>
      </trkpt>
      <trkpt lat="52.114214" lon="5.144009">
        <ele>0.950320</ele>
        <time>2026-08-15T08:55:34.914Z</time>
      </trkpt>
      <trkpt lat="52.114298" lon="5.144382">
        <ele>1.027766</ele>
        <time>2026-08-15T08:55:39.006Z</time>
      </trkpt>
      <trkpt lat="52.114491" lon="5.145194">
        <ele>1.332297</ele>
        <time>2026-08-15T08:55:47.923Z</time>
      </trkpt>
      <trkpt lat="52.114376" lon="5.145744">
        <ele>1.592743</ele>
        <time>2026-08-15T08:55:54.235Z</time>
      </trkpt>
      <trkpt lat="52.114170" lon="5.146839">
        <ele>2.106114</ele>
        <time>2026-08-15T08:56:07.520Z</time>
      </trkpt>
      <trkpt lat="52.113954" lon="5.147566">
        <ele>2.384736</ele>
        <time>2026-08-15T08:56:16.639Z</time>
      </trkpt>
      <trkpt lat="52.113917" lon="5.147713">
        <ele>2.359235</ele>
        <time>2026-08-15T08:56:18.279Z</time>
      </trkpt>
      <trkpt lat="52.113695" lon="5.148539">
        <ele>2.214508</ele>
        <time>2026-08-15T08:56:26.550Z</time>
      </trkpt>
      <trkpt lat="52.113658" lon="5.148676">
        <ele>2.190485</ele>
        <time>2026-08-15T08:56:27.812Z</time>
      </trkpt>
      <trkpt lat="52.113626" lon="5.148788">
        <ele>2.170657</ele>
        <time>2026-08-15T08:56:28.833Z</time>
      </trkpt>
      <trkpt lat="52.113385" lon="5.149647">
        <ele>2.019066</ele>
        <time>2026-08-15T08:56:36.234Z</time>
      </trkpt>
      <trkpt lat="52.113292" lon="5.149943">
        <ele>1.965696</ele>
        <time>2026-08-15T08:56:38.833Z</time>
      </trkpt>
      <trkpt lat="52.113102" lon="5.150471">
        <ele>1.792175</ele>
        <time>2026-08-15T08:56:43.465Z</time>
      </trkpt>
      <trkpt lat="52.112939" lon="5.150773">
        <ele>1.657346</ele>
        <time>2026-08-15T08:56:46.501Z</time>
      </trkpt>
      <trkpt lat="52.112635" lon="5.151344">
        <ele>1.403924</ele>
        <time>2026-08-15T08:56:52.500Z</time>
      </trkpt>
      <trkpt lat="52.112487" lon="5.151601">
        <ele>1.285775</ele>
        <time>2026-08-15T08:56:55.456Z</time>
      </trkpt>
      <trkpt lat="52.112309" lon="5.151934">
        <ele>1.137728</ele>
        <time>2026-08-15T08:56:59.198Z</time>
      </trkpt>
      <trkpt lat="52.111641" lon="5.153187">
        <ele>0.959518</ele>
        <time>2026-08-15T08:57:13.541Z</time>
      </trkpt>
      <trkpt lat="52.111440" lon="5.153551">
        <ele>0.961763</ele>
        <time>2026-08-15T08:57:18.032Z</time>
      </trkpt>
      <trkpt lat="52.110961" lon="5.154459">
        <ele>0.967253</ele>
        <time>2026-08-15T08:57:29.367Z</time>
      </trkpt>
      <trkpt lat="52.110895" lon="5.154598">
        <ele>0.976482</ele>
        <time>2026-08-15T08:57:31.093Z</time>
      </trkpt>
      <trkpt lat="52.110665" lon="5.155142">
        <ele>1.100289</ele>
        <time>2026-08-15T08:57:37.690Z</time>
      </trkpt>
      <trkpt lat="52.110101" lon="5.156421">
        <ele>1.395455</ele>
        <time>2026-08-15T08:57:53.408Z</time>
      </trkpt>
      <trkpt lat="52.109940" lon="5.156796">
        <ele>1.481228</ele>
        <time>2026-08-15T08:57:57.885Z</time>
      </trkpt>
      <trkpt lat="52.109980" lon="5.156975">
        <ele>1.516881</ele>
        <time>2026-08-15T08:57:59.701Z</time>
      </trkpt>
      <trkpt lat="52.110019" lon="5.157028">
        <ele>1.520393</ele>
        <time>2026-08-15T08:58:00.492Z</time>
      </trkpt>
      <trkpt lat="52.110555" lon="5.157371">
        <ele>1.560213</ele>
        <time>2026-08-15T08:58:09.739Z</time>
      </trkpt>
      <trkpt lat="52.110642" lon="5.157493">
        <ele>1.568152</ele>
        <time>2026-08-15T08:58:11.557Z</time>
      </trkpt>
      <trkpt lat="52.110686" lon="5.157704">
        <ele>1.577614</ele>
        <time>2026-08-15T08:58:13.649Z</time>
      </trkpt>
      <trkpt lat="52.110716" lon="5.158081">
        <ele>1.593757</ele>
        <time>2026-08-15T08:58:17.044Z</time>
      </trkpt>
      <trkpt lat="52.110710" lon="5.158257">
        <ele>1.601242</ele>
        <time>2026-08-15T08:58:18.590Z</time>
      </trkpt>
      <trkpt lat="52.110645" lon="5.158696">
        <ele>1.620418</ele>
        <time>2026-08-15T08:58:22.541Z</time>
      </trkpt>
      <trkpt lat="52.110382" lon="5.160396">
        <ele>1.404350</ele>
        <time>2026-08-15T08:58:37.891Z</time>
      </trkpt>
      <trkpt lat="52.110316" lon="5.160630">
        <ele>1.356055</ele>
        <time>2026-08-15T08:58:39.998Z</time>
      </trkpt>
      <trkpt lat="52.110170" lon="5.160772">
        <ele>1.304120</ele>
        <time>2026-08-15T08:58:42.260Z</time>
      </trkpt>
      <trkpt lat="52.109913" lon="5.160840">
        <ele>1.224607</ele>
        <time>2026-08-15T08:58:45.709Z</time>
      </trkpt>
      <trkpt lat="52.109842" lon="5.160831">
        <ele>1.202858</ele>
        <time>2026-08-15T08:58:46.646Z</time>
      </trkpt>
      <trkpt lat="52.109642" lon="5.160685">
        <ele>1.135924</ele>
        <time>2026-08-15T08:58:49.619Z</time>
      </trkpt>
      <trkpt lat="52.109270" lon="5.160421">
        <ele>1.018117</ele>
        <time>2026-08-15T08:58:55.132Z</time>
      </trkpt>
      <trkpt lat="52.109124" lon="5.160328">
        <ele>0.973904</ele>
        <time>2026-08-15T08:58:57.273Z</time>
      </trkpt>
      <trkpt lat="52.109038" lon="5.160361">
        <ele>0.948987</ele>
        <time>2026-08-15T08:58:58.487Z</time>
      </trkpt>
      <trkpt lat="52.109004" lon="5.160424">
        <ele>0.934461</ele>
        <time>2026-08-15T08:58:59.192Z</time>
      </trkpt>
      <trkpt lat="52.108915" lon="5.160930">
        <ele>0.843298</ele>
        <time>2026-08-15T08:59:03.634Z</time>
      </trkpt>
      <trkpt lat="52.108864" lon="5.161603">
        <ele>0.725849</ele>
        <time>2026-08-15T08:59:09.317Z</time>
      </trkpt>
      <trkpt lat="52.108850" lon="5.161751">
        <ele>0.699912</ele>
        <time>2026-08-15T08:59:10.570Z</time>
      </trkpt>
      <trkpt lat="52.108795" lon="5.162090">
        <ele>0.639183</ele>
        <time>2026-08-15T08:59:13.589Z</time>
      </trkpt>
      <trkpt lat="52.108784" lon="5.162156">
        <ele>0.627338</ele>
        <time>2026-08-15T08:59:14.188Z</time>
      </trkpt>
      <trkpt lat="52.108771" lon="5.162215">
        <ele>0.616481</ele>
        <time>2026-08-15T08:59:14.737Z</time>
      </trkpt>
      <trkpt lat="52.108748" lon="5.162325">
        <ele>0.596355</ele>
        <time>2026-08-15T08:59:15.798Z</time>
      </trkpt>
      <trkpt lat="52.108659" lon="5.162742">
        <ele>0.630452</ele>
        <time>2026-08-15T08:59:19.827Z</time>
      </trkpt>
      <trkpt lat="52.108576" lon="5.163131">
        <ele>0.680797</ele>
        <time>2026-08-15T08:59:23.752Z</time>
      </trkpt>
      <trkpt lat="52.108455" lon="5.163768">
        <ele>0.762313</ele>
        <time>2026-08-15T08:59:29.940Z</time>
      </trkpt>
      <trkpt lat="52.108235" lon="5.164935">
        <ele>0.911554</ele>
        <time>2026-08-15T08:59:41.891Z</time>
      </trkpt>
      <trkpt lat="52.108190" lon="5.165169">
        <ele>0.941531</ele>
        <time>2026-08-15T08:59:44.418Z</time>
      </trkpt>
      <trkpt lat="52.108142" lon="5.165425">
        <ele>1.003178</ele>
        <time>2026-08-15T08:59:47.259Z</time>
      </trkpt>
      <trkpt lat="52.108105" lon="5.165620">
        <ele>1.051027</ele>
        <time>2026-08-15T08:59:49.488Z</time>
      </trkpt>
      <trkpt lat="52.107955" lon="5.166371">
        <ele>1.236176</ele>
        <time>2026-08-15T08:59:57.768Z</time>
      </trkpt>
      <trkpt lat="52.107933" lon="5.166550">
        <ele>1.278974</ele>
        <time>2026-08-15T08:59:59.562Z</time>
      </trkpt>
      <trkpt lat="52.107938" lon="5.166907">
        <ele>1.362695</ele>
        <time>2026-08-15T09:00:03.009Z</time>
      </trkpt>
      <trkpt lat="52.108036" lon="5.167359">
        <ele>1.475075</ele>
        <time>2026-08-15T09:00:07.982Z</time>
      </trkpt>
      <trkpt lat="52.108205" lon="5.167561">
        <ele>1.555105</ele>
        <time>2026-08-15T09:00:11.571Z</time>
      </trkpt>
      <trkpt lat="52.108361" lon="5.167839">
        <ele>1.624251</ele>
        <time>2026-08-15T09:00:15.480Z</time>
      </trkpt>
      <trkpt lat="52.108371" lon="5.167925">
        <ele>1.616828</ele>
        <time>2026-08-15T09:00:16.319Z</time>
      </trkpt>
      <trkpt lat="52.108225" lon="5.168576">
        <ele>1.558053</ele>
        <time>2026-08-15T09:00:22.395Z</time>
      </trkpt>
      <trkpt lat="52.108101" lon="5.168849">
        <ele>1.529256</ele>
        <time>2026-08-15T09:00:24.913Z</time>
      </trkpt>
      <trkpt lat="52.108008" lon="5.169003">
        <ele>1.510940</ele>
        <time>2026-08-15T09:00:26.544Z</time>
      </trkpt>
      <trkpt lat="52.107925" lon="5.169108">
        <ele>1.496426</ele>
        <time>2026-08-15T09:00:27.906Z</time>
      </trkpt>
      <trkpt lat="52.107802" lon="5.169209">
        <ele>1.477404</ele>
        <time>2026-08-15T09:00:29.785Z</time>
      </trkpt>
      <trkpt lat="52.107616" lon="5.169424">
        <ele>1.445906</ele>
        <time>2026-08-15T09:00:33.073Z</time>
      </trkpt>
      <trkpt lat="52.107479" lon="5.169702">
        <ele>1.415678</ele>
        <time>2026-08-15T09:00:36.408Z</time>
      </trkpt>
      <trkpt lat="52.107376" lon="5.169599">
        <ele>1.398987</ele>
        <time>2026-08-15T09:00:38.210Z</time>
      </trkpt>
      <trkpt lat="52.107342" lon="5.169565">
        <ele>1.393477</ele>
        <time>2026-08-15T09:00:38.855Z</time>
      </trkpt>
      <trkpt lat="52.107292" lon="5.169696">
        <ele>1.383188</ele>
        <time>2026-08-15T09:00:40.280Z</time>
      </trkpt>
      <trkpt lat="52.107258" lon="5.169820">
        <ele>1.427734</ele>
        <time>2026-08-15T09:00:41.585Z</time>
      </trkpt>
      <trkpt lat="52.107184" lon="5.170223">
        <ele>1.565715</ele>
        <time>2026-08-15T09:00:45.525Z</time>
      </trkpt>
      <trkpt lat="52.107186" lon="5.170422">
        <ele>1.631003</ele>
        <time>2026-08-15T09:00:47.360Z</time>
      </trkpt>
      <trkpt lat="52.106959" lon="5.171567">
        <ele>2.025688</ele>
        <time>2026-08-15T09:01:00.659Z</time>
      </trkpt>
      <trkpt lat="52.106923" lon="5.171751">
        <ele>2.089036</ele>
        <time>2026-08-15T09:01:02.990Z</time>
      </trkpt>
      <trkpt lat="52.106837" lon="5.172151">
        <ele>2.228058</ele>
        <time>2026-08-15T09:01:07.622Z</time>
      </trkpt>
      <trkpt lat="52.106686" lon="5.172907">
        <ele>2.468654</ele>
        <time>2026-08-15T09:01:15.855Z</time>
      </trkpt>
      <trkpt lat="52.106482" lon="5.173937">
        <ele>2.774989</ele>
        <time>2026-08-15T09:01:26.750Z</time>
      </trkpt>
      <trkpt lat="52.106428" lon="5.174208">
        <ele>2.855634</ele>
        <time>2026-08-15T09:01:29.719Z</time>
      </trkpt>
      <trkpt lat="52.106286" lon="5.174893">
        <ele>3.060277</ele>
        <time>2026-08-15T09:01:37.077Z</time>
      </trkpt>
      <trkpt lat="52.106051" lon="5.176068">
        <ele>3.218063</ele>
        <time>2026-08-15T09:01:49.513Z</time>
      </trkpt>
      <trkpt lat="52.105666" lon="5.178065">
        <ele>3.335172</ele>
        <time>2026-08-15T09:02:08.571Z</time>
      </trkpt>
      <trkpt lat="52.105593" lon="5.178067">
        <ele>3.337279</ele>
        <time>2026-08-15T09:02:09.590Z</time>
      </trkpt>
      <trkpt lat="52.105528" lon="5.178163">
        <ele>3.339811</ele>
        <time>2026-08-15T09:02:10.797Z</time>
      </trkpt>
      <trkpt lat="52.105526" lon="5.178317">
        <ele>3.342540</ele>
        <time>2026-08-15T09:02:12.115Z</time>
      </trkpt>
      <trkpt lat="52.105596" lon="5.178421">
        <ele>3.345274</ele>
        <time>2026-08-15T09:02:13.422Z</time>
      </trkpt>
      <trkpt lat="52.105516" lon="5.178888">
        <ele>3.353866</ele>
        <time>2026-08-15T09:02:19.187Z</time>
      </trkpt>
      <trkpt lat="52.105453" lon="5.179229">
        <ele>3.360176</ele>
        <time>2026-08-15T09:02:23.482Z</time>
      </trkpt>
      <trkpt lat="52.105449" lon="5.179255">
        <ele>3.360651</ele>
        <time>2026-08-15T09:02:23.806Z</time>
      </trkpt>
      <trkpt lat="52.105425" lon="5.179408">
        <ele>3.363449</ele>
        <time>2026-08-15T09:02:25.722Z</time>
      </trkpt>
      <trkpt lat="52.105246" lon="5.180352">
        <ele>3.380956</ele>
        <time>2026-08-15T09:02:38.178Z</time>
      </trkpt>
      <trkpt lat="52.105120" lon="5.180951">
        <ele>3.447524</ele>
        <time>2026-08-15T09:02:46.844Z</time>
      </trkpt>
      <trkpt lat="52.105063" lon="5.181238">
        <ele>3.508662</ele>
        <time>2026-08-15T09:02:50.997Z</time>
      </trkpt>
      <trkpt lat="52.105049" lon="5.181304">
        <ele>3.522815</ele>
        <time>2026-08-15T09:02:51.985Z</time>
      </trkpt>
      <trkpt lat="52.104891" lon="5.182106">
        <ele>3.693530</ele>
        <time>2026-08-15T09:03:03.871Z</time>
      </trkpt>
      <trkpt lat="52.104827" lon="5.182461">
        <ele>3.768521</ele>
        <time>2026-08-15T09:03:09.024Z</time>
      </trkpt>
      <trkpt lat="52.104600" lon="5.183899">
        <ele>3.774571</ele>
        <time>2026-08-15T09:03:27.758Z</time>
      </trkpt>
      <trkpt lat="52.104565" lon="5.184046">
        <ele>3.700692</ele>
        <time>2026-08-15T09:03:29.546Z</time>
      </trkpt>
      <trkpt lat="52.104435" lon="5.184102">
        <ele>3.598098</ele>
        <time>2026-08-15T09:03:31.957Z</time>
      </trkpt>
      <trkpt lat="52.104432" lon="5.184294">
        <ele>3.508097</ele>
        <time>2026-08-15T09:03:34.030Z</time>
      </trkpt>
      <trkpt lat="52.104315" lon="5.185329">
        <ele>3.014942</ele>
        <time>2026-08-15T09:03:45.034Z</time>
      </trkpt>
      <trkpt lat="52.104297" lon="5.185474">
        <ele>2.945620</ele>
        <time>2026-08-15T09:03:46.548Z</time>
      </trkpt>
      <trkpt lat="52.104159" lon="5.185812">
        <ele>2.755430</ele>
        <time>2026-08-15T09:03:49.482Z</time>
      </trkpt>
      <trkpt lat="52.104128" lon="5.185861">
        <ele>2.722466</ele>
        <time>2026-08-15T09:03:50.011Z</time>
      </trkpt>
      <trkpt lat="52.104104" lon="5.185982">
        <ele>2.662882</ele>
        <time>2026-08-15T09:03:50.964Z</time>
      </trkpt>
      <trkpt lat="52.104070" lon="5.186165">
        <ele>2.604781</ele>
        <time>2026-08-15T09:03:52.398Z</time>
      </trkpt>
      <trkpt lat="52.104049" lon="5.186307">
        <ele>2.598089</ele>
        <time>2026-08-15T09:03:53.495Z</time>
      </trkpt>
      <trkpt lat="52.104082" lon="5.186398">
        <ele>2.593248</ele>
        <time>2026-08-15T09:03:54.296Z</time>
      </trkpt>
      <trkpt lat="52.104121" lon="5.186553">
        <ele>2.585574</ele>
        <time>2026-08-15T09:03:55.572Z</time>
      </trkpt>
      <trkpt lat="52.103897" lon="5.188044">
        <ele>2.515254</ele>
        <time>2026-08-15T09:04:09.387Z</time>
      </trkpt>
      <trkpt lat="52.103889" lon="5.188381">
        <ele>2.499804</ele>
        <time>2026-08-15T09:04:12.965Z</time>
      </trkpt>
      <trkpt lat="52.103873" lon="5.188476">
        <ele>2.495291</ele>
        <time>2026-08-15T09:04:14.028Z</time>
      </trkpt>
      <trkpt lat="52.103856" lon="5.188568">
        <ele>2.490889</ele>
        <time>2026-08-15T09:04:15.049Z</time>
      </trkpt>
      <trkpt lat="52.103726" lon="5.189211">
        <ele>2.555457</ele>
        <time>2026-08-15T09:04:22.371Z</time>
      </trkpt>
      <trkpt lat="52.103262" lon="5.191198">
        <ele>3.115288</ele>
        <time>2026-08-15T09:04:44.473Z</time>
      </trkpt>
      <trkpt lat="52.102986" lon="5.192382">
        <ele>3.244539</ele>
        <time>2026-08-15T09:04:55.944Z</time>
      </trkpt>
      <trkpt lat="52.102903" lon="5.192775">
        <ele>3.244175</ele>
        <time>2026-08-15T09:04:59.649Z</time>
      </trkpt>
      <trkpt lat="52.102822" lon="5.193485">
        <ele>3.243542</ele>
        <time>2026-08-15T09:05:06.062Z</time>
      </trkpt>
      <trkpt lat="52.102828" lon="5.193638">
        <ele>3.243408</ele>
        <time>2026-08-15T09:05:07.899Z</time>
      </trkpt>
      <trkpt lat="52.102841" lon="5.193861">
        <ele>3.243211</ele>
        <time>2026-08-15T09:05:10.642Z</time>
      </trkpt>
      <trkpt lat="52.103113" lon="5.195798">
        <ele>3.257641</ele>
        <time>2026-08-15T09:05:28.999Z</time>
      </trkpt>
      <trkpt lat="52.103237" lon="5.196661">
        <ele>3.267505</ele>
        <time>2026-08-15T09:05:37.267Z</time>
      </trkpt>
      <trkpt lat="52.103306" lon="5.197143">
        <ele>3.273013</ele>
        <time>2026-08-15T09:05:41.600Z</time>
      </trkpt>
      <trkpt lat="52.103270" lon="5.197596">
        <ele>3.337306</ele>
        <time>2026-08-15T09:05:45.612Z</time>
      </trkpt>
      <trkpt lat="52.103109" lon="5.198554">
        <ele>3.577545</ele>
        <time>2026-08-15T09:05:54.786Z</time>
      </trkpt>
      <trkpt lat="52.103053" lon="5.199046">
        <ele>3.698578</ele>
        <time>2026-08-15T09:05:59.625Z</time>
      </trkpt>
      <trkpt lat="52.102941" lon="5.200701">
        <ele>4.198409</ele>
        <time>2026-08-15T09:06:18.311Z</time>
      </trkpt>
      <trkpt lat="52.102882" lon="5.201198">
        <ele>4.421777</ele>
        <time>2026-08-15T09:06:24.632Z</time>
      </trkpt>
      <trkpt lat="52.102754" lon="5.201970">
        <ele>4.774629</ele>
        <time>2026-08-15T09:06:34.053Z</time>
      </trkpt>
      <trkpt lat="52.102591" lon="5.202638">
        <ele>5.091805</ele>
        <time>2026-08-15T09:06:41.776Z</time>
      </trkpt>
      <trkpt lat="52.102254" lon="5.203717">
        <ele>4.881268</ele>
        <time>2026-08-15T09:06:52.158Z</time>
      </trkpt>
      <trkpt lat="52.102085" lon="5.204388">
        <ele>4.520966</ele>
        <time>2026-08-15T09:06:57.566Z</time>
      </trkpt>
      <trkpt lat="52.101987" lon="5.204659">
        <ele>4.364727</ele>
        <time>2026-08-15T09:06:59.831Z</time>
      </trkpt>
      <trkpt lat="52.101611" lon="5.205420">
        <ele>3.879512</ele>
        <time>2026-08-15T09:07:06.882Z</time>
      </trkpt>
      <trkpt lat="52.101510" lon="5.205594">
        <ele>3.809382</ele>
        <time>2026-08-15T09:07:08.656Z</time>
      </trkpt>
      <trkpt lat="52.101430" lon="5.205731">
        <ele>3.791476</ele>
        <time>2026-08-15T09:07:10.085Z</time>
      </trkpt>
      <trkpt lat="52.101298" lon="5.205959">
        <ele>3.761797</ele>
        <time>2026-08-15T09:07:12.481Z</time>
      </trkpt>
      <trkpt lat="52.101033" lon="5.206437">
        <ele>3.700802</ele>
        <time>2026-08-15T09:07:17.825Z</time>
      </trkpt>
      <trkpt lat="52.101070" lon="5.206495">
        <ele>3.692881</ele>
        <time>2026-08-15T09:07:18.835Z</time>
      </trkpt>
      <trkpt lat="52.101101" lon="5.206493">
        <ele>3.688097</ele>
        <time>2026-08-15T09:07:19.445Z</time>
      </trkpt>
      <trkpt lat="52.101381" lon="5.206014">
        <ele>3.625460</ele>
        <time>2026-08-15T09:07:27.868Z</time>
      </trkpt>
      <trkpt lat="52.102637" lon="5.208862">
        <ele>4.396624</ele>
        <time>2026-08-15T09:08:04.848Z</time>
      </trkpt>
      <trkpt lat="52.104310" lon="5.212759">
        <ele>5.146085</ele>
        <time>2026-08-15T09:08:51.245Z</time>
      </trkpt>
      <trkpt lat="52.104759" lon="5.213864">
        <ele>5.294730</ele>
        <time>2026-08-15T09:09:03.487Z</time>
      </trkpt>
      <trkpt lat="52.105173" lon="5.215164">
        <ele>5.455067</ele>
        <time>2026-08-15T09:09:17.148Z</time>
      </trkpt>
      <trkpt lat="52.105361" lon="5.215986">
        <ele>5.550999</ele>
        <time>2026-08-15T09:09:25.569Z</time>
      </trkpt>
      <trkpt lat="52.105576" lon="5.217070">
        <ele>5.699356</ele>
        <time>2026-08-15T09:09:36.751Z</time>
      </trkpt>
      <trkpt lat="52.105833" lon="5.218671">
        <ele>5.960986</ele>
        <time>2026-08-15T09:09:53.138Z</time>
      </trkpt>
      <trkpt lat="52.106001" lon="5.220140">
        <ele>6.097643</ele>
        <time>2026-08-15T09:10:07.450Z</time>
      </trkpt>
      <trkpt lat="52.106314" lon="5.223177">
        <ele>6.201049</ele>
        <time>2026-08-15T09:10:35.266Z</time>
      </trkpt>
      <trkpt lat="52.106384" lon="5.224117">
        <ele>6.272131</ele>
        <time>2026-08-15T09:10:44.114Z</time>
      </trkpt>
      <trkpt lat="52.106486" lon="5.224795">
        <ele>6.324532</ele>
        <time>2026-08-15T09:10:50.826Z</time>
      </trkpt>
      <trkpt lat="52.106795" lon="5.227719">
        <ele>6.616751</ele>
        <time>2026-08-15T09:11:19.646Z</time>
      </trkpt>
      <trkpt lat="52.106855" lon="5.228580">
        <ele>6.629740</ele>
        <time>2026-08-15T09:11:27.512Z</time>
      </trkpt>
      <trkpt lat="52.107157" lon="5.231454">
        <ele>6.572030</ele>
        <time>2026-08-15T09:11:53.014Z</time>
      </trkpt>
      <trkpt lat="52.107262" lon="5.232597">
        <ele>6.762378</ele>
        <time>2026-08-15T09:12:04.083Z</time>
      </trkpt>
      <trkpt lat="52.107262" lon="5.233805">
        <ele>6.961337</ele>
        <time>2026-08-15T09:12:16.509Z</time>
      </trkpt>
      <trkpt lat="52.107262" lon="5.233895">
        <ele>6.976160</ele>
        <time>2026-08-15T09:12:17.442Z</time>
      </trkpt>
      <trkpt lat="52.107231" lon="5.234384">
        <ele>7.100456</ele>
        <time>2026-08-15T09:12:22.550Z</time>
      </trkpt>
      <trkpt lat="52.107253" lon="5.234847">
        <ele>7.218425</ele>
        <time>2026-08-15T09:12:27.332Z</time>
      </trkpt>
      <trkpt lat="52.107533" lon="5.235923">
        <ele>7.515287</ele>
        <time>2026-08-15T09:12:39.299Z</time>
      </trkpt>
      <trkpt lat="52.107589" lon="5.236298">
        <ele>7.613325</ele>
        <time>2026-08-15T09:12:43.147Z</time>
      </trkpt>
      <trkpt lat="52.107532" lon="5.236439">
        <ele>7.656206</ele>
        <time>2026-08-15T09:12:44.814Z</time>
      </trkpt>
      <trkpt lat="52.107064" lon="5.236775">
        <ele>7.808905</ele>
        <time>2026-08-15T09:12:52.913Z</time>
      </trkpt>
      <trkpt lat="52.105500" lon="5.237850">
        <ele>8.234690</ele>
        <time>2026-08-15T09:13:20.072Z</time>
      </trkpt>
      <trkpt lat="52.105129" lon="5.238091">
        <ele>8.342321</ele>
        <time>2026-08-15T09:13:25.559Z</time>
      </trkpt>
      <trkpt lat="52.104917" lon="5.238273">
        <ele>8.406901</ele>
        <time>2026-08-15T09:13:29.283Z</time>
      </trkpt>
      <trkpt lat="52.104509" lon="5.238553">
        <ele>8.526207</ele>
        <time>2026-08-15T09:13:36.994Z</time>
      </trkpt>
      <trkpt lat="52.104331" lon="5.238689">
        <ele>8.579189</ele>
        <time>2026-08-15T09:13:40.359Z</time>
      </trkpt>
      <trkpt lat="52.103921" lon="5.238970">
        <ele>8.722387</ele>
        <time>2026-08-15T09:13:47.224Z</time>
      </trkpt>
      <trkpt lat="52.103763" lon="5.239078">
        <ele>8.791009</ele>
        <time>2026-08-15T09:13:49.968Z</time>
      </trkpt>
      <trkpt lat="52.103694" lon="5.239125">
        <ele>8.820961</ele>
        <time>2026-08-15T09:13:51.242Z</time>
      </trkpt>
      <trkpt lat="52.103435" lon="5.239311">
        <ele>8.934321</ele>
        <time>2026-08-15T09:13:56.010Z</time>
      </trkpt>
      <trkpt lat="52.103242" lon="5.239399">
        <ele>9.014582</ele>
        <time>2026-08-15T09:13:59.686Z</time>
      </trkpt>
      <trkpt lat="52.103032" lon="5.239356">
        <ele>9.099340</ele>
        <time>2026-08-15T09:14:03.508Z</time>
      </trkpt>
      <trkpt lat="52.103012" lon="5.239337">
        <ele>9.108613</ele>
        <time>2026-08-15T09:14:03.874Z</time>
      </trkpt>
      <trkpt lat="52.102973" lon="5.239468">
        <ele>9.144421</ele>
        <time>2026-08-15T09:14:05.430Z</time>
      </trkpt>
      <trkpt lat="52.102956" lon="5.239526">
        <ele>9.160229</ele>
        <time>2026-08-15T09:14:06.068Z</time>
      </trkpt>
      <trkpt lat="52.102939" lon="5.239561">
        <ele>9.171204</ele>
        <time>2026-08-15T09:14:06.476Z</time>
      </trkpt>
      <trkpt lat="52.103040" lon="5.239711">
        <ele>9.225951</ele>
        <time>2026-08-15T09:14:08.624Z</time>
      </trkpt>
      <trkpt lat="52.103076" lon="5.239844">
        <ele>9.261701</ele>
        <time>2026-08-15T09:14:09.953Z</time>
      </trkpt>
      <trkpt lat="52.103098" lon="5.239989">
        <ele>9.298440</ele>
        <time>2026-08-15T09:14:11.270Z</time>
      </trkpt>
      <trkpt lat="52.103042" lon="5.240189">
        <ele>9.352505</ele>
        <time>2026-08-15T09:14:13.223Z</time>
      </trkpt>
      <trkpt lat="52.103048" lon="5.240236">
        <ele>9.364313</ele>
        <time>2026-08-15T09:14:13.674Z</time>
      </trkpt>
      <trkpt lat="52.103083" lon="5.240576">
        <ele>9.393447</ele>
        <time>2026-08-15T09:14:16.752Z</time>
      </trkpt>
      <trkpt lat="52.103306" lon="5.241600">
        <ele>9.469420</ele>
        <time>2026-08-15T09:14:26.819Z</time>
      </trkpt>
      <trkpt lat="52.103490" lon="5.242427">
        <ele>9.530926</ele>
        <time>2026-08-15T09:14:35.229Z</time>
      </trkpt>
      <trkpt lat="52.103531" lon="5.242608">
        <ele>9.544416</ele>
        <time>2026-08-15T09:14:37.128Z</time>
      </trkpt>
      <trkpt lat="52.103656" lon="5.243167">
        <ele>9.597049</ele>
        <time>2026-08-15T09:14:42.839Z</time>
      </trkpt>
      <trkpt lat="52.103687" lon="5.243311">
        <ele>9.619595</ele>
        <time>2026-08-15T09:14:44.286Z</time>
      </trkpt>
      <trkpt lat="52.103840" lon="5.244038">
        <ele>9.733142</ele>
        <time>2026-08-15T09:14:51.544Z</time>
      </trkpt>
      <trkpt lat="52.103905" lon="5.244419">
        <ele>9.791567</ele>
        <time>2026-08-15T09:14:55.351Z</time>
      </trkpt>
      <trkpt lat="52.103944" lon="5.244646">
        <ele>9.826395</ele>
        <time>2026-08-15T09:14:57.656Z</time>
      </trkpt>
      <trkpt lat="52.103972" lon="5.244825">
        <ele>9.853687</ele>
        <time>2026-08-15T09:14:59.471Z</time>
      </trkpt>
      <trkpt lat="52.104081" lon="5.245512">
        <ele>9.958525</ele>
        <time>2026-08-15T09:15:06.475Z</time>
      </trkpt>
      <trkpt lat="52.104235" lon="5.248220">
        <ele>10.192041</ele>
        <time>2026-08-15T09:15:32.796Z</time>
      </trkpt>
      <trkpt lat="52.104315" lon="5.249315">
        <ele>10.264838</ele>
        <time>2026-08-15T09:15:42.370Z</time>
      </trkpt>
      <trkpt lat="52.104323" lon="5.249787">
        <ele>10.290863</ele>
        <time>2026-08-15T09:15:46.665Z</time>
      </trkpt>
      <trkpt lat="52.104358" lon="5.250052">
        <ele>10.305802</ele>
        <time>2026-08-15T09:15:49.177Z</time>
      </trkpt>
      <trkpt lat="52.104406" lon="5.250194">
        <ele>10.314735</ele>
        <time>2026-08-15T09:15:50.680Z</time>
      </trkpt>
      <trkpt lat="52.104423" lon="5.250336">
        <ele>10.322709</ele>
        <time>2026-08-15T09:15:52.000Z</time>
      </trkpt>
      <trkpt lat="52.104345" lon="5.251100">
        <ele>10.365394</ele>
        <time>2026-08-15T09:15:58.964Z</time>
      </trkpt>
      <trkpt lat="52.104343" lon="5.251380">
        <ele>10.380828</ele>
        <time>2026-08-15T09:16:01.545Z</time>
      </trkpt>
      <trkpt lat="52.104290" lon="5.251675">
        <ele>10.396136</ele>
        <time>2026-08-15T09:16:04.676Z</time>
      </trkpt>
      <trkpt lat="52.104240" lon="5.251894">
        <ele>10.398849</ele>
        <time>2026-08-15T09:16:07.139Z</time>
      </trkpt>
      <trkpt lat="52.104144" lon="5.252117">
        <ele>10.402012</ele>
        <time>2026-08-15T09:16:10.098Z</time>
      </trkpt>
      <trkpt lat="52.103988" lon="5.252383">
        <ele>10.406283</ele>
        <time>2026-08-15T09:16:14.054Z</time>
      </trkpt>
      <trkpt lat="52.103758" lon="5.252692">
        <ele>10.411921</ele>
        <time>2026-08-15T09:16:19.050Z</time>
      </trkpt>
      <trkpt lat="52.103604" lon="5.252886">
        <ele>10.415602</ele>
        <time>2026-08-15T09:16:21.957Z</time>
      </trkpt>
      <trkpt lat="52.103034" lon="5.253728">
        <ele>10.418800</ele>
        <time>2026-08-15T09:16:32.328Z</time>
      </trkpt>
      <trkpt lat="52.102992" lon="5.253805">
        <ele>10.389639</ele>
        <time>2026-08-15T09:16:33.136Z</time>
      </trkpt>
      <trkpt lat="52.102994" lon="5.253899">
        <ele>10.363004</ele>
        <time>2026-08-15T09:16:33.913Z</time>
      </trkpt>
      <trkpt lat="52.102902" lon="5.254028">
        <ele>10.307026</ele>
        <time>2026-08-15T09:16:35.475Z</time>
      </trkpt>
      <trkpt lat="52.102792" lon="5.254153">
        <ele>10.245181</ele>
        <time>2026-08-15T09:16:37.139Z</time>
      </trkpt>
      <trkpt lat="52.102717" lon="5.254180">
        <ele>10.209769</ele>
        <time>2026-08-15T09:16:38.087Z</time>
      </trkpt>
      <trkpt lat="52.102284" lon="5.254797">
        <ele>9.944478</ele>
        <time>2026-08-15T09:16:45.406Z</time>
      </trkpt>
      <trkpt lat="52.102011" lon="5.255178">
        <ele>9.778701</ele>
        <time>2026-08-15T09:16:50.083Z</time>
      </trkpt>
      <trkpt lat="52.101945" lon="5.255290">
        <ele>9.734749</ele>
        <time>2026-08-15T09:16:51.437Z</time>
      </trkpt>
      <trkpt lat="52.101861" lon="5.255560">
        <ele>9.649039</ele>
        <time>2026-08-15T09:16:54.156Z</time>
      </trkpt>
      <trkpt lat="52.101831" lon="5.255749">
        <ele>9.604030</ele>
        <time>2026-08-15T09:16:55.962Z</time>
      </trkpt>
      <trkpt lat="52.101821" lon="5.255916">
        <ele>9.629076</ele>
        <time>2026-08-15T09:16:57.551Z</time>
      </trkpt>
      <trkpt lat="52.101775" lon="5.256059">
        <ele>9.653170</ele>
        <time>2026-08-15T09:16:59.074Z</time>
      </trkpt>
      <trkpt lat="52.101745" lon="5.256158">
        <ele>9.669648</ele>
        <time>2026-08-15T09:17:00.151Z</time>
      </trkpt>
      <trkpt lat="52.101911" lon="5.256352">
        <ele>9.719304</ele>
        <time>2026-08-15T09:17:03.406Z</time>
      </trkpt>
      <trkpt lat="52.101968" lon="5.256574">
        <ele>9.755219</ele>
        <time>2026-08-15T09:17:05.865Z</time>
      </trkpt>
      <trkpt lat="52.101970" lon="5.256816">
        <ele>9.791344</ele>
        <time>2026-08-15T09:17:08.421Z</time>
      </trkpt>
      <trkpt lat="52.101982" lon="5.256851">
        <ele>9.797327</ele>
        <time>2026-08-15T09:17:08.846Z</time>
      </trkpt>
      <trkpt lat="52.102038" lon="5.256853">
        <ele>9.810938</ele>
        <time>2026-08-15T09:17:09.834Z</time>
      </trkpt>
      <trkpt lat="52.102045" lon="5.257640">
        <ele>9.928422</ele>
        <time>2026-08-15T09:17:20.444Z</time>
      </trkpt>
      <trkpt lat="52.102056" lon="5.258841">
        <ele>10.094690</ele>
        <time>2026-08-15T09:17:35.569Z</time>
      </trkpt>
      <trkpt lat="52.102059" lon="5.259254">
        <ele>10.144899</ele>
        <time>2026-08-15T09:17:40.784Z</time>
      </trkpt>
      <trkpt lat="52.102069" lon="5.260154">
        <ele>10.254325</ele>
        <time>2026-08-15T09:17:52.294Z</time>
      </trkpt>
      <trkpt lat="52.102082" lon="5.260828">
        <ele>10.336300</ele>
        <time>2026-08-15T09:18:01.079Z</time>
      </trkpt>
      <trkpt lat="52.102096" lon="5.261078">
        <ele>10.366817</ele>
        <time>2026-08-15T09:18:04.336Z</time>
      </trkpt>
      <trkpt lat="52.102160" lon="5.262223">
        <ele>10.628782</ele>
        <time>2026-08-15T09:18:19.583Z</time>
      </trkpt>
      <trkpt lat="52.102173" lon="5.262462">
        <ele>10.689473</ele>
        <time>2026-08-15T09:18:22.838Z</time>
      </trkpt>
      <trkpt lat="52.102259" lon="5.263843">
        <ele>11.040582</ele>
        <time>2026-08-15T09:18:41.523Z</time>
      </trkpt>
      <trkpt lat="52.102253" lon="5.264031">
        <ele>11.088200</ele>
        <time>2026-08-15T09:18:44.081Z</time>
      </trkpt>
      <trkpt lat="52.102049" lon="5.264309">
        <ele>11.230079</ele>
        <time>2026-08-15T09:18:50.023Z</time>
      </trkpt>
      <trkpt lat="52.101615" lon="5.265089">
        <ele>11.631666</ele>
        <time>2026-08-15T09:19:04.728Z</time>
      </trkpt>
      <trkpt lat="52.101173" lon="5.265858">
        <ele>12.033533</ele>
        <time>2026-08-15T09:19:16.148Z</time>
      </trkpt>
      <trkpt lat="52.101090" lon="5.266002">
        <ele>12.108885</ele>
        <time>2026-08-15T09:19:18.314Z</time>
      </trkpt>
      <trkpt lat="52.100960" lon="5.266030">
        <ele>12.190345</ele>
        <time>2026-08-15T09:19:20.664Z</time>
      </trkpt>
      <trkpt lat="52.100875" lon="5.266137">
        <ele>12.252666</ele>
        <time>2026-08-15T09:19:22.582Z</time>
      </trkpt>
      <trkpt lat="52.100835" lon="5.266248">
        <ele>12.262816</ele>
        <time>2026-08-15T09:19:23.980Z</time>
      </trkpt>
      <trkpt lat="52.100837" lon="5.266470">
        <ele>12.280326</ele>
        <time>2026-08-15T09:19:26.388Z</time>
      </trkpt>
      <trkpt lat="52.100798" lon="5.266540">
        <ele>12.287780</ele>
        <time>2026-08-15T09:19:27.411Z</time>
      </trkpt>
      <trkpt lat="52.100414" lon="5.267224">
        <ele>12.360861</ele>
        <time>2026-08-15T09:19:36.606Z</time>
      </trkpt>
      <trkpt lat="52.099970" lon="5.268019">
        <ele>12.445602</ele>
        <time>2026-08-15T09:19:45.913Z</time>
      </trkpt>
      <trkpt lat="52.099916" lon="5.268116">
        <ele>12.455927</ele>
        <time>2026-08-15T09:19:46.978Z</time>
      </trkpt>
      <trkpt lat="52.099269" lon="5.269255">
        <ele>12.575753</ele>
        <time>2026-08-15T09:20:00.245Z</time>
      </trkpt>
      <trkpt lat="52.099221" lon="5.269346">
        <ele>12.584963</ele>
        <time>2026-08-15T09:20:01.351Z</time>
      </trkpt>
      <trkpt lat="52.098887" lon="5.269944">
        <ele>12.647027</ele>
        <time>2026-08-15T09:20:09.186Z</time>
      </trkpt>
      <trkpt lat="52.098656" lon="5.270356">
        <ele>12.689861</ele>
        <time>2026-08-15T09:20:15.170Z</time>
      </trkpt>
      <trkpt lat="52.098586" lon="5.270482">
        <ele>12.702907</ele>
        <time>2026-08-15T09:20:17.064Z</time>
      </trkpt>
      <trkpt lat="52.097285" lon="5.272739">
        <ele>13.476090</ele>
        <time>2026-08-15T09:20:49.367Z</time>
      </trkpt>
      <trkpt lat="52.096825" lon="5.273401">
        <ele>13.288918</ele>
        <time>2026-08-15T09:20:57.614Z</time>
      </trkpt>
      <trkpt lat="52.096438" lon="5.273863">
        <ele>13.142618</ele>
        <time>2026-08-15T09:21:03.913Z</time>
      </trkpt>
      <trkpt lat="52.096392" lon="5.273931">
        <ele>13.123676</ele>
        <time>2026-08-15T09:21:04.706Z</time>
      </trkpt>
      <trkpt lat="52.096291" lon="5.274081">
        <ele>13.081998</ele>
        <time>2026-08-15T09:21:06.492Z</time>
      </trkpt>
      <trkpt lat="52.096171" lon="5.274258">
        <ele>13.032632</ele>
        <time>2026-08-15T09:21:08.624Z</time>
      </trkpt>
      <trkpt lat="52.094829" lon="5.276662">
        <ele>12.274899</ele>
        <time>2026-08-15T09:21:36.012Z</time>
      </trkpt>
      <trkpt lat="52.094742" lon="5.276823">
        <ele>12.213294</ele>
        <time>2026-08-15T09:21:37.704Z</time>
      </trkpt>
      <trkpt lat="52.093919" lon="5.278319">
        <ele>11.494318</ele>
        <time>2026-08-15T09:21:53.356Z</time>
      </trkpt>
      <trkpt lat="52.093512" lon="5.279049">
        <ele>11.161191</ele>
        <time>2026-08-15T09:22:01.445Z</time>
      </trkpt>
      <trkpt lat="52.093463" lon="5.279143">
        <ele>11.133184</ele>
        <time>2026-08-15T09:22:02.514Z</time>
      </trkpt>
      <trkpt lat="52.092793" lon="5.280360">
        <ele>10.761938</ele>
        <time>2026-08-15T09:22:17.122Z</time>
      </trkpt>
      <trkpt lat="52.092661" lon="5.280513">
        <ele>10.702015</ele>
        <time>2026-08-15T09:22:19.336Z</time>
      </trkpt>
      <trkpt lat="52.092513" lon="5.280576">
        <ele>10.645447</ele>
        <time>2026-08-15T09:22:21.355Z</time>
      </trkpt>
      <trkpt lat="52.092378" lon="5.280550">
        <ele>10.595179</ele>
        <time>2026-08-15T09:22:23.084Z</time>
      </trkpt>
      <trkpt lat="52.092290" lon="5.280483">
        <ele>10.559254</ele>
        <time>2026-08-15T09:22:24.302Z</time>
      </trkpt>
      <trkpt lat="52.092234" lon="5.280462">
        <ele>10.538004</ele>
        <time>2026-08-15T09:22:25.020Z</time>
      </trkpt>
      <trkpt lat="52.092164" lon="5.280530">
        <ele>10.495130</ele>
        <time>2026-08-15T09:22:26.019Z</time>
      </trkpt>
      <trkpt lat="52.092113" lon="5.280595">
        <ele>10.457710</ele>
        <time>2026-08-15T09:22:26.799Z</time>
      </trkpt>
      <trkpt lat="52.092061" lon="5.280676">
        <ele>10.416131</ele>
        <time>2026-08-15T09:22:27.667Z</time>
      </trkpt>
      <trkpt lat="52.091997" lon="5.280743">
        <ele>10.372172</ele>
        <time>2026-08-15T09:22:28.604Z</time>
      </trkpt>
      <trkpt lat="52.091575" lon="5.279284">
        <ele>9.799825</ele>
        <time>2026-08-15T09:22:41.150Z</time>
      </trkpt>
      <trkpt lat="52.091342" lon="5.278371">
        <ele>9.498860</ele>
        <time>2026-08-15T09:22:49.400Z</time>
      </trkpt>
      <trkpt lat="52.090898" lon="5.276803">
        <ele>9.605409</ele>
        <time>2026-08-15T09:23:06.077Z</time>
      </trkpt>
      <trkpt lat="52.090818" lon="5.276536">
        <ele>9.623741</ele>
        <time>2026-08-15T09:23:08.888Z</time>
      </trkpt>
      <trkpt lat="52.090784" lon="5.276434">
        <ele>9.630903</ele>
        <time>2026-08-15T09:23:09.960Z</time>
      </trkpt>
      <trkpt lat="52.090002" lon="5.273668">
        <ele>9.945150</ele>
        <time>2026-08-15T09:23:38.777Z</time>
      </trkpt>
      <trkpt lat="52.089422" lon="5.271610">
        <ele>10.128742</ele>
        <time>2026-08-15T09:24:01.112Z</time>
      </trkpt>
      <trkpt lat="52.089125" lon="5.270507">
        <ele>10.213318</ele>
        <time>2026-08-15T09:24:12.130Z</time>
      </trkpt>
      <trkpt lat="52.088690" lon="5.268893">
        <ele>9.745937</ele>
        <time>2026-08-15T09:24:26.713Z</time>
      </trkpt>
      <trkpt lat="52.088365" lon="5.267792">
        <ele>9.415253</ele>
        <time>2026-08-15T09:24:36.502Z</time>
      </trkpt>
      <trkpt lat="52.088168" lon="5.267028">
        <ele>9.114171</ele>
        <time>2026-08-15T09:24:43.023Z</time>
      </trkpt>
      <trkpt lat="52.087678" lon="5.265316">
        <ele>8.427870</ele>
        <time>2026-08-15T09:24:58.232Z</time>
      </trkpt>
      <trkpt lat="52.087561" lon="5.264905">
        <ele>8.309773</ele>
        <time>2026-08-15T09:25:01.898Z</time>
      </trkpt>
      <trkpt lat="52.087445" lon="5.264525">
        <ele>8.223628</ele>
        <time>2026-08-15T09:25:05.327Z</time>
      </trkpt>
      <trkpt lat="52.087381" lon="5.264403">
        <ele>8.191060</ele>
        <time>2026-08-15T09:25:06.628Z</time>
      </trkpt>
      <trkpt lat="52.087330" lon="5.264385">
        <ele>8.173817</ele>
        <time>2026-08-15T09:25:07.321Z</time>
      </trkpt>
      <trkpt lat="52.087274" lon="5.264191">
        <ele>8.130301</ele>
        <time>2026-08-15T09:25:09.082Z</time>
      </trkpt>
      <trkpt lat="52.087222" lon="5.263996">
        <ele>8.087143</ele>
        <time>2026-08-15T09:25:11.548Z</time>
      </trkpt>
      <trkpt lat="52.087255" lon="5.263809">
        <ele>8.047643</ele>
        <time>2026-08-15T09:25:13.817Z</time>
      </trkpt>
      <trkpt lat="52.087047" lon="5.263078">
        <ele>7.884091</ele>
        <time>2026-08-15T09:25:23.378Z</time>
      </trkpt>
      <trkpt lat="52.086889" lon="5.262607">
        <ele>7.775144</ele>
        <time>2026-08-15T09:25:29.821Z</time>
      </trkpt>
      <trkpt lat="52.086327" lon="5.260479">
        <ele>7.790417</ele>
        <time>2026-08-15T09:25:58.973Z</time>
      </trkpt>
      <trkpt lat="52.085338" lon="5.256903">
        <ele>7.770275</ele>
        <time>2026-08-15T09:26:47.650Z</time>
      </trkpt>
      <trkpt lat="52.085060" lon="5.255933">
        <ele>7.792169</ele>
        <time>2026-08-15T09:27:00.249Z</time>
      </trkpt>
      <trkpt lat="52.084215" lon="5.252910">
        <ele>8.100538</ele>
        <time>2026-08-15T09:27:43.338Z</time>
      </trkpt>
      <trkpt lat="52.084156" lon="5.252893">
        <ele>8.115246</ele>
        <time>2026-08-15T09:27:44.311Z</time>
      </trkpt>
      <trkpt lat="52.084064" lon="5.252801">
        <ele>8.141754</ele>
        <time>2026-08-15T09:27:46.091Z</time>
      </trkpt>
      <trkpt lat="52.084021" lon="5.252694">
        <ele>8.161040</ele>
        <time>2026-08-15T09:27:47.365Z</time>
      </trkpt>
      <trkpt lat="52.084006" lon="5.252515">
        <ele>8.188291</ele>
        <time>2026-08-15T09:27:49.162Z</time>
      </trkpt>
      <trkpt lat="52.084055" lon="5.252326">
        <ele>8.219235</ele>
        <time>2026-08-15T09:27:51.200Z</time>
      </trkpt>
      <trkpt lat="52.084038" lon="5.252269">
        <ele>8.228793</ele>
        <time>2026-08-15T09:27:51.822Z</time>
      </trkpt>
      <trkpt lat="52.083634" lon="5.250825">
        <ele>8.324624</ele>
        <time>2026-08-15T09:28:07.110Z</time>
      </trkpt>
      <trkpt lat="52.083504" lon="5.250357">
        <ele>8.347656</ele>
        <time>2026-08-15T09:28:11.741Z</time>
      </trkpt>
      <trkpt lat="52.083273" lon="5.249524">
        <ele>8.388640</ele>
        <time>2026-08-15T09:28:19.933Z</time>
      </trkpt>
      <trkpt lat="52.083061" lon="5.248763">
        <ele>8.377876</ele>
        <time>2026-08-15T09:28:27.433Z</time>
      </trkpt>
      <trkpt lat="52.082800" lon="5.247861">
        <ele>8.352880</ele>
        <time>2026-08-15T09:28:36.368Z</time>
      </trkpt>
      <trkpt lat="52.082412" lon="5.246617">
        <ele>8.324545</ele>
        <time>2026-08-15T09:28:48.942Z</time>
      </trkpt>
      <trkpt lat="52.082398" lon="5.246568">
        <ele>8.325505</ele>
        <time>2026-08-15T09:28:49.433Z</time>
      </trkpt>
      <trkpt lat="52.082298" lon="5.246558">
        <ele>8.328402</ele>
        <time>2026-08-15T09:28:50.969Z</time>
      </trkpt>
      <trkpt lat="52.082230" lon="5.246486">
        <ele>8.330748</ele>
        <time>2026-08-15T09:28:52.205Z</time>
      </trkpt>
      <trkpt lat="52.082179" lon="5.246380">
        <ele>8.333140</ele>
        <time>2026-08-15T09:28:53.476Z</time>
      </trkpt>
      <trkpt lat="52.082152" lon="5.246234">
        <ele>8.335850</ele>
        <time>2026-08-15T09:28:54.930Z</time>
      </trkpt>
      <trkpt lat="52.082197" lon="5.245995">
        <ele>8.340291</ele>
        <time>2026-08-15T09:28:57.310Z</time>
      </trkpt>
      <trkpt lat="52.082218" lon="5.245956">
        <ele>8.341213</ele>
        <time>2026-08-15T09:28:57.791Z</time>
      </trkpt>
      <trkpt lat="52.082210" lon="5.245893">
        <ele>8.342356</ele>
        <time>2026-08-15T09:28:58.393Z</time>
      </trkpt>
      <trkpt lat="52.082035" lon="5.245237">
        <ele>8.355064</ele>
        <time>2026-08-15T09:29:05.271Z</time>
      </trkpt>
      <trkpt lat="52.081603" lon="5.243701">
        <ele>8.059916</ele>
        <time>2026-08-15T09:29:20.485Z</time>
      </trkpt>
      <trkpt lat="52.081141" lon="5.242062">
        <ele>7.168396</ele>
        <time>2026-08-15T09:29:34.200Z</time>
      </trkpt>
      <trkpt lat="52.081014" lon="5.241709">
        <ele>6.966159</ele>
        <time>2026-08-15T09:29:37.064Z</time>
      </trkpt>
      <trkpt lat="52.080794" lon="5.241274">
        <ele>6.676033</ele>
        <time>2026-08-15T09:29:42.844Z</time>
      </trkpt>
      <trkpt lat="52.080706" lon="5.241150">
        <ele>6.577840</ele>
        <time>2026-08-15T09:29:44.806Z</time>
      </trkpt>
      <trkpt lat="52.080504" lon="5.240972">
        <ele>6.384071</ele>
        <time>2026-08-15T09:29:48.718Z</time>
      </trkpt>
      <trkpt lat="52.080407" lon="5.240946">
        <ele>6.301147</ele>
        <time>2026-08-15T09:29:49.929Z</time>
      </trkpt>
      <trkpt lat="52.080354" lon="5.240752">
        <ele>6.191092</ele>
        <time>2026-08-15T09:29:51.501Z</time>
      </trkpt>
      <trkpt lat="52.080312" lon="5.240581">
        <ele>6.095631</ele>
        <time>2026-08-15T09:29:52.882Z</time>
      </trkpt>
      <trkpt lat="52.080165" lon="5.240021">
        <ele>5.779962</ele>
        <time>2026-08-15T09:29:59.609Z</time>
      </trkpt>
      <trkpt lat="52.080164" lon="5.239924">
        <ele>5.729671</ele>
        <time>2026-08-15T09:30:00.678Z</time>
      </trkpt>
      <trkpt lat="52.080309" lon="5.239569">
        <ele>5.508706</ele>
        <time>2026-08-15T09:30:04.209Z</time>
      </trkpt>
      <trkpt lat="52.079149" lon="5.237886">
        <ele>4.909835</ele>
        <time>2026-08-15T09:30:34.257Z</time>
      </trkpt>
      <trkpt lat="52.079118" lon="5.237842">
        <ele>4.895526</ele>
        <time>2026-08-15T09:30:35.028Z</time>
      </trkpt>
      <trkpt lat="52.078941" lon="5.237585">
        <ele>4.813006</ele>
        <time>2026-08-15T09:30:39.461Z</time>
      </trkpt>
      <trkpt lat="52.078905" lon="5.237534">
        <ele>4.796402</ele>
        <time>2026-08-15T09:30:40.344Z</time>
      </trkpt>
      <trkpt lat="52.078491" lon="5.236930">
        <ele>4.588584</ele>
        <time>2026-08-15T09:30:50.569Z</time>
      </trkpt>
      <trkpt lat="52.078529" lon="5.236862">
        <ele>4.567373</ele>
        <time>2026-08-15T09:30:51.595Z</time>
      </trkpt>
      <trkpt lat="52.077844" lon="5.235858">
        <ele>4.221159</ele>
        <time>2026-08-15T09:31:03.949Z</time>
      </trkpt>
      <trkpt lat="52.077580" lon="5.235482">
        <ele>4.130833</ele>
        <time>2026-08-15T09:31:08.872Z</time>
      </trkpt>
      <trkpt lat="52.077510" lon="5.235391">
        <ele>4.170310</ele>
        <time>2026-08-15T09:31:10.651Z</time>
      </trkpt>
      <trkpt lat="52.077485" lon="5.235359">
        <ele>4.184324</ele>
        <time>2026-08-15T09:31:11.109Z</time>
      </trkpt>
      <trkpt lat="52.077397" lon="5.235191">
        <ele>4.244098</ele>
        <time>2026-08-15T09:31:13.096Z</time>
      </trkpt>
      <trkpt lat="52.077523" lon="5.234490">
        <ele>4.441871</ele>
        <time>2026-08-15T09:31:20.144Z</time>
      </trkpt>
      <trkpt lat="52.077449" lon="5.234447">
        <ele>4.476492</ele>
        <time>2026-08-15T09:31:21.522Z</time>
      </trkpt>
      <trkpt lat="52.077459" lon="5.234338">
        <ele>4.506334</ele>
        <time>2026-08-15T09:31:22.772Z</time>
      </trkpt>
      <trkpt lat="52.077475" lon="5.234167">
        <ele>4.553173</ele>
        <time>2026-08-15T09:31:24.729Z</time>
      </trkpt>
      <trkpt lat="52.077450" lon="5.233376">
        <ele>4.767648</ele>
        <time>2026-08-15T09:31:33.734Z</time>
      </trkpt>
      <trkpt lat="52.077458" lon="5.233181">
        <ele>4.820569</ele>
        <time>2026-08-15T09:31:35.918Z</time>
      </trkpt>
      <trkpt lat="52.077465" lon="5.233144">
        <ele>4.831052</ele>
        <time>2026-08-15T09:31:36.362Z</time>
      </trkpt>
      <trkpt lat="52.077524" lon="5.232801">
        <ele>4.906128</ele>
        <time>2026-08-15T09:31:40.335Z</time>
      </trkpt>
      <trkpt lat="52.077518" lon="5.232611">
        <ele>4.916193</ele>
        <time>2026-08-15T09:31:42.447Z</time>
      </trkpt>
      <trkpt lat="52.077559" lon="5.232516">
        <ele>4.922335</ele>
        <time>2026-08-15T09:31:43.744Z</time>
      </trkpt>
      <trkpt lat="52.077595" lon="5.232433">
        <ele>4.927709</ele>
        <time>2026-08-15T09:31:44.869Z</time>
      </trkpt>
      <trkpt lat="52.076749" lon="5.231203">
        <ele>5.025370</ele>
        <time>2026-08-15T09:32:02.907Z</time>
      </trkpt>
      <trkpt lat="52.075894" lon="5.229974">
        <ele>4.455487</ele>
        <time>2026-08-15T09:32:16.791Z</time>
      </trkpt>
      <trkpt lat="52.075830" lon="5.229785">
        <ele>4.354425</ele>
        <time>2026-08-15T09:32:18.398Z</time>
      </trkpt>
      <trkpt lat="52.075735" lon="5.229647">
        <ele>4.257382</ele>
        <time>2026-08-15T09:32:19.960Z</time>
      </trkpt>
      <trkpt lat="52.075728" lon="5.229513">
        <ele>4.194398</ele>
        <time>2026-08-15T09:32:20.987Z</time>
      </trkpt>
      <trkpt lat="52.075670" lon="5.229401">
        <ele>4.125807</ele>
        <time>2026-08-15T09:32:22.107Z</time>
      </trkpt>
      <trkpt lat="52.075618" lon="5.229323">
        <ele>4.071913</ele>
        <time>2026-08-15T09:32:22.992Z</time>
      </trkpt>
      <trkpt lat="52.075513" lon="5.229304">
        <ele>3.991410</ele>
        <time>2026-08-15T09:32:24.327Z</time>
      </trkpt>
      <trkpt lat="52.075321" lon="5.229088">
        <ele>3.813537</ele>
        <time>2026-08-15T09:32:27.331Z</time>
      </trkpt>
      <trkpt lat="52.073468" lon="5.226450">
        <ele>3.318932</ele>
        <time>2026-08-15T09:33:02.540Z</time>
      </trkpt>
      <trkpt lat="52.068966" lon="5.219988">
        <ele>2.824503</ele>
        <time>2026-08-15T09:34:29.555Z</time>
      </trkpt>
      <trkpt lat="52.068735" lon="5.219461">
        <ele>2.800207</ele>
        <time>2026-08-15T09:34:35.559Z</time>
      </trkpt>
      <trkpt lat="52.068645" lon="5.219120">
        <ele>2.786276</ele>
        <time>2026-08-15T09:34:38.900Z</time>
      </trkpt>
      <trkpt lat="52.068574" lon="5.218619">
        <ele>2.747343</ele>
        <time>2026-08-15T09:34:43.687Z</time>
      </trkpt>
      <trkpt lat="52.068567" lon="5.218148">
        <ele>2.706583</ele>
        <time>2026-08-15T09:34:47.893Z</time>
      </trkpt>
      <trkpt lat="52.068589" lon="5.217869">
        <ele>2.682247</ele>
        <time>2026-08-15T09:34:50.272Z</time>
      </trkpt>
      <trkpt lat="52.068668" lon="5.217425">
        <ele>2.642258</ele>
        <time>2026-08-15T09:34:54.108Z</time>
      </trkpt>
      <trkpt lat="52.068773" lon="5.217077">
        <ele>2.608720</ele>
        <time>2026-08-15T09:34:57.309Z</time>
      </trkpt>
      <trkpt lat="52.069111" lon="5.216265">
        <ele>2.539606</ele>
        <time>2026-08-15T09:35:05.746Z</time>
      </trkpt>
      <trkpt lat="52.070025" lon="5.214255">
        <ele>3.002787</ele>
        <time>2026-08-15T09:35:30.861Z</time>
      </trkpt>
      <trkpt lat="52.070091" lon="5.213986">
        <ele>3.056444</ele>
        <time>2026-08-15T09:35:33.899Z</time>
      </trkpt>
      <trkpt lat="52.070092" lon="5.213873">
        <ele>3.073931</ele>
        <time>2026-08-15T09:35:35.071Z</time>
      </trkpt>
      <trkpt lat="52.070037" lon="5.213648">
        <ele>3.094696</ele>
        <time>2026-08-15T09:35:37.556Z</time>
      </trkpt>
      <trkpt lat="52.069145" lon="5.211374">
        <ele>3.318804</ele>
        <time>2026-08-15T09:36:03.143Z</time>
      </trkpt>
      <trkpt lat="52.068683" lon="5.210204">
        <ele>3.230002</ele>
        <time>2026-08-15T09:36:15.175Z</time>
      </trkpt>
      <trkpt lat="52.068672" lon="5.210174">
        <ele>3.227771</ele>
        <time>2026-08-15T09:36:15.478Z</time>
      </trkpt>
      <trkpt lat="52.068565" lon="5.209903">
        <ele>3.207203</ele>
        <time>2026-08-15T09:36:18.245Z</time>
      </trkpt>
      <trkpt lat="52.068108" lon="5.208735">
        <ele>3.137347</ele>
        <time>2026-08-15T09:36:30.710Z</time>
      </trkpt>
      <trkpt lat="52.068079" lon="5.208603">
        <ele>3.138618</ele>
        <time>2026-08-15T09:36:31.961Z</time>
      </trkpt>
      <trkpt lat="52.068108" lon="5.208401">
        <ele>3.140500</ele>
        <time>2026-08-15T09:36:33.822Z</time>
      </trkpt>
      <trkpt lat="52.068122" lon="5.208279">
        <ele>3.141625</ele>
        <time>2026-08-15T09:36:34.938Z</time>
      </trkpt>
      <trkpt lat="52.068144" lon="5.208193">
        <ele>3.142470</ele>
        <time>2026-08-15T09:36:35.775Z</time>
      </trkpt>
      <trkpt lat="52.068206" lon="5.207958">
        <ele>3.144790</ele>
        <time>2026-08-15T09:36:38.032Z</time>
      </trkpt>
      <trkpt lat="52.068326" lon="5.207517">
        <ele>3.149164</ele>
        <time>2026-08-15T09:36:42.290Z</time>
      </trkpt>
      <trkpt lat="52.068507" lon="5.206836">
        <ele>3.155894</ele>
        <time>2026-08-15T09:36:49.389Z</time>
      </trkpt>
      <trkpt lat="52.068516" lon="5.206804">
        <ele>3.156213</ele>
        <time>2026-08-15T09:36:49.720Z</time>
      </trkpt>
      <trkpt lat="52.068730" lon="5.206166">
        <ele>3.159833</ele>
        <time>2026-08-15T09:36:56.602Z</time>
      </trkpt>
      <trkpt lat="52.068871" lon="5.205846">
        <ele>3.154756</ele>
        <time>2026-08-15T09:37:00.060Z</time>
      </trkpt>
      <trkpt lat="52.069069" lon="5.205400">
        <ele>3.147662</ele>
        <time>2026-08-15T09:37:04.788Z</time>
      </trkpt>
      <trkpt lat="52.069353" lon="5.204819">
        <ele>3.138090</ele>
        <time>2026-08-15T09:37:11.413Z</time>
      </trkpt>
      <trkpt lat="52.069490" lon="5.204540">
        <ele>3.133486</ele>
        <time>2026-08-15T09:37:14.739Z</time>
      </trkpt>
      <trkpt lat="52.069534" lon="5.204321">
        <ele>3.130515</ele>
        <time>2026-08-15T09:37:16.860Z</time>
      </trkpt>
      <trkpt lat="52.069525" lon="5.204211">
        <ele>3.129084</ele>
        <time>2026-08-15T09:37:17.857Z</time>
      </trkpt>
      <trkpt lat="52.069493" lon="5.204114">
        <ele>3.127664</ele>
        <time>2026-08-15T09:37:18.844Z</time>
      </trkpt>
      <trkpt lat="52.069423" lon="5.204018">
        <ele>3.125744</ele>
        <time>2026-08-15T09:37:20.161Z</time>
      </trkpt>
      <trkpt lat="52.068860" lon="5.203481">
        <ele>3.332237</ele>
        <time>2026-08-15T09:37:30.088Z</time>
      </trkpt>
      <trkpt lat="52.068819" lon="5.203462">
        <ele>3.348037</ele>
        <time>2026-08-15T09:37:30.785Z</time>
      </trkpt>
      <trkpt lat="52.068690" lon="5.203396">
        <ele>3.398156</ele>
        <time>2026-08-15T09:37:33.033Z</time>
      </trkpt>
      <trkpt lat="52.068587" lon="5.203356">
        <ele>3.437403</ele>
        <time>2026-08-15T09:37:35.373Z</time>
      </trkpt>
      <trkpt lat="52.068385" lon="5.203408">
        <ele>3.513201</ele>
        <time>2026-08-15T09:37:40.001Z</time>
      </trkpt>
      <trkpt lat="52.068255" lon="5.203364">
        <ele>3.562414</ele>
        <time>2026-08-15T09:37:43.041Z</time>
      </trkpt>
      <trkpt lat="52.068135" lon="5.203227">
        <ele>3.616749</ele>
        <time>2026-08-15T09:37:46.412Z</time>
      </trkpt>
      <trkpt lat="52.067979" lon="5.202943">
        <ele>3.703522</ele>
        <time>2026-08-15T09:37:51.843Z</time>
      </trkpt>
      <trkpt lat="52.067916" lon="5.202765">
        <ele>3.750318</ele>
        <time>2026-08-15T09:37:54.713Z</time>
      </trkpt>
      <trkpt lat="52.067841" lon="5.202455">
        <ele>3.796728</ele>
        <time>2026-08-15T09:37:59.133Z</time>
      </trkpt>
      <trkpt lat="52.067690" lon="5.201730">
        <ele>3.827253</ele>
        <time>2026-08-15T09:38:09.115Z</time>
      </trkpt>
      <trkpt lat="52.067630" lon="5.201550">
        <ele>3.835419</ele>
        <time>2026-08-15T09:38:11.784Z</time>
      </trkpt>
      <trkpt lat="52.067494" lon="5.201189">
        <ele>3.852303</ele>
        <time>2026-08-15T09:38:17.073Z</time>
      </trkpt>
      <trkpt lat="52.067366" lon="5.200866">
        <ele>3.867628</ele>
        <time>2026-08-15T09:38:21.754Z</time>
      </trkpt>
      <trkpt lat="52.067289" lon="5.200827">
        <ele>3.872860</ele>
        <time>2026-08-15T09:38:23.337Z</time>
      </trkpt>
      <trkpt lat="52.067302" lon="5.200693">
        <ele>3.878270</ele>
        <time>2026-08-15T09:38:24.961Z</time>
      </trkpt>
      <trkpt lat="52.067306" lon="5.200598">
        <ele>3.882067</ele>
        <time>2026-08-15T09:38:26.099Z</time>
      </trkpt>
      <trkpt lat="52.067286" lon="5.200261">
        <ele>3.895568</ele>
        <time>2026-08-15T09:38:30.152Z</time>
      </trkpt>
      <trkpt lat="52.067219" lon="5.199871">
        <ele>3.902956</ele>
        <time>2026-08-15T09:38:34.904Z</time>
      </trkpt>
      <trkpt lat="52.067141" lon="5.199318">
        <ele>3.882178</ele>
        <time>2026-08-15T09:38:41.621Z</time>
      </trkpt>
      <trkpt lat="52.067101" lon="5.199025">
        <ele>3.871186</ele>
        <time>2026-08-15T09:38:45.390Z</time>
      </trkpt>
      <trkpt lat="52.066973" lon="5.198078">
        <ele>3.835677</ele>
        <time>2026-08-15T09:38:57.440Z</time>
      </trkpt>
      <trkpt lat="52.066924" lon="5.197570">
        <ele>3.816846</ele>
        <time>2026-08-15T09:39:03.755Z</time>
      </trkpt>
      <trkpt lat="52.066919" lon="5.197506">
        <ele>3.814483</ele>
        <time>2026-08-15T09:39:04.559Z</time>
      </trkpt>
      <trkpt lat="52.066915" lon="5.197443">
        <ele>3.812164</ele>
        <time>2026-08-15T09:39:05.352Z</time>
      </trkpt>
      <trkpt lat="52.066898" lon="5.197214">
        <ele>3.803716</ele>
        <time>2026-08-15T09:39:08.227Z</time>
      </trkpt>
      <trkpt lat="52.066888" lon="5.197100">
        <ele>3.800170</ele>
        <time>2026-08-15T09:39:09.646Z</time>
      </trkpt>
      <trkpt lat="52.066762" lon="5.196172">
        <ele>3.811999</ele>
        <time>2026-08-15T09:39:21.517Z</time>
      </trkpt>
      <trkpt lat="52.066463" lon="5.194342">
        <ele>3.835566</ele>
        <time>2026-08-15T09:39:45.239Z</time>
      </trkpt>
      <trkpt lat="52.066366" lon="5.193424">
        <ele>3.832090</ele>
        <time>2026-08-15T09:39:56.927Z</time>
      </trkpt>
      <trkpt lat="52.066321" lon="5.192913">
        <ele>3.829504</ele>
        <time>2026-08-15T09:40:03.562Z</time>
      </trkpt>
      <trkpt lat="52.066210" lon="5.192352">
        <ele>3.826551</ele>
        <time>2026-08-15T09:40:10.916Z</time>
      </trkpt>
      <trkpt lat="52.066203" lon="5.192315">
        <ele>3.826357</ele>
        <time>2026-08-15T09:40:11.390Z</time>
      </trkpt>
      <trkpt lat="52.066139" lon="5.192104">
        <ele>3.825178</ele>
        <time>2026-08-15T09:40:14.283Z</time>
      </trkpt>
      <trkpt lat="52.066055" lon="5.191877">
        <ele>3.823851</ele>
        <time>2026-08-15T09:40:16.642Z</time>
      </trkpt>
      <trkpt lat="52.066044" lon="5.191846">
        <ele>3.823671</ele>
        <time>2026-08-15T09:40:16.970Z</time>
      </trkpt>
      <trkpt lat="52.066038" lon="5.191833">
        <ele>3.823590</ele>
        <time>2026-08-15T09:40:17.126Z</time>
      </trkpt>
      <trkpt lat="52.065902" lon="5.191542">
        <ele>3.821758</ele>
        <time>2026-08-15T09:40:20.323Z</time>
      </trkpt>
      <trkpt lat="52.065126" lon="5.190161">
        <ele>3.322426</ele>
        <time>2026-08-15T09:40:36.106Z</time>
      </trkpt>
      <trkpt lat="52.064847" lon="5.189593">
        <ele>3.128335</ele>
        <time>2026-08-15T09:40:41.794Z</time>
      </trkpt>
      <trkpt lat="52.064557" lon="5.188900">
        <ele>2.927153</ele>
        <time>2026-08-15T09:40:48.370Z</time>
      </trkpt>
      <trkpt lat="52.064318" lon="5.188190">
        <ele>2.746947</ele>
        <time>2026-08-15T09:40:54.962Z</time>
      </trkpt>
      <trkpt lat="52.064197" lon="5.187697">
        <ele>2.628770</ele>
        <time>2026-08-15T09:40:59.411Z</time>
      </trkpt>
      <trkpt lat="52.064054" lon="5.186853">
        <ele>2.433870</ele>
        <time>2026-08-15T09:41:06.999Z</time>
      </trkpt>
      <trkpt lat="52.063978" lon="5.185919">
        <ele>2.426743</ele>
        <time>2026-08-15T09:41:15.991Z</time>
      </trkpt>
      <trkpt lat="52.063924" lon="5.184785">
        <ele>2.484004</ele>
        <time>2026-08-15T09:41:27.026Z</time>
      </trkpt>
      <trkpt lat="52.063921" lon="5.184685">
        <ele>2.489044</ele>
        <time>2026-08-15T09:41:27.958Z</time>
      </trkpt>
      <trkpt lat="52.063932" lon="5.184055">
        <ele>2.520774</ele>
        <time>2026-08-15T09:41:33.699Z</time>
      </trkpt>
      <trkpt lat="52.064005" lon="5.183346">
        <ele>2.517815</ele>
        <time>2026-08-15T09:41:40.023Z</time>
      </trkpt>
      <trkpt lat="52.064041" lon="5.183042">
        <ele>2.503345</ele>
        <time>2026-08-15T09:41:42.709Z</time>
      </trkpt>
      <trkpt lat="52.064136" lon="5.182054">
        <ele>2.456605</ele>
        <time>2026-08-15T09:41:51.485Z</time>
      </trkpt>
      <trkpt lat="52.064147" lon="5.181895">
        <ele>2.449126</ele>
        <time>2026-08-15T09:41:52.981Z</time>
      </trkpt>
      <trkpt lat="52.064181" lon="5.181166">
        <ele>2.414955</ele>
        <time>2026-08-15T09:41:59.750Z</time>
      </trkpt>
      <trkpt lat="52.064146" lon="5.180566">
        <ele>2.376003</ele>
        <time>2026-08-15T09:42:05.165Z</time>
      </trkpt>
      <trkpt lat="52.064050" lon="5.180011">
        <ele>2.326931</ele>
        <time>2026-08-15T09:42:10.383Z</time>
      </trkpt>
      <trkpt lat="52.064008" lon="5.179613">
        <ele>2.292561</ele>
        <time>2026-08-15T09:42:13.961Z</time>
      </trkpt>
      <trkpt lat="52.064014" lon="5.179010">
        <ele>2.241231</ele>
        <time>2026-08-15T09:42:19.243Z</time>
      </trkpt>
      <trkpt lat="52.064019" lon="5.178926">
        <ele>2.234048</ele>
        <time>2026-08-15T09:42:19.968Z</time>
      </trkpt>
      <trkpt lat="52.064039" lon="5.178646">
        <ele>2.210056</ele>
        <time>2026-08-15T09:42:22.424Z</time>
      </trkpt>
      <trkpt lat="52.064041" lon="5.178629">
        <ele>2.208582</ele>
        <time>2026-08-15T09:42:22.578Z</time>
      </trkpt>
      <trkpt lat="52.064050" lon="5.178361">
        <ele>2.185738</ele>
        <time>2026-08-15T09:42:24.863Z</time>
      </trkpt>
      <trkpt lat="52.063991" lon="5.177237">
        <ele>2.140956</ele>
        <time>2026-08-15T09:42:34.350Z</time>
      </trkpt>
      <trkpt lat="52.064017" lon="5.175052">
        <ele>2.110710</ele>
        <time>2026-08-15T09:42:54.601Z</time>
      </trkpt>
      <trkpt lat="52.064102" lon="5.173643">
        <ele>2.102378</ele>
        <time>2026-08-15T09:43:08.073Z</time>
      </trkpt>
      <trkpt lat="52.064066" lon="5.173000">
        <ele>2.098657</ele>
        <time>2026-08-15T09:43:14.105Z</time>
      </trkpt>
      <trkpt lat="52.063924" lon="5.172126">
        <ele>2.094378</ele>
        <time>2026-08-15T09:43:21.949Z</time>
      </trkpt>
      <trkpt lat="52.064002" lon="5.171235">
        <ele>2.134886</ele>
        <time>2026-08-15T09:43:29.309Z</time>
      </trkpt>
      <trkpt lat="52.063997" lon="5.171049">
        <ele>2.143266</ele>
        <time>2026-08-15T09:43:30.966Z</time>
      </trkpt>
      <trkpt lat="52.063966" lon="5.170993">
        <ele>2.146658</ele>
        <time>2026-08-15T09:43:31.639Z</time>
      </trkpt>
      <trkpt lat="52.063892" lon="5.170970">
        <ele>2.152174</ele>
        <time>2026-08-15T09:43:32.770Z</time>
      </trkpt>
      <trkpt lat="52.063790" lon="5.170963">
        <ele>2.159648</ele>
        <time>2026-08-15T09:43:34.324Z</time>
      </trkpt>
      <trkpt lat="52.063655" lon="5.170945">
        <ele>2.169565</ele>
        <time>2026-08-15T09:43:36.429Z</time>
      </trkpt>
      <trkpt lat="52.063562" lon="5.170823">
        <ele>2.178312</ele>
        <time>2026-08-15T09:43:38.312Z</time>
      </trkpt>
      <trkpt lat="52.063456" lon="5.171027">
        <ele>2.190334</ele>
        <time>2026-08-15T09:43:40.914Z</time>
      </trkpt>
      <trkpt lat="52.063438" lon="5.171213">
        <ele>2.198809</ele>
        <time>2026-08-15T09:43:42.793Z</time>
      </trkpt>
      <trkpt lat="52.063417" lon="5.171975">
        <ele>2.258262</ele>
        <time>2026-08-15T09:43:50.678Z</time>
      </trkpt>
      <trkpt lat="52.063409" lon="5.172263">
        <ele>2.312470</ele>
        <time>2026-08-15T09:43:53.842Z</time>
      </trkpt>
      <trkpt lat="52.063369" lon="5.172421">
        <ele>2.344599</ele>
        <time>2026-08-15T09:43:55.727Z</time>
      </trkpt>
      <trkpt lat="52.063253" lon="5.172467">
        <ele>2.381116</ele>
        <time>2026-08-15T09:43:57.795Z</time>
      </trkpt>
      <trkpt lat="52.062441" lon="5.172559">
        <ele>2.630063</ele>
        <time>2026-08-15T09:44:15.518Z</time>
      </trkpt>
      <trkpt lat="52.062199" lon="5.172620">
        <ele>2.704961</ele>
        <time>2026-08-15T09:44:20.447Z</time>
      </trkpt>
      <trkpt lat="52.061707" lon="5.172791">
        <ele>2.716827</ele>
        <time>2026-08-15T09:44:30.302Z</time>
      </trkpt>
      <trkpt lat="52.061552" lon="5.172891">
        <ele>2.681085</ele>
        <time>2026-08-15T09:44:33.466Z</time>
      </trkpt>
      <trkpt lat="52.061496" lon="5.172941">
        <ele>2.667392</ele>
        <time>2026-08-15T09:44:34.319Z</time>
      </trkpt>
      <trkpt lat="52.061488" lon="5.172952">
        <ele>2.665147</ele>
        <time>2026-08-15T09:44:34.461Z</time>
      </trkpt>
      <trkpt lat="52.061171" lon="5.173326">
        <ele>2.581206</ele>
        <time>2026-08-15T09:44:39.727Z</time>
      </trkpt>
      <trkpt lat="52.061098" lon="5.173233">
        <ele>2.561330</ele>
        <time>2026-08-15T09:44:41.039Z</time>
      </trkpt>
      <trkpt lat="52.060785" lon="5.172872">
        <ele>2.479084</ele>
        <time>2026-08-15T09:44:46.553Z</time>
      </trkpt>
      <trkpt lat="52.060440" lon="5.172615">
        <ele>2.397747</ele>
        <time>2026-08-15T09:44:52.045Z</time>
      </trkpt>
      <trkpt lat="52.059591" lon="5.172020">
        <ele>2.337219</ele>
        <time>2026-08-15T09:45:05.212Z</time>
      </trkpt>
      <trkpt lat="52.059337" lon="5.171799">
        <ele>2.320148</ele>
        <time>2026-08-15T09:45:09.434Z</time>
      </trkpt>
      <trkpt lat="52.059083" lon="5.171493">
        <ele>2.301416</ele>
        <time>2026-08-15T09:45:14.123Z</time>
      </trkpt>
      <trkpt lat="52.058768" lon="5.171128">
        <ele>2.275341</ele>
        <time>2026-08-15T09:45:19.958Z</time>
      </trkpt>
      <trkpt lat="52.058651" lon="5.171072">
        <ele>2.263288</ele>
        <time>2026-08-15T09:45:21.811Z</time>
      </trkpt>
      <trkpt lat="52.058107" lon="5.171279">
        <ele>2.208071</ele>
        <time>2026-08-15T09:45:30.131Z</time>
      </trkpt>
      <trkpt lat="52.057929" lon="5.171298">
        <ele>2.190441</ele>
        <time>2026-08-15T09:45:32.713Z</time>
      </trkpt>
      <trkpt lat="52.057643" lon="5.171207">
        <ele>2.161639</ele>
        <time>2026-08-15T09:45:36.858Z</time>
      </trkpt>
      <trkpt lat="52.057426" lon="5.171034">
        <ele>2.137754</ele>
        <time>2026-08-15T09:45:40.262Z</time>
      </trkpt>
      <trkpt lat="52.057170" lon="5.170659">
        <ele>2.102348</ele>
        <time>2026-08-15T09:45:45.150Z</time>
      </trkpt>
      <trkpt lat="52.057052" lon="5.170333">
        <ele>2.061567</ele>
        <time>2026-08-15T09:45:48.415Z</time>
      </trkpt>
      <trkpt lat="52.057000" lon="5.170062">
        <ele>2.030962</ele>
        <time>2026-08-15T09:45:50.860Z</time>
      </trkpt>
      <trkpt lat="52.056942" lon="5.169404">
        <ele>1.959303</ele>
        <time>2026-08-15T09:45:56.583Z</time>
      </trkpt>
      <trkpt lat="52.056886" lon="5.169078">
        <ele>1.922813</ele>
        <time>2026-08-15T09:45:59.532Z</time>
      </trkpt>
      <trkpt lat="52.056190" lon="5.168201">
        <ele>1.765819</ele>
        <time>2026-08-15T09:46:12.179Z</time>
      </trkpt>
      <trkpt lat="52.056006" lon="5.167774">
        <ele>1.702790</ele>
        <time>2026-08-15T09:46:16.669Z</time>
      </trkpt>
      <trkpt lat="52.055936" lon="5.167457">
        <ele>1.662074</ele>
        <time>2026-08-15T09:46:19.518Z</time>
      </trkpt>
      <trkpt lat="52.055908" lon="5.167120">
        <ele>1.620966</ele>
        <time>2026-08-15T09:46:22.399Z</time>
      </trkpt>
      <trkpt lat="52.055977" lon="5.166359">
        <ele>1.527981</ele>
        <time>2026-08-15T09:46:29.023Z</time>
      </trkpt>
      <trkpt lat="52.055979" lon="5.166100">
        <ele>1.496670</ele>
        <time>2026-08-15T09:46:31.295Z</time>
      </trkpt>
      <trkpt lat="52.055898" lon="5.165511">
        <ele>1.428215</ele>
        <time>2026-08-15T09:46:36.662Z</time>
      </trkpt>
      <trkpt lat="52.055491" lon="5.163879">
        <ele>1.290234</ele>
        <time>2026-08-15T09:46:52.435Z</time>
      </trkpt>
      <trkpt lat="52.055162" lon="5.162446">
        <ele>1.164892</ele>
        <time>2026-08-15T09:47:05.860Z</time>
      </trkpt>
      <trkpt lat="52.055078" lon="5.161970">
        <ele>1.120318</ele>
        <time>2026-08-15T09:47:10.069Z</time>
      </trkpt>
      <trkpt lat="52.055088" lon="5.161494">
        <ele>1.077449</ele>
        <time>2026-08-15T09:47:14.106Z</time>
      </trkpt>
      <trkpt lat="52.055236" lon="5.159836">
        <ele>0.967155</ele>
        <time>2026-08-15T09:47:28.810Z</time>
      </trkpt>
      <trkpt lat="52.055267" lon="5.159261">
        <ele>1.036149</ele>
        <time>2026-08-15T09:47:34.272Z</time>
      </trkpt>
      <trkpt lat="52.055287" lon="5.158243">
        <ele>1.157894</ele>
        <time>2026-08-15T09:47:44.244Z</time>
      </trkpt>
      <trkpt lat="52.055269" lon="5.157986">
        <ele>1.188812</ele>
        <time>2026-08-15T09:47:46.825Z</time>
      </trkpt>
      <trkpt lat="52.055213" lon="5.157826">
        <ele>1.210818</ele>
        <time>2026-08-15T09:47:48.664Z</time>
      </trkpt>
      <trkpt lat="52.054945" lon="5.157134">
        <ele>1.280868</ele>
        <time>2026-08-15T09:47:56.820Z</time>
      </trkpt>
      <trkpt lat="52.054883" lon="5.156930">
        <ele>1.257439</ele>
        <time>2026-08-15T09:47:58.998Z</time>
      </trkpt>
      <trkpt lat="52.054823" lon="5.156567">
        <ele>1.218737</ele>
        <time>2026-08-15T09:48:02.502Z</time>
      </trkpt>
      <trkpt lat="52.054792" lon="5.156349">
        <ele>1.195699</ele>
        <time>2026-08-15T09:48:04.525Z</time>
      </trkpt>
      <trkpt lat="52.054696" lon="5.155691">
        <ele>1.126070</ele>
        <time>2026-08-15T09:48:10.433Z</time>
      </trkpt>
      <trkpt lat="52.054609" lon="5.154714">
        <ele>1.024428</ele>
        <time>2026-08-15T09:48:18.589Z</time>
      </trkpt>
      <trkpt lat="52.054512" lon="5.154853">
        <ele>1.002780</ele>
        <time>2026-08-15T09:48:20.316Z</time>
      </trkpt>
      <trkpt lat="52.053801" lon="5.155322">
        <ele>0.884994</ele>
        <time>2026-08-15T09:48:30.657Z</time>
      </trkpt>
      <trkpt lat="52.053614" lon="5.155392">
        <ele>0.855767</ele>
        <time>2026-08-15T09:48:33.367Z</time>
      </trkpt>
      <trkpt lat="52.053277" lon="5.155320">
        <ele>0.803999</ele>
        <time>2026-08-15T09:48:38.298Z</time>
      </trkpt>
      <trkpt lat="52.052834" lon="5.155166">
        <ele>0.735003</ele>
        <time>2026-08-15T09:48:45.135Z</time>
      </trkpt>
      <trkpt lat="52.052184" lon="5.154928">
        <ele>0.849641</ele>
        <time>2026-08-15T09:48:55.614Z</time>
      </trkpt>
      <trkpt lat="52.052263" lon="5.154705">
        <ele>0.886786</ele>
        <time>2026-08-15T09:48:58.094Z</time>
      </trkpt>
      <trkpt lat="52.052881" lon="5.153070">
        <ele>1.155705</ele>
        <time>2026-08-15T09:49:17.053Z</time>
      </trkpt>
      <trkpt lat="52.053057" lon="5.152556">
        <ele>1.210872</ele>
        <time>2026-08-15T09:49:22.678Z</time>
      </trkpt>
      <trkpt lat="52.053154" lon="5.151962">
        <ele>1.268504</ele>
        <time>2026-08-15T09:49:28.434Z</time>
      </trkpt>
      <trkpt lat="52.053141" lon="5.151500">
        <ele>1.311872</ele>
        <time>2026-08-15T09:49:32.762Z</time>
      </trkpt>
      <trkpt lat="52.053041" lon="5.150363">
        <ele>1.418299</ele>
        <time>2026-08-15T09:49:43.537Z</time>
      </trkpt>
      <trkpt lat="52.053046" lon="5.150177">
        <ele>1.430871</ele>
        <time>2026-08-15T09:49:45.282Z</time>
      </trkpt>
      <trkpt lat="52.053082" lon="5.149759">
        <ele>1.459373</ele>
        <time>2026-08-15T09:49:49.299Z</time>
      </trkpt>
      <trkpt lat="52.053221" lon="5.148885">
        <ele>1.520334</ele>
        <time>2026-08-15T09:49:58.092Z</time>
      </trkpt>
      <trkpt lat="52.053268" lon="5.147846">
        <ele>1.590684</ele>
        <time>2026-08-15T09:50:08.014Z</time>
      </trkpt>
      <trkpt lat="52.053174" lon="5.147375">
        <ele>1.597757</ele>
        <time>2026-08-15T09:50:12.454Z</time>
      </trkpt>
      <trkpt lat="52.053090" lon="5.147192">
        <ele>1.578124</ele>
        <time>2026-08-15T09:50:14.427Z</time>
      </trkpt>
      <trkpt lat="52.052670" lon="5.146660">
        <ele>1.503691</ele>
        <time>2026-08-15T09:50:21.551Z</time>
      </trkpt>
      <trkpt lat="52.052243" lon="5.146213">
        <ele>1.432691</ele>
        <time>2026-08-15T09:50:28.400Z</time>
      </trkpt>
      <trkpt lat="52.052028" lon="5.145976">
        <ele>1.396377</ele>
        <time>2026-08-15T09:50:32.030Z</time>
      </trkpt>
      <trkpt lat="52.050073" lon="5.144021">
        <ele>1.983464</ele>
        <time>2026-08-15T09:51:09.913Z</time>
      </trkpt>
      <trkpt lat="52.049794" lon="5.143825">
        <ele>1.973645</ele>
        <time>2026-08-15T09:51:14.891Z</time>
      </trkpt>
      <trkpt lat="52.049216" lon="5.143603">
        <ele>1.954458</ele>
        <time>2026-08-15T09:51:23.875Z</time>
      </trkpt>
      <trkpt lat="52.046998" lon="5.143462">
        <ele>1.367951</ele>
        <time>2026-08-15T09:51:53.065Z</time>
      </trkpt>
      <trkpt lat="52.045768" lon="5.143398">
        <ele>1.648739</ele>
        <time>2026-08-15T09:52:12.906Z</time>
      </trkpt>
      <trkpt lat="52.044511" lon="5.143493">
        <ele>2.117678</ele>
        <time>2026-08-15T09:52:34.558Z</time>
      </trkpt>
      <trkpt lat="52.044110" lon="5.143525">
        <ele>2.270522</ele>
        <time>2026-08-15T09:52:41.302Z</time>
      </trkpt>
      <trkpt lat="52.044095" lon="5.143015">
        <ele>2.390074</ele>
        <time>2026-08-15T09:52:46.512Z</time>
      </trkpt>
      <trkpt lat="52.043973" lon="5.141539">
        <ele>2.582145</ele>
        <time>2026-08-15T09:53:00.522Z</time>
      </trkpt>
      <trkpt lat="52.043884" lon="5.140559">
        <ele>2.481820</ele>
        <time>2026-08-15T09:53:09.288Z</time>
      </trkpt>
      <trkpt lat="52.043812" lon="5.139700">
        <ele>2.394021</ele>
        <time>2026-08-15T09:53:16.659Z</time>
      </trkpt>
      <trkpt lat="52.043764" lon="5.138132">
        <ele>2.115226</ele>
        <time>2026-08-15T09:53:29.807Z</time>
      </trkpt>
      <trkpt lat="52.043767" lon="5.137516">
        <ele>1.976769</ele>
        <time>2026-08-15T09:53:34.963Z</time>
      </trkpt>
      <trkpt lat="52.043791" lon="5.136342">
        <ele>1.712754</ele>
        <time>2026-08-15T09:53:44.683Z</time>
      </trkpt>
      <trkpt lat="52.043946" lon="5.134036">
        <ele>1.338120</ele>
        <time>2026-08-15T09:54:04.171Z</time>
      </trkpt>
      <trkpt lat="52.044068" lon="5.132858">
        <ele>1.208020</ele>
        <time>2026-08-15T09:54:15.041Z</time>
      </trkpt>
      <trkpt lat="52.044118" lon="5.132378">
        <ele>1.196910</ele>
        <time>2026-08-15T09:54:19.649Z</time>
      </trkpt>
      <trkpt lat="52.044371" lon="5.130542">
        <ele>1.153973</ele>
        <time>2026-08-15T09:54:36.835Z</time>
      </trkpt>
      <trkpt lat="52.044898" lon="5.128031">
        <ele>1.042417</ele>
        <time>2026-08-15T09:55:00.022Z</time>
      </trkpt>
      <trkpt lat="52.044940" lon="5.127833">
        <ele>1.033404</ele>
        <time>2026-08-15T09:55:02.010Z</time>
      </trkpt>
      <trkpt lat="52.045037" lon="5.127357">
        <ele>1.076633</ele>
        <time>2026-08-15T09:55:06.816Z</time>
      </trkpt>
      <trkpt lat="52.045460" lon="5.124826">
        <ele>1.512127</ele>
        <time>2026-08-15T09:55:32.613Z</time>
      </trkpt>
      <trkpt lat="52.045705" lon="5.123087">
        <ele>1.851229</ele>
        <time>2026-08-15T09:55:50.452Z</time>
      </trkpt>
      <trkpt lat="52.045826" lon="5.122440">
        <ele>1.979767</ele>
        <time>2026-08-15T09:55:57.219Z</time>
      </trkpt>
      <trkpt lat="52.046053" lon="5.121651">
        <ele>2.031600</ele>
        <time>2026-08-15T09:56:05.674Z</time>
      </trkpt>
      <trkpt lat="52.046105" lon="5.121521">
        <ele>2.018608</ele>
        <time>2026-08-15T09:56:07.133Z</time>
      </trkpt>
      <trkpt lat="52.046184" lon="5.121267">
        <ele>1.994764</ele>
        <time>2026-08-15T09:56:09.793Z</time>
      </trkpt>
      <trkpt lat="52.046417" lon="5.120571">
        <ele>1.928380</ele>
        <time>2026-08-15T09:56:16.776Z</time>
      </trkpt>
      <trkpt lat="52.046604" lon="5.120238">
        <ele>1.890604</ele>
        <time>2026-08-15T09:56:20.612Z</time>
      </trkpt>
      <trkpt lat="52.047140" lon="5.119424">
        <ele>1.749809</ele>
        <time>2026-08-15T09:56:30.579Z</time>
      </trkpt>
      <trkpt lat="52.047230" lon="5.119244">
        <ele>1.704484</ele>
        <time>2026-08-15T09:56:32.442Z</time>
      </trkpt>
      <trkpt lat="52.047338" lon="5.118982">
        <ele>1.642860</ele>
        <time>2026-08-15T09:56:34.977Z</time>
      </trkpt>
      <trkpt lat="52.047447" lon="5.118502">
        <ele>1.542890</ele>
        <time>2026-08-15T09:56:39.216Z</time>
      </trkpt>
      <trkpt lat="52.047565" lon="5.117811">
        <ele>1.402776</ele>
        <time>2026-08-15T09:56:45.482Z</time>
      </trkpt>
      <trkpt lat="52.047556" lon="5.117585">
        <ele>1.358528</ele>
        <time>2026-08-15T09:56:47.438Z</time>
      </trkpt>
      <trkpt lat="52.047489" lon="5.117438">
        <ele>1.322780</ele>
        <time>2026-08-15T09:56:49.023Z</time>
      </trkpt>
      <trkpt lat="52.047382" lon="5.117355">
        <ele>1.285118</ele>
        <time>2026-08-15T09:56:50.688Z</time>
      </trkpt>
      <trkpt lat="52.047189" lon="5.117381">
        <ele>1.250464</ele>
        <time>2026-08-15T09:56:53.377Z</time>
      </trkpt>
      <trkpt lat="52.046956" lon="5.117435">
        <ele>1.251785</ele>
        <time>2026-08-15T09:56:56.658Z</time>
      </trkpt>
      <trkpt lat="52.046760" lon="5.117471">
        <ele>1.252893</ele>
        <time>2026-08-15T09:56:59.458Z</time>
      </trkpt>
      <trkpt lat="52.046515" lon="5.117363">
        <ele>1.254318</ele>
        <time>2026-08-15T09:57:03.172Z</time>
      </trkpt>
      <trkpt lat="52.046442" lon="5.117333">
        <ele>1.254741</ele>
        <time>2026-08-15T09:57:04.326Z</time>
      </trkpt>
      <trkpt lat="52.046259" lon="5.117258">
        <ele>1.255801</ele>
        <time>2026-08-15T09:57:07.218Z</time>
      </trkpt>
      <trkpt lat="52.045929" lon="5.117117">
        <ele>1.257717</ele>
        <time>2026-08-15T09:57:12.400Z</time>
      </trkpt>
      <trkpt lat="52.045463" lon="5.116824">
        <ele>1.291231</ele>
        <time>2026-08-15T09:57:19.810Z</time>
      </trkpt>
      <trkpt lat="52.045244" lon="5.116616">
        <ele>1.395456</ele>
        <time>2026-08-15T09:57:23.792Z</time>
      </trkpt>
      <trkpt lat="52.044926" lon="5.116210">
        <ele>1.561608</ele>
        <time>2026-08-15T09:57:30.293Z</time>
      </trkpt>
      <trkpt lat="52.044639" lon="5.115695">
        <ele>1.737257</ele>
        <time>2026-08-15T09:57:37.428Z</time>
      </trkpt>
      <trkpt lat="52.044421" lon="5.115165">
        <ele>1.898408</ele>
        <time>2026-08-15T09:57:44.203Z</time>
      </trkpt>
      <trkpt lat="52.043867" lon="5.113064">
        <ele>2.685682</ele>
        <time>2026-08-15T09:58:08.862Z</time>
      </trkpt>
      <trkpt lat="52.043299" lon="5.110959">
        <ele>3.158054</ele>
        <time>2026-08-15T09:58:32.310Z</time>
      </trkpt>
      <trkpt lat="52.042308" lon="5.106998">
        <ele>2.989178</ele>
        <time>2026-08-15T09:59:10.114Z</time>
      </trkpt>
      <trkpt lat="52.042218" lon="5.106699">
        <ele>2.948316</ele>
        <time>2026-08-15T09:59:12.851Z</time>
      </trkpt>
      <trkpt lat="52.042010" lon="5.106049">
        <ele>2.751934</ele>
        <time>2026-08-15T09:59:18.880Z</time>
      </trkpt>
      <trkpt lat="52.041829" lon="5.105664">
        <ele>2.622055</ele>
        <time>2026-08-15T09:59:22.852Z</time>
      </trkpt>
      <trkpt lat="52.041585" lon="5.105264">
        <ele>2.471062</ele>
        <time>2026-08-15T09:59:27.405Z</time>
      </trkpt>
      <trkpt lat="52.041248" lon="5.104899">
        <ele>2.294611</ele>
        <time>2026-08-15T09:59:32.808Z</time>
      </trkpt>
      <trkpt lat="52.040882" lon="5.104605">
        <ele>2.123376</ele>
        <time>2026-08-15T09:59:38.342Z</time>
      </trkpt>
      <trkpt lat="52.040766" lon="5.104373">
        <ele>2.053176</ele>
        <time>2026-08-15T09:59:40.858Z</time>
      </trkpt>
      <trkpt lat="52.040752" lon="5.104284">
        <ele>2.031607</ele>
        <time>2026-08-15T09:59:41.626Z</time>
      </trkpt>
      <trkpt lat="52.040759" lon="5.102656">
        <ele>1.649346</ele>
        <time>2026-08-15T09:59:55.146Z</time>
      </trkpt>
      <trkpt lat="52.040782" lon="5.102236">
        <ele>1.550340</ele>
        <time>2026-08-15T09:59:58.598Z</time>
      </trkpt>
      <trkpt lat="52.040846" lon="5.101843">
        <ele>1.469111</ele>
        <time>2026-08-15T10:00:02.021Z</time>
      </trkpt>
      <trkpt lat="52.040986" lon="5.101379">
        <ele>1.407434</ele>
        <time>2026-08-15T10:00:06.515Z</time>
      </trkpt>
      <trkpt lat="52.041142" lon="5.101021">
        <ele>1.355076</ele>
        <time>2026-08-15T10:00:11.869Z</time>
      </trkpt>
      <trkpt lat="52.041179" lon="5.100942">
        <ele>1.343226</ele>
        <time>2026-08-15T10:00:12.752Z</time>
      </trkpt>
      <trkpt lat="52.041204" lon="5.100684">
        <ele>1.312057</ele>
        <time>2026-08-15T10:00:15.116Z</time>
      </trkpt>
      <trkpt lat="52.041597" lon="5.099833">
        <ele>1.185061</ele>
        <time>2026-08-15T10:00:24.112Z</time>
      </trkpt>
      <trkpt lat="52.041728" lon="5.099562">
        <ele>1.143928</ele>
        <time>2026-08-15T10:00:27.373Z</time>
      </trkpt>
      <trkpt lat="52.041765" lon="5.099433">
        <ele>1.141403</ele>
        <time>2026-08-15T10:00:28.596Z</time>
      </trkpt>
      <trkpt lat="52.041770" lon="5.099323">
        <ele>1.152322</ele>
        <time>2026-08-15T10:00:29.567Z</time>
      </trkpt>
      <trkpt lat="52.041783" lon="5.099297">
        <ele>1.155639</ele>
        <time>2026-08-15T10:00:29.835Z</time>
      </trkpt>
      <trkpt lat="52.041797" lon="5.099268">
        <ele>1.159289</ele>
        <time>2026-08-15T10:00:30.175Z</time>
      </trkpt>
      <trkpt lat="52.042015" lon="5.098809">
        <ele>1.216698</ele>
        <time>2026-08-15T10:00:35.393Z</time>
      </trkpt>
      <trkpt lat="52.042032" lon="5.098771">
        <ele>1.221349</ele>
        <time>2026-08-15T10:00:35.849Z</time>
      </trkpt>
      <trkpt lat="52.042143" lon="5.098711">
        <ele>1.240176</ele>
        <time>2026-08-15T10:00:37.563Z</time>
      </trkpt>
      <trkpt lat="52.042275" lon="5.098509">
        <ele>1.269352</ele>
        <time>2026-08-15T10:00:40.354Z</time>
      </trkpt>
      <trkpt lat="52.042195" lon="5.098420">
        <ele>1.284953</ele>
        <time>2026-08-15T10:00:41.802Z</time>
      </trkpt>
      <trkpt lat="52.042132" lon="5.098351">
        <ele>1.297179</ele>
        <time>2026-08-15T10:00:43.049Z</time>
      </trkpt>
      <trkpt lat="52.042021" lon="5.098604">
        <ele>1.327943</ele>
        <time>2026-08-15T10:00:46.067Z</time>
      </trkpt>
      <trkpt lat="52.041796" lon="5.098464">
        <ele>1.366718</ele>
        <time>2026-08-15T10:00:51.378Z</time>
      </trkpt>
      <trkpt lat="52.040919" lon="5.097747">
        <ele>1.309919</ele>
        <time>2026-08-15T10:01:07.387Z</time>
      </trkpt>
      <trkpt lat="52.039431" lon="5.096488">
        <ele>1.191333</ele>
        <time>2026-08-15T10:01:38.575Z</time>
      </trkpt>
      <trkpt lat="52.039220" lon="5.096315">
        <ele>1.236932</ele>
        <time>2026-08-15T10:01:43.225Z</time>
      </trkpt>
      <trkpt lat="52.038723" lon="5.095906">
        <ele>1.344418</ele>
        <time>2026-08-15T10:01:54.964Z</time>
      </trkpt>
      <trkpt lat="52.038087" lon="5.095422">
        <ele>1.573583</ele>
        <time>2026-08-15T10:02:11.751Z</time>
      </trkpt>
      <trkpt lat="52.037846" lon="5.095233">
        <ele>1.750868</ele>
        <time>2026-08-15T10:02:18.326Z</time>
      </trkpt>
      <trkpt lat="52.037667" lon="5.095080">
        <ele>1.884860</ele>
        <time>2026-08-15T10:02:23.245Z</time>
      </trkpt>
      <trkpt lat="52.037702" lon="5.094794">
        <ele>2.003709</ele>
        <time>2026-08-15T10:02:27.457Z</time>
      </trkpt>
      <trkpt lat="52.037714" lon="5.094700">
        <ele>2.042836</ele>
        <time>2026-08-15T10:02:28.813Z</time>
      </trkpt>
      <trkpt lat="52.037748" lon="5.094231">
        <ele>2.235308</ele>
        <time>2026-08-15T10:02:35.315Z</time>
      </trkpt>
      <trkpt lat="52.037823" lon="5.093266">
        <ele>2.631736</ele>
        <time>2026-08-15T10:02:48.518Z</time>
      </trkpt>
      <trkpt lat="52.037864" lon="5.092747">
        <ele>2.700289</ele>
        <time>2026-08-15T10:02:55.427Z</time>
      </trkpt>
      <trkpt lat="52.037913" lon="5.091933">
        <ele>2.805946</ele>
        <time>2026-08-15T10:03:05.531Z</time>
      </trkpt>
      <trkpt lat="52.037999" lon="5.091033">
        <ele>2.923605</ele>
        <time>2026-08-15T10:03:17.394Z</time>
      </trkpt>
      <trkpt lat="52.038011" lon="5.090907">
        <ele>2.940076</ele>
        <time>2026-08-15T10:03:19.153Z</time>
      </trkpt>
      <trkpt lat="52.038082" lon="5.090035">
        <ele>2.991388</ele>
        <time>2026-08-15T10:03:30.763Z</time>
      </trkpt>
      <trkpt lat="52.038150" lon="5.089213">
        <ele>2.942690</ele>
        <time>2026-08-15T10:03:41.097Z</time>
      </trkpt>
      <trkpt lat="52.038314" lon="5.087061">
        <ele>2.795802</ele>
        <time>2026-08-15T10:04:06.924Z</time>
      </trkpt>
      <trkpt lat="52.038350" lon="5.086653">
        <ele>2.751715</ele>
        <time>2026-08-15T10:04:11.678Z</time>
      </trkpt>
      <trkpt lat="52.038357" lon="5.086546">
        <ele>2.740205</ele>
        <time>2026-08-15T10:04:12.933Z</time>
      </trkpt>
      <trkpt lat="52.038377" lon="5.086308">
        <ele>2.714511</ele>
        <time>2026-08-15T10:04:15.767Z</time>
      </trkpt>
      <trkpt lat="52.038388" lon="5.086195">
        <ele>2.702274</ele>
        <time>2026-08-15T10:04:17.134Z</time>
      </trkpt>
      <trkpt lat="52.038410" lon="5.085596">
        <ele>2.638089</ele>
        <time>2026-08-15T10:04:24.440Z</time>
      </trkpt>
      <trkpt lat="52.038481" lon="5.084755">
        <ele>2.547290</ele>
        <time>2026-08-15T10:04:34.905Z</time>
      </trkpt>
      <trkpt lat="52.038563" lon="5.084070">
        <ele>2.477575</ele>
        <time>2026-08-15T10:04:43.233Z</time>
      </trkpt>
      <trkpt lat="52.038556" lon="5.083606">
        <ele>2.432480</ele>
        <time>2026-08-15T10:04:47.330Z</time>
      </trkpt>
      <trkpt lat="52.038720" lon="5.081511">
        <ele>2.235623</ele>
        <time>2026-08-15T10:05:05.696Z</time>
      </trkpt>
      <trkpt lat="52.038781" lon="5.080583">
        <ele>2.195179</ele>
        <time>2026-08-15T10:05:14.124Z</time>
      </trkpt>
      <trkpt lat="52.038854" lon="5.079860">
        <ele>2.163428</ele>
        <time>2026-08-15T10:05:20.907Z</time>
      </trkpt>
      <trkpt lat="52.038910" lon="5.079165">
        <ele>2.133053</ele>
        <time>2026-08-15T10:05:27.395Z</time>
      </trkpt>
      <trkpt lat="52.039046" lon="5.077659">
        <ele>1.830189</ele>
        <time>2026-08-15T10:05:40.395Z</time>
      </trkpt>
      <trkpt lat="52.039083" lon="5.077214">
        <ele>1.715730</ele>
        <time>2026-08-15T10:05:43.978Z</time>
      </trkpt>
      <trkpt lat="52.039102" lon="5.076965">
        <ele>1.651775</ele>
        <time>2026-08-15T10:05:45.959Z</time>
      </trkpt>
      <trkpt lat="52.039177" lon="5.076144">
        <ele>1.440214</ele>
        <time>2026-08-15T10:05:52.630Z</time>
      </trkpt>
      <trkpt lat="52.039249" lon="5.075302">
        <ele>1.311769</ele>
        <time>2026-08-15T10:05:59.667Z</time>
      </trkpt>
      <trkpt lat="52.039313" lon="5.074352">
        <ele>1.214622</ele>
        <time>2026-08-15T10:06:07.931Z</time>
      </trkpt>
      <trkpt lat="52.039317" lon="5.074231">
        <ele>1.202304</ele>
        <time>2026-08-15T10:06:09.001Z</time>
      </trkpt>
      <trkpt lat="52.039318" lon="5.074156">
        <ele>1.194679</ele>
        <time>2026-08-15T10:06:09.677Z</time>
      </trkpt>
      <trkpt lat="52.039325" lon="5.073960">
        <ele>1.174721</ele>
        <time>2026-08-15T10:06:11.456Z</time>
      </trkpt>
      <trkpt lat="52.039376" lon="5.073304">
        <ele>1.107507</ele>
        <time>2026-08-15T10:06:17.630Z</time>
      </trkpt>
      <trkpt lat="52.039461" lon="5.072335">
        <ele>1.074507</ele>
        <time>2026-08-15T10:06:26.686Z</time>
      </trkpt>
      <trkpt lat="52.039474" lon="5.072210">
        <ele>1.074793</ele>
        <time>2026-08-15T10:06:27.843Z</time>
      </trkpt>
      <trkpt lat="52.039570" lon="5.071172">
        <ele>1.077157</ele>
        <time>2026-08-15T10:06:37.511Z</time>
      </trkpt>
      <trkpt lat="52.039614" lon="5.070678">
        <ele>1.078281</ele>
        <time>2026-08-15T10:06:42.129Z</time>
      </trkpt>
      <trkpt lat="52.039633" lon="5.070430">
        <ele>1.078843</ele>
        <time>2026-08-15T10:06:44.434Z</time>
      </trkpt>
      <trkpt lat="52.039680" lon="5.069814">
        <ele>1.057966</ele>
        <time>2026-08-15T10:06:50.037Z</time>
      </trkpt>
      <trkpt lat="52.039697" lon="5.069596">
        <ele>1.039789</ele>
        <time>2026-08-15T10:06:51.954Z</time>
      </trkpt>
      <trkpt lat="52.039757" lon="5.068778">
        <ele>0.971648</ele>
        <time>2026-08-15T10:06:58.988Z</time>
      </trkpt>
      <trkpt lat="52.039790" lon="5.068325">
        <ele>0.933916</ele>
        <time>2026-08-15T10:07:02.838Z</time>
      </trkpt>
      <trkpt lat="52.039820" lon="5.068092">
        <ele>0.914226</ele>
        <time>2026-08-15T10:07:04.843Z</time>
      </trkpt>
      <trkpt lat="52.039824" lon="5.067788">
        <ele>0.889074</ele>
        <time>2026-08-15T10:07:07.398Z</time>
      </trkpt>
      <trkpt lat="52.039923" lon="5.066916">
        <ele>0.936407</ele>
        <time>2026-08-15T10:07:15.035Z</time>
      </trkpt>
      <trkpt lat="52.039960" lon="5.066715">
        <ele>1.014011</ele>
        <time>2026-08-15T10:07:17.240Z</time>
      </trkpt>
      <trkpt lat="52.040058" lon="5.066442">
        <ele>1.130927</ele>
        <time>2026-08-15T10:07:20.799Z</time>
      </trkpt>
      <trkpt lat="52.040109" lon="5.066373">
        <ele>1.170825</ele>
        <time>2026-08-15T10:07:22.029Z</time>
      </trkpt>
      <trkpt lat="52.040209" lon="5.066317">
        <ele>1.234425</ele>
        <time>2026-08-15T10:07:24.007Z</time>
      </trkpt>
      <trkpt lat="52.040348" lon="5.066309">
        <ele>1.318062</ele>
        <time>2026-08-15T10:07:26.625Z</time>
      </trkpt>
      <trkpt lat="52.040403" lon="5.065874">
        <ele>1.482323</ele>
        <time>2026-08-15T10:07:31.801Z</time>
      </trkpt>
      <trkpt lat="52.040420" lon="5.065555">
        <ele>1.600757</ele>
        <time>2026-08-15T10:07:35.593Z</time>
      </trkpt>
      <trkpt lat="52.040460" lon="5.065327">
        <ele>1.688452</ele>
        <time>2026-08-15T10:07:38.385Z</time>
      </trkpt>
      <trkpt lat="52.040544" lon="5.065085">
        <ele>1.791231</ele>
        <time>2026-08-15T10:07:41.368Z</time>
      </trkpt>
      <trkpt lat="52.040671" lon="5.064733">
        <ele>1.909443</ele>
        <time>2026-08-15T10:07:45.407Z</time>
      </trkpt>
      <trkpt lat="52.040984" lon="5.063807">
        <ele>1.739708</ele>
        <time>2026-08-15T10:07:55.624Z</time>
      </trkpt>
      <trkpt lat="52.041105" lon="5.063438">
        <ele>1.672535</ele>
        <time>2026-08-15T10:07:58.872Z</time>
      </trkpt>
      <trkpt lat="52.041234" lon="5.063067">
        <ele>1.604074</ele>
        <time>2026-08-15T10:08:02.140Z</time>
      </trkpt>
      <trkpt lat="52.041277" lon="5.062943">
        <ele>1.581207</ele>
        <time>2026-08-15T10:08:03.254Z</time>
      </trkpt>
      <trkpt lat="52.041301" lon="5.062875">
        <ele>1.568613</ele>
        <time>2026-08-15T10:08:03.845Z</time>
      </trkpt>
      <trkpt lat="52.041318" lon="5.062825">
        <ele>1.559435</ele>
        <time>2026-08-15T10:08:04.276Z</time>
      </trkpt>
      <trkpt lat="52.041354" lon="5.062719">
        <ele>1.539984</ele>
        <time>2026-08-15T10:08:05.230Z</time>
      </trkpt>
      <trkpt lat="52.041830" lon="5.061306">
        <ele>1.213529</ele>
        <time>2026-08-15T10:08:18.463Z</time>
      </trkpt>
      <trkpt lat="52.042398" lon="5.059780">
        <ele>0.811905</ele>
        <time>2026-08-15T10:08:33.664Z</time>
      </trkpt>
      <trkpt lat="52.042806" lon="5.058695">
        <ele>0.720648</ele>
        <time>2026-08-15T10:08:44.699Z</time>
      </trkpt>
      <trkpt lat="52.043346" lon="5.057263">
        <ele>0.620231</ele>
        <time>2026-08-15T10:08:59.900Z</time>
      </trkpt>
      <trkpt lat="52.043487" lon="5.056905">
        <ele>0.619517</ele>
        <time>2026-08-15T10:09:03.880Z</time>
      </trkpt>
      <trkpt lat="52.043908" lon="5.055835">
        <ele>0.630698</ele>
        <time>2026-08-15T10:09:15.630Z</time>
      </trkpt>
      <trkpt lat="52.044019" lon="5.055545">
        <ele>0.633704</ele>
        <time>2026-08-15T10:09:18.753Z</time>
      </trkpt>
      <trkpt lat="52.044487" lon="5.054323">
        <ele>0.664313</ele>
        <time>2026-08-15T10:09:31.629Z</time>
      </trkpt>
      <trkpt lat="52.044549" lon="5.054164">
        <ele>0.672903</ele>
        <time>2026-08-15T10:09:33.358Z</time>
      </trkpt>
      <trkpt lat="52.044764" lon="5.053617">
        <ele>0.702522</ele>
        <time>2026-08-15T10:09:39.334Z</time>
      </trkpt>
      <trkpt lat="52.044992" lon="5.052948">
        <ele>0.737420</ele>
        <time>2026-08-15T10:09:46.541Z</time>
      </trkpt>
      <trkpt lat="52.045118" lon="5.052231">
        <ele>0.771443</ele>
        <time>2026-08-15T10:09:53.728Z</time>
      </trkpt>
      <trkpt lat="52.045136" lon="5.051888">
        <ele>0.757077</ele>
        <time>2026-08-15T10:09:57.039Z</time>
      </trkpt>
      <trkpt lat="52.045114" lon="5.050542">
        <ele>0.659656</ele>
        <time>2026-08-15T10:10:09.513Z</time>
      </trkpt>
      <trkpt lat="52.045207" lon="5.048869">
        <ele>0.498482</ele>
        <time>2026-08-15T10:10:23.515Z</time>
      </trkpt>
      <trkpt lat="52.045270" lon="5.048492">
        <ele>0.426815</ele>
        <time>2026-08-15T10:10:26.662Z</time>
      </trkpt>
      <trkpt lat="52.045367" lon="5.048235">
        <ele>0.371499</ele>
        <time>2026-08-15T10:10:29.130Z</time>
      </trkpt>
      <trkpt lat="52.045541" lon="5.047968">
        <ele>0.300137</ele>
        <time>2026-08-15T10:10:32.356Z</time>
      </trkpt>
      <trkpt lat="52.045822" lon="5.047666">
        <ele>0.199668</ele>
        <time>2026-08-15T10:10:36.991Z</time>
      </trkpt>
      <trkpt lat="52.045852" lon="5.047634">
        <ele>0.188966</ele>
        <time>2026-08-15T10:10:37.495Z</time>
      </trkpt>
      <trkpt lat="52.046002" lon="5.047453">
        <ele>0.133251</ele>
        <time>2026-08-15T10:10:40.132Z</time>
      </trkpt>
      <trkpt lat="52.046177" lon="5.047146">
        <ele>0.056464</ele>
        <time>2026-08-15T10:10:43.836Z</time>
      </trkpt>
      <trkpt lat="52.046703" lon="5.045533">
        <ele>-0.168837</ele>
        <time>2026-08-15T10:11:00.569Z</time>
      </trkpt>
      <trkpt lat="52.047169" lon="5.044038">
        <ele>-0.303866</ele>
        <time>2026-08-15T10:11:14.316Z</time>
      </trkpt>
      <trkpt lat="52.047322" lon="5.043586">
        <ele>-0.287949</ele>
        <time>2026-08-15T10:11:18.958Z</time>
      </trkpt>
      <trkpt lat="52.047650" lon="5.042760">
        <ele>-0.257616</ele>
        <time>2026-08-15T10:11:28.268Z</time>
      </trkpt>
      <trkpt lat="52.047815" lon="5.042308">
        <ele>-0.241400</ele>
        <time>2026-08-15T10:11:33.213Z</time>
      </trkpt>
      <trkpt lat="52.047907" lon="5.041915">
        <ele>-0.228428</ele>
        <time>2026-08-15T10:11:37.286Z</time>
      </trkpt>
      <trkpt lat="52.048243" lon="5.040324">
        <ele>-0.123510</ele>
        <time>2026-08-15T10:11:54.752Z</time>
      </trkpt>
      <trkpt lat="52.048548" lon="5.039213">
        <ele>-0.046204</ele>
        <time>2026-08-15T10:12:05.224Z</time>
      </trkpt>
      <trkpt lat="52.048741" lon="5.038405">
        <ele>-0.151824</ele>
        <time>2026-08-15T10:12:12.378Z</time>
      </trkpt>
      <trkpt lat="52.048882" lon="5.037421">
        <ele>-0.295568</ele>
        <time>2026-08-15T10:12:20.843Z</time>
      </trkpt>
      <trkpt lat="52.048952" lon="5.037102">
        <ele>-0.343755</ele>
        <time>2026-08-15T10:12:23.746Z</time>
      </trkpt>
      <trkpt lat="52.049091" lon="5.036651">
        <ele>-0.415525</ele>
        <time>2026-08-15T10:12:28.151Z</time>
      </trkpt>
      <trkpt lat="52.049267" lon="5.036200">
        <ele>-0.451844</ele>
        <time>2026-08-15T10:12:32.937Z</time>
      </trkpt>
      <trkpt lat="52.049417" lon="5.035911">
        <ele>-0.444105</ele>
        <time>2026-08-15T10:12:36.481Z</time>
      </trkpt>
      <trkpt lat="52.049903" lon="5.035183">
        <ele>-0.422116</ele>
        <time>2026-08-15T10:12:47.054Z</time>
      </trkpt>
      <trkpt lat="52.050298" lon="5.034620">
        <ele>-0.404637</ele>
        <time>2026-08-15T10:12:54.784Z</time>
      </trkpt>
      <trkpt lat="52.050534" lon="5.034282">
        <ele>-0.421030</ele>
        <time>2026-08-15T10:12:59.087Z</time>
      </trkpt>
      <trkpt lat="52.051206" lon="5.033317">
        <ele>-0.676556</ele>
        <time>2026-08-15T10:13:11.876Z</time>
      </trkpt>
      <trkpt lat="52.051573" lon="5.032791">
        <ele>-0.815989</ele>
        <time>2026-08-15T10:13:18.406Z</time>
      </trkpt>
      <trkpt lat="52.051797" lon="5.032463">
        <ele>-0.901902</ele>
        <time>2026-08-15T10:13:22.298Z</time>
      </trkpt>
      <trkpt lat="52.052038" lon="5.032114">
        <ele>-0.843221</ele>
        <time>2026-08-15T10:13:26.789Z</time>
      </trkpt>
      <trkpt lat="52.052512" lon="5.031431">
        <ele>-0.700949</ele>
        <time>2026-08-15T10:13:36.545Z</time>
      </trkpt>
      <trkpt lat="52.053686" lon="5.029736">
        <ele>-0.335274</ele>
        <time>2026-08-15T10:14:03.269Z</time>
      </trkpt>
      <trkpt lat="52.054485" lon="5.028576">
        <ele>-0.074783</ele>
        <time>2026-08-15T10:14:20.090Z</time>
      </trkpt>
      <trkpt lat="52.055312" lon="5.027364">
        <ele>-0.450213</ele>
        <time>2026-08-15T10:14:34.805Z</time>
      </trkpt>
      <trkpt lat="52.055532" lon="5.027024">
        <ele>-0.557001</ele>
        <time>2026-08-15T10:14:38.759Z</time>
      </trkpt>
      <trkpt lat="52.055729" lon="5.026591">
        <ele>-0.673541</ele>
        <time>2026-08-15T10:14:43.220Z</time>
      </trkpt>
      <trkpt lat="52.055829" lon="5.026233">
        <ele>-0.672752</ele>
        <time>2026-08-15T10:14:46.623Z</time>
      </trkpt>
      <trkpt lat="52.055900" lon="5.025739">
        <ele>-0.618926</ele>
        <time>2026-08-15T10:14:51.259Z</time>
      </trkpt>
      <trkpt lat="52.055898" lon="5.025272">
        <ele>-0.569377</ele>
        <time>2026-08-15T10:14:55.701Z</time>
      </trkpt>
      <trkpt lat="52.055799" lon="5.024059">
        <ele>-0.439550</ele>
        <time>2026-08-15T10:15:07.810Z</time>
      </trkpt>
      <trkpt lat="52.055697" lon="5.022819">
        <ele>-0.332682</ele>
        <time>2026-08-15T10:15:20.634Z</time>
      </trkpt>
      <trkpt lat="52.055705" lon="5.022515">
        <ele>-0.310360</ele>
        <time>2026-08-15T10:15:23.678Z</time>
      </trkpt>
      <trkpt lat="52.055742" lon="5.022241">
        <ele>-0.289779</ele>
        <time>2026-08-15T10:15:26.487Z</time>
      </trkpt>
      <trkpt lat="52.055811" lon="5.022002">
        <ele>-0.270409</ele>
        <time>2026-08-15T10:15:29.051Z</time>
      </trkpt>
      <trkpt lat="52.056000" lon="5.021568">
        <ele>-0.231394</ele>
        <time>2026-08-15T10:15:33.962Z</time>
      </trkpt>
      <trkpt lat="52.056203" lon="5.021287">
        <ele>-0.199589</ele>
        <time>2026-08-15T10:15:37.681Z</time>
      </trkpt>
      <trkpt lat="52.056461" lon="5.021061">
        <ele>-0.217543</ele>
        <time>2026-08-15T10:15:41.808Z</time>
      </trkpt>
      <trkpt lat="52.057682" lon="5.020091">
        <ele>-0.806016</ele>
        <time>2026-08-15T10:15:59.612Z</time>
      </trkpt>
      <trkpt lat="52.058780" lon="5.019221">
        <ele>-0.848819</ele>
        <time>2026-08-15T10:16:16.726Z</time>
      </trkpt>
      <trkpt lat="52.060759" lon="5.017694">
        <ele>-0.267634</ele>
        <time>2026-08-15T10:16:53.659Z</time>
      </trkpt>
      <trkpt lat="52.060974" lon="5.017513">
        <ele>-0.178033</ele>
        <time>2026-08-15T10:16:57.397Z</time>
      </trkpt>
      <trkpt lat="52.061019" lon="5.017462">
        <ele>-0.157734</ele>
        <time>2026-08-15T10:16:58.217Z</time>
      </trkpt>
      <trkpt lat="52.061222" lon="5.017029">
        <ele>-0.080797</ele>
        <time>2026-08-15T10:17:03.184Z</time>
      </trkpt>
      <trkpt lat="52.060653" lon="5.016344">
        <ele>-0.143936</ele>
        <time>2026-08-15T10:17:13.218Z</time>
      </trkpt>
      <trkpt lat="52.060084" lon="5.015739">
        <ele>-0.204568</ele>
        <time>2026-08-15T10:17:22.700Z</time>
      </trkpt>
      <trkpt lat="52.059188" lon="5.014884">
        <ele>-0.143023</ele>
        <time>2026-08-15T10:17:38.393Z</time>
      </trkpt>
      <trkpt lat="52.058535" lon="5.014343">
        <ele>-0.053619</ele>
        <time>2026-08-15T10:17:49.865Z</time>
      </trkpt>
      <trkpt lat="52.056660" lon="5.012689">
        <ele>0.309680</ele>
        <time>2026-08-15T10:18:23.421Z</time>
      </trkpt>
      <trkpt lat="52.056284" lon="5.012285">
        <ele>0.315123</ele>
        <time>2026-08-15T10:18:29.877Z</time>
      </trkpt>
      <trkpt lat="52.056192" lon="5.012113">
        <ele>0.316751</ele>
        <time>2026-08-15T10:18:31.882Z</time>
      </trkpt>
      <trkpt lat="52.056134" lon="5.011907">
        <ele>0.318369</ele>
        <time>2026-08-15T10:18:33.883Z</time>
      </trkpt>
      <trkpt lat="52.056117" lon="5.011749">
        <ele>0.319515</ele>
        <time>2026-08-15T10:18:35.305Z</time>
      </trkpt>
      <trkpt lat="52.056157" lon="5.010948">
        <ele>0.325255</ele>
        <time>2026-08-15T10:18:42.607Z</time>
      </trkpt>
      <trkpt lat="52.056173" lon="5.010795">
        <ele>0.326364</ele>
        <time>2026-08-15T10:18:44.057Z</time>
      </trkpt>
      <trkpt lat="52.056253" lon="5.009909">
        <ele>0.332492</ele>
        <time>2026-08-15T10:18:52.468Z</time>
      </trkpt>
      <trkpt lat="52.056268" lon="5.009336">
        <ele>0.336031</ele>
        <time>2026-08-15T10:18:57.792Z</time>
      </trkpt>
      <trkpt lat="52.056229" lon="5.008497">
        <ele>0.341223</ele>
        <time>2026-08-15T10:19:05.648Z</time>
      </trkpt>
      <trkpt lat="52.056145" lon="5.007104">
        <ele>0.351569</ele>
        <time>2026-08-15T10:19:18.242Z</time>
      </trkpt>
      <trkpt lat="52.055987" lon="5.006550">
        <ele>0.361685</ele>
        <time>2026-08-15T10:19:23.433Z</time>
      </trkpt>
      <trkpt lat="52.055971" lon="5.006459">
        <ele>0.363253</ele>
        <time>2026-08-15T10:19:24.551Z</time>
      </trkpt>
      <trkpt lat="52.055957" lon="5.006282">
        <ele>0.366210</ele>
        <time>2026-08-15T10:19:26.115Z</time>
      </trkpt>
      <trkpt lat="52.056001" lon="5.005500">
        <ele>0.379218</ele>
        <time>2026-08-15T10:19:33.342Z</time>
      </trkpt>
      <trkpt lat="52.055964" lon="5.004853">
        <ele>0.389982</ele>
        <time>2026-08-15T10:19:39.641Z</time>
      </trkpt>
      <trkpt lat="52.055850" lon="5.004310">
        <ele>0.426444</ele>
        <time>2026-08-15T10:19:45.189Z</time>
      </trkpt>
      <trkpt lat="52.055265" lon="5.002735">
        <ele>0.832893</ele>
        <time>2026-08-15T10:20:03.640Z</time>
      </trkpt>
      <trkpt lat="52.055136" lon="5.002233">
        <ele>0.953075</ele>
        <time>2026-08-15T10:20:09.128Z</time>
      </trkpt>
      <trkpt lat="52.054743" lon="5.000077">
        <ele>1.199057</ele>
        <time>2026-08-15T10:20:31.145Z</time>
      </trkpt>
      <trkpt lat="52.054614" lon="4.999499">
        <ele>1.251072</ele>
        <time>2026-08-15T10:20:36.771Z</time>
      </trkpt>
      <trkpt lat="52.054617" lon="4.999386">
        <ele>1.260640</ele>
        <time>2026-08-15T10:20:37.791Z</time>
      </trkpt>
      <trkpt lat="52.054568" lon="4.999093">
        <ele>1.286326</ele>
        <time>2026-08-15T10:20:40.499Z</time>
      </trkpt>
      <trkpt lat="52.054555" lon="4.999029">
        <ele>1.288798</ele>
        <time>2026-08-15T10:20:41.094Z</time>
      </trkpt>
      <trkpt lat="52.054537" lon="4.998913">
        <ele>1.270617</ele>
        <time>2026-08-15T10:20:42.157Z</time>
      </trkpt>
      <trkpt lat="52.054593" lon="4.998278">
        <ele>1.173129</ele>
        <time>2026-08-15T10:20:47.709Z</time>
      </trkpt>
      <trkpt lat="52.054632" lon="4.992198">
        <ele>0.198057</ele>
        <time>2026-08-15T10:21:39.508Z</time>
      </trkpt>
      <trkpt lat="52.054636" lon="4.991959">
        <ele>0.160051</ele>
        <time>2026-08-15T10:21:41.465Z</time>
      </trkpt>
      <trkpt lat="52.054652" lon="4.991056">
        <ele>0.016450</ele>
        <time>2026-08-15T10:21:48.970Z</time>
      </trkpt>
      <trkpt lat="52.054647" lon="4.990647">
        <ele>-0.048578</ele>
        <time>2026-08-15T10:21:52.428Z</time>
      </trkpt>
      <trkpt lat="52.054723" lon="4.990644">
        <ele>-0.068230</ele>
        <time>2026-08-15T10:21:53.930Z</time>
      </trkpt>
      <trkpt lat="52.054786" lon="4.990635">
        <ele>-0.084579</ele>
        <time>2026-08-15T10:21:55.151Z</time>
      </trkpt>
      <trkpt lat="52.054810" lon="4.990404">
        <ele>-0.098050</ele>
        <time>2026-08-15T10:21:57.968Z</time>
      </trkpt>
      <trkpt lat="52.057008" lon="4.990055">
        <ele>0.197443</ele>
        <time>2026-08-15T10:22:44.591Z</time>
      </trkpt>
      <trkpt lat="52.056970" lon="4.989575">
        <ele>0.207644</ele>
        <time>2026-08-15T10:22:48.965Z</time>
      </trkpt>
      <trkpt lat="52.056810" lon="4.988896">
        <ele>0.222972</ele>
        <time>2026-08-15T10:22:55.535Z</time>
      </trkpt>
      <trkpt lat="52.056757" lon="4.988622">
        <ele>0.229026</ele>
        <time>2026-08-15T10:22:58.143Z</time>
      </trkpt>
      <trkpt lat="52.056690" lon="4.987899">
        <ele>0.251808</ele>
        <time>2026-08-15T10:23:04.799Z</time>
      </trkpt>
      <trkpt lat="52.056680" lon="4.987006">
        <ele>0.374989</ele>
        <time>2026-08-15T10:23:13.236Z</time>
      </trkpt>
      <trkpt lat="52.056705" lon="4.986771">
        <ele>0.407882</ele>
        <time>2026-08-15T10:23:15.538Z</time>
      </trkpt>
      <trkpt lat="52.056761" lon="4.986513">
        <ele>0.445616</ele>
        <time>2026-08-15T10:23:18.266Z</time>
      </trkpt>
      <trkpt lat="52.056912" lon="4.986066">
        <ele>0.515957</ele>
        <time>2026-08-15T10:23:23.576Z</time>
      </trkpt>
      <trkpt lat="52.056961" lon="4.985809">
        <ele>0.553066</ele>
        <time>2026-08-15T10:23:26.369Z</time>
      </trkpt>
      <trkpt lat="52.056984" lon="4.985601">
        <ele>0.582213</ele>
        <time>2026-08-15T10:23:28.446Z</time>
      </trkpt>
      <trkpt lat="52.057015" lon="4.984209">
        <ele>0.559465</ele>
        <time>2026-08-15T10:23:41.109Z</time>
      </trkpt>
      <trkpt lat="52.057004" lon="4.983921">
        <ele>0.532343</ele>
        <time>2026-08-15T10:23:43.603Z</time>
      </trkpt>
      <trkpt lat="52.057025" lon="4.983649">
        <ele>0.506576</ele>
        <time>2026-08-15T10:23:45.990Z</time>
      </trkpt>
      <trkpt lat="52.057125" lon="4.982926">
        <ele>0.436922</ele>
        <time>2026-08-15T10:23:52.340Z</time>
      </trkpt>
      <trkpt lat="52.057168" lon="4.982446">
        <ele>0.391330</ele>
        <time>2026-08-15T10:23:56.397Z</time>
      </trkpt>
      <trkpt lat="52.057187" lon="4.981994">
        <ele>0.345859</ele>
        <time>2026-08-15T10:24:00.230Z</time>
      </trkpt>
      <trkpt lat="52.057294" lon="4.981157">
        <ele>0.255353</ele>
        <time>2026-08-15T10:24:07.819Z</time>
      </trkpt>
      <trkpt lat="52.057298" lon="4.980582">
        <ele>0.194476</ele>
        <time>2026-08-15T10:24:12.954Z</time>
      </trkpt>
      <trkpt lat="52.057140" lon="4.979765">
        <ele>0.103805</ele>
        <time>2026-08-15T10:24:20.391Z</time>
      </trkpt>
      <trkpt lat="52.057044" lon="4.979494">
        <ele>0.070694</ele>
        <time>2026-08-15T10:24:23.098Z</time>
      </trkpt>
      <trkpt lat="52.056770" lon="4.978874">
        <ele>0.009508</ele>
        <time>2026-08-15T10:24:29.684Z</time>
      </trkpt>
      <trkpt lat="52.056725" lon="4.978495">
        <ele>-0.020214</ele>
        <time>2026-08-15T10:24:33.024Z</time>
      </trkpt>
      <trkpt lat="52.056699" lon="4.978155">
        <ele>-0.046596</ele>
        <time>2026-08-15T10:24:36.013Z</time>
      </trkpt>
      <trkpt lat="52.056270" lon="4.976736">
        <ele>-0.173114</ele>
        <time>2026-08-15T10:24:50.351Z</time>
      </trkpt>
      <trkpt lat="52.056133" lon="4.976156">
        <ele>-0.266278</ele>
        <time>2026-08-15T10:24:55.835Z</time>
      </trkpt>
      <trkpt lat="52.055874" lon="4.975492">
        <ele>-0.384184</ele>
        <time>2026-08-15T10:25:02.423Z</time>
      </trkpt>
      <trkpt lat="52.055774" lon="4.975290">
        <ele>-0.423070</ele>
        <time>2026-08-15T10:25:04.623Z</time>
      </trkpt>
      <trkpt lat="52.055349" lon="4.974460">
        <ele>-0.585027</ele>
        <time>2026-08-15T10:25:13.892Z</time>
      </trkpt>
      <trkpt lat="52.054780" lon="4.973350">
        <ele>-0.492006</ele>
        <time>2026-08-15T10:25:26.394Z</time>
      </trkpt>
      <trkpt lat="52.054708" lon="4.973085">
        <ele>-0.468101</ele>
        <time>2026-08-15T10:25:29.296Z</time>
      </trkpt>
      <trkpt lat="52.054690" lon="4.972820">
        <ele>-0.446102</ele>
        <time>2026-08-15T10:25:32.106Z</time>
      </trkpt>
      <trkpt lat="52.054706" lon="4.972686">
        <ele>-0.434839</ele>
        <time>2026-08-15T10:25:33.513Z</time>
      </trkpt>
      <trkpt lat="52.054760" lon="4.972470">
        <ele>-0.415600</ele>
        <time>2026-08-15T10:25:35.934Z</time>
      </trkpt>
      <trkpt lat="52.055006" lon="4.971975">
        <ele>-0.363085</ele>
        <time>2026-08-15T10:25:42.440Z</time>
      </trkpt>
      <trkpt lat="52.055329" lon="4.971382">
        <ele>-0.338002</ele>
        <time>2026-08-15T10:25:50.238Z</time>
      </trkpt>
      <trkpt lat="52.055856" lon="4.970393">
        <ele>-0.299210</ele>
        <time>2026-08-15T10:26:02.691Z</time>
      </trkpt>
      <trkpt lat="52.056320" lon="4.969230">
        <ele>-0.386261</ele>
        <time>2026-08-15T10:26:14.141Z</time>
      </trkpt>
      <trkpt lat="52.056529" lon="4.968611">
        <ele>-0.535476</ele>
        <time>2026-08-15T10:26:19.913Z</time>
      </trkpt>
      <trkpt lat="52.056790" lon="4.967390">
        <ele>-0.808615</ele>
        <time>2026-08-15T10:26:30.427Z</time>
      </trkpt>
      <trkpt lat="52.057018" lon="4.966005">
        <ele>-0.637132</ele>
        <time>2026-08-15T10:26:43.867Z</time>
      </trkpt>
      <trkpt lat="52.057049" lon="4.965304">
        <ele>-0.464809</ele>
        <time>2026-08-15T10:26:51.128Z</time>
      </trkpt>
      <trkpt lat="52.057040" lon="4.964520">
        <ele>-0.272547</ele>
        <time>2026-08-15T10:26:59.673Z</time>
      </trkpt>
      <trkpt lat="52.057010" lon="4.964130">
        <ele>-0.176177</ele>
        <time>2026-08-15T10:27:04.157Z</time>
      </trkpt>
      <trkpt lat="52.056973" lon="4.963794">
        <ele>-0.115562</ele>
        <time>2026-08-15T10:27:07.969Z</time>
      </trkpt>
      <trkpt lat="52.056897" lon="4.963456">
        <ele>-0.052081</ele>
        <time>2026-08-15T10:27:11.709Z</time>
      </trkpt>
      <trkpt lat="52.056597" lon="4.962454">
        <ele>0.144499</ele>
        <time>2026-08-15T10:27:22.629Z</time>
      </trkpt>
      <trkpt lat="52.056570" lon="4.962200">
        <ele>0.189967</ele>
        <time>2026-08-15T10:27:25.042Z</time>
      </trkpt>
      <trkpt lat="52.056621" lon="4.961967">
        <ele>0.233592</ele>
        <time>2026-08-15T10:27:27.310Z</time>
      </trkpt>
      <trkpt lat="52.056347" lon="4.961714">
        <ele>0.323979</ele>
        <time>2026-08-15T10:27:31.905Z</time>
      </trkpt>
      <trkpt lat="52.056185" lon="4.961493">
        <ele>0.334013</ele>
        <time>2026-08-15T10:27:34.954Z</time>
      </trkpt>
      <trkpt lat="52.056075" lon="4.961284">
        <ele>0.325931</ele>
        <time>2026-08-15T10:27:37.356Z</time>
      </trkpt>
      <trkpt lat="52.055398" lon="4.959620">
        <ele>0.267308</ele>
        <time>2026-08-15T10:27:55.268Z</time>
      </trkpt>
      <trkpt lat="52.054995" lon="4.958495">
        <ele>0.307542</ele>
        <time>2026-08-15T10:28:07.374Z</time>
      </trkpt>
      <trkpt lat="52.054639" lon="4.957262">
        <ele>0.387210</ele>
        <time>2026-08-15T10:28:20.304Z</time>
      </trkpt>
      <trkpt lat="52.054626" lon="4.957215">
        <ele>0.390224</ele>
        <time>2026-08-15T10:28:20.785Z</time>
      </trkpt>
      <trkpt lat="52.054627" lon="4.957029">
        <ele>0.401103</ele>
        <time>2026-08-15T10:28:22.544Z</time>
      </trkpt>
      <trkpt lat="52.054586" lon="4.956758">
        <ele>0.417425</ele>
        <time>2026-08-15T10:28:25.164Z</time>
      </trkpt>
      <trkpt lat="52.054529" lon="4.956499">
        <ele>0.419483</ele>
        <time>2026-08-15T10:28:27.731Z</time>
      </trkpt>
      <trkpt lat="52.054468" lon="4.956415">
        <ele>0.412142</ele>
        <time>2026-08-15T10:28:28.926Z</time>
      </trkpt>
      <trkpt lat="52.054349" lon="4.956016">
        <ele>0.387097</ele>
        <time>2026-08-15T10:28:32.939Z</time>
      </trkpt>
      <trkpt lat="52.054266" lon="4.955746">
        <ele>0.370049</ele>
        <time>2026-08-15T10:28:35.618Z</time>
      </trkpt>
      <trkpt lat="52.054044" lon="4.955042">
        <ele>0.325366</ele>
        <time>2026-08-15T10:28:42.463Z</time>
      </trkpt>
      <trkpt lat="52.053725" lon="4.954309">
        <ele>0.274649</ele>
        <time>2026-08-15T10:28:50.322Z</time>
      </trkpt>
      <trkpt lat="52.053606" lon="4.954082">
        <ele>0.265028</ele>
        <time>2026-08-15T10:28:52.978Z</time>
      </trkpt>
      <trkpt lat="52.053344" lon="4.953682">
        <ele>0.302636</ele>
        <time>2026-08-15T10:28:58.234Z</time>
      </trkpt>
      <trkpt lat="52.051885" lon="4.952056">
        <ele>0.462467</ele>
        <time>2026-08-15T10:29:25.691Z</time>
      </trkpt>
      <trkpt lat="52.051764" lon="4.951863">
        <ele>0.468510</ele>
        <time>2026-08-15T10:29:28.333Z</time>
      </trkpt>
      <trkpt lat="52.051675" lon="4.951564">
        <ele>0.475794</ele>
        <time>2026-08-15T10:29:31.470Z</time>
      </trkpt>
      <trkpt lat="52.051567" lon="4.950951">
        <ele>0.489776</ele>
        <time>2026-08-15T10:29:37.392Z</time>
      </trkpt>
      <trkpt lat="52.051582" lon="4.950783">
        <ele>0.493498</ele>
        <time>2026-08-15T10:29:38.966Z</time>
      </trkpt>
      <trkpt lat="52.051562" lon="4.950645">
        <ele>0.496607</ele>
        <time>2026-08-15T10:29:40.256Z</time>
      </trkpt>
      <trkpt lat="52.051474" lon="4.950303">
        <ele>0.504736</ele>
        <time>2026-08-15T10:29:43.638Z</time>
      </trkpt>
      <trkpt lat="52.051374" lon="4.950099">
        <ele>0.510456</ele>
        <time>2026-08-15T10:29:45.995Z</time>
      </trkpt>
      <trkpt lat="52.050725" lon="4.948362">
        <ele>0.264233</ele>
        <time>2026-08-15T10:30:03.069Z</time>
      </trkpt>
      <trkpt lat="52.050694" lon="4.948281">
        <ele>0.251660</ele>
        <time>2026-08-15T10:30:03.869Z</time>
      </trkpt>
      <trkpt lat="52.050436" lon="4.947572">
        <ele>0.143093</ele>
        <time>2026-08-15T10:30:10.860Z</time>
      </trkpt>
      <trkpt lat="52.049552" lon="4.945011">
        <ele>0.438710</ele>
        <time>2026-08-15T10:30:39.099Z</time>
      </trkpt>
      <trkpt lat="52.049514" lon="4.944890">
        <ele>0.453043</ele>
        <time>2026-08-15T10:30:40.512Z</time>
      </trkpt>
      <trkpt lat="52.049343" lon="4.944342">
        <ele>0.509595</ele>
        <time>2026-08-15T10:30:46.861Z</time>
      </trkpt>
      <trkpt lat="52.048807" lon="4.943267">
        <ele>0.636955</ele>
        <time>2026-08-15T10:31:00.327Z</time>
      </trkpt>
      <trkpt lat="52.048959" lon="4.943140">
        <ele>0.662528</ele>
        <time>2026-08-15T10:31:02.918Z</time>
      </trkpt>
      <trkpt lat="52.049127" lon="4.943097">
        <ele>0.687977</ele>
        <time>2026-08-15T10:31:05.452Z</time>
      </trkpt>
      <trkpt lat="52.059328" lon="4.941055">
        <ele>-1.306386</ele>
        <time>2026-08-15T10:33:29.786Z</time>
      </trkpt>
      <trkpt lat="52.059499" lon="4.941009">
        <ele>-1.328422</ele>
        <time>2026-08-15T10:33:32.320Z</time>
      </trkpt>
      <trkpt lat="52.059622" lon="4.940915">
        <ele>-1.345700</ele>
        <time>2026-08-15T10:33:34.314Z</time>
      </trkpt>
      <trkpt lat="52.059892" lon="4.940602">
        <ele>-1.387855</ele>
        <time>2026-08-15T10:33:39.200Z</time>
      </trkpt>
      <trkpt lat="52.060040" lon="4.940505">
        <ele>-1.398201</ele>
        <time>2026-08-15T10:33:41.557Z</time>
      </trkpt>
      <trkpt lat="52.060175" lon="4.940470">
        <ele>-1.398344</ele>
        <time>2026-08-15T10:33:43.597Z</time>
      </trkpt>
      <trkpt lat="52.062140" lon="4.940101">
        <ele>-1.399913</ele>
        <time>2026-08-15T10:34:13.116Z</time>
      </trkpt>
      <trkpt lat="52.062717" lon="4.939930">
        <ele>-1.399784</ele>
        <time>2026-08-15T10:34:21.707Z</time>
      </trkpt>
      <trkpt lat="52.063639" lon="4.939785">
        <ele>-1.397070</ele>
        <time>2026-08-15T10:34:35.643Z</time>
      </trkpt>
      <trkpt lat="52.064009" lon="4.939683">
        <ele>-1.388351</ele>
        <time>2026-08-15T10:34:41.235Z</time>
      </trkpt>
      <trkpt lat="52.064131" lon="4.939579">
        <ele>-1.385150</ele>
        <time>2026-08-15T10:34:43.288Z</time>
      </trkpt>
      <trkpt lat="52.064235" lon="4.939399">
        <ele>-1.381622</ele>
        <time>2026-08-15T10:34:45.551Z</time>
      </trkpt>
      <trkpt lat="52.064897" lon="4.937960">
        <ele>-1.365472</ele>
        <time>2026-08-15T10:35:02.005Z</time>
      </trkpt>
      <trkpt lat="52.065230" lon="4.937300">
        <ele>-1.415547</ele>
        <time>2026-08-15T10:35:09.579Z</time>
      </trkpt>
      <trkpt lat="52.066386" lon="4.935132">
        <ele>-1.529231</ele>
        <time>2026-08-15T10:35:35.106Z</time>
      </trkpt>
      <trkpt lat="52.067158" lon="4.933626">
        <ele>-1.528867</ele>
        <time>2026-08-15T10:35:53.384Z</time>
      </trkpt>
      <trkpt lat="52.068537" lon="4.931001">
        <ele>-1.615181</ele>
        <time>2026-08-15T10:36:24.340Z</time>
      </trkpt>
      <trkpt lat="52.068716" lon="4.930533">
        <ele>-1.651547</ele>
        <time>2026-08-15T10:36:29.311Z</time>
      </trkpt>
      <trkpt lat="52.068759" lon="4.930418">
        <ele>-1.660427</ele>
        <time>2026-08-15T10:36:30.496Z</time>
      </trkpt>
      <trkpt lat="52.069076" lon="4.929774">
        <ele>-1.714858</ele>
        <time>2026-08-15T10:36:37.761Z</time>
      </trkpt>
      <trkpt lat="52.069617" lon="4.928731">
        <ele>-1.770067</ele>
        <time>2026-08-15T10:36:49.598Z</time>
      </trkpt>
      <trkpt lat="52.069880" lon="4.928221">
        <ele>-1.761312</ele>
        <time>2026-08-15T10:36:55.534Z</time>
      </trkpt>
      <trkpt lat="52.070021" lon="4.927878">
        <ele>-1.755885</ele>
        <time>2026-08-15T10:36:59.332Z</time>
      </trkpt>
      <trkpt lat="52.070471" lon="4.926567">
        <ele>-1.736533</ele>
        <time>2026-08-15T10:37:13.718Z</time>
      </trkpt>
      <trkpt lat="52.071047" lon="4.925023">
        <ele>-1.720398</ele>
        <time>2026-08-15T10:37:30.500Z</time>
      </trkpt>
      <trkpt lat="52.071145" lon="4.924765">
        <ele>-1.717689</ele>
        <time>2026-08-15T10:37:33.163Z</time>
      </trkpt>
      <trkpt lat="52.071629" lon="4.923613">
        <ele>-1.766593</ele>
        <time>2026-08-15T10:37:45.362Z</time>
      </trkpt>
      <trkpt lat="52.072175" lon="4.922551">
        <ele>-1.880547</ele>
        <time>2026-08-15T10:37:57.452Z</time>
      </trkpt>
      <trkpt lat="52.073467" lon="4.920015">
        <ele>-1.945764</ele>
        <time>2026-08-15T10:38:26.759Z</time>
      </trkpt>
      <trkpt lat="52.073803" lon="4.919354">
        <ele>-1.882515</ele>
        <time>2026-08-15T10:38:35.326Z</time>
      </trkpt>
      <trkpt lat="52.073907" lon="4.919065">
        <ele>-1.824297</ele>
        <time>2026-08-15T10:38:38.671Z</time>
      </trkpt>
      <trkpt lat="52.073936" lon="4.918923">
        <ele>-1.798285</ele>
        <time>2026-08-15T10:38:40.271Z</time>
      </trkpt>
      <trkpt lat="52.073851" lon="4.918877">
        <ele>-1.772949</ele>
        <time>2026-08-15T10:38:41.712Z</time>
      </trkpt>
      <trkpt lat="52.073792" lon="4.918789">
        <ele>-1.750310</ele>
        <time>2026-08-15T10:38:43.101Z</time>
      </trkpt>
      <trkpt lat="52.073764" lon="4.918660">
        <ele>-1.726527</ele>
        <time>2026-08-15T10:38:44.489Z</time>
      </trkpt>
      <trkpt lat="52.073790" lon="4.918422">
        <ele>-1.684505</ele>
        <time>2026-08-15T10:38:47.013Z</time>
      </trkpt>
      <trkpt lat="52.074049" lon="4.917227">
        <ele>-1.464226</ele>
        <time>2026-08-15T10:38:59.320Z</time>
      </trkpt>
      <trkpt lat="52.074062" lon="4.917106">
        <ele>-1.442873</ele>
        <time>2026-08-15T10:39:00.439Z</time>
      </trkpt>
      <trkpt lat="52.074043" lon="4.916969">
        <ele>-1.432296</ele>
        <time>2026-08-15T10:39:01.755Z</time>
      </trkpt>
      <trkpt lat="52.070152" lon="4.905697">
        <ele>-0.910326</ele>
        <time>2026-08-15T10:41:01.053Z</time>
      </trkpt>
      <trkpt lat="52.069633" lon="4.904193">
        <ele>-0.725814</ele>
        <time>2026-08-15T10:41:17.865Z</time>
      </trkpt>
      <trkpt lat="52.069590" lon="4.904059">
        <ele>-0.692757</ele>
        <time>2026-08-15T10:41:19.422Z</time>
      </trkpt>
      <trkpt lat="52.069479" lon="4.903613">
        <ele>-0.587528</ele>
        <time>2026-08-15T10:41:24.275Z</time>
      </trkpt>
      <trkpt lat="52.070183" lon="4.903286">
        <ele>-0.327056</ele>
        <time>2026-08-15T10:41:36.296Z</time>
      </trkpt>
      <trkpt lat="52.070216" lon="4.903217">
        <ele>-0.307937</ele>
        <time>2026-08-15T10:41:37.220Z</time>
      </trkpt>
      <trkpt lat="52.070201" lon="4.903143">
        <ele>-0.290896</ele>
        <time>2026-08-15T10:41:37.999Z</time>
      </trkpt>
      <trkpt lat="52.070174" lon="4.903002">
        <ele>-0.258599</ele>
        <time>2026-08-15T10:41:39.501Z</time>
      </trkpt>
      <trkpt lat="52.070177" lon="4.902881">
        <ele>-0.232116</ele>
        <time>2026-08-15T10:41:40.719Z</time>
      </trkpt>
      <trkpt lat="52.070505" lon="4.902718">
        <ele>-0.112276</ele>
        <time>2026-08-15T10:41:46.352Z</time>
      </trkpt>
      <trkpt lat="52.071440" lon="4.902168">
        <ele>-0.091856</ele>
        <time>2026-08-15T10:42:01.304Z</time>
      </trkpt>
      <trkpt lat="52.072094" lon="4.901867">
        <ele>-0.077896</ele>
        <time>2026-08-15T10:42:10.866Z</time>
      </trkpt>
      <trkpt lat="52.072544" lon="4.901715">
        <ele>-0.083084</ele>
        <time>2026-08-15T10:42:17.882Z</time>
      </trkpt>
      <trkpt lat="52.072885" lon="4.901702">
        <ele>-0.090695</ele>
        <time>2026-08-15T10:42:22.842Z</time>
      </trkpt>
      <trkpt lat="52.072900" lon="4.901528">
        <ele>-0.093104</ele>
        <time>2026-08-15T10:42:24.424Z</time>
      </trkpt>
      <trkpt lat="52.072927" lon="4.901451">
        <ele>-0.094320</ele>
        <time>2026-08-15T10:42:25.201Z</time>
      </trkpt>
      <trkpt lat="52.073090" lon="4.901240">
        <ele>-0.098968</ele>
        <time>2026-08-15T10:42:29.350Z</time>
      </trkpt>
      <trkpt lat="52.073229" lon="4.900971">
        <ele>-0.103787</ele>
        <time>2026-08-15T10:42:33.691Z</time>
      </trkpt>
      <trkpt lat="52.073207" lon="4.900938">
        <ele>-0.104455</ele>
        <time>2026-08-15T10:42:34.300Z</time>
      </trkpt>
      <trkpt lat="52.073144" lon="4.900843">
        <ele>-0.106372</ele>
        <time>2026-08-15T10:42:36.077Z</time>
      </trkpt>
      <trkpt lat="52.073128" lon="4.900817">
        <ele>-0.106876</ele>
        <time>2026-08-15T10:42:36.532Z</time>
      </trkpt>
      <trkpt lat="52.073372" lon="4.900393">
        <ele>-0.114842</ele>
        <time>2026-08-15T10:42:44.018Z</time>
      </trkpt>
      <trkpt lat="52.073598" lon="4.900090">
        <ele>-0.176041</ele>
        <time>2026-08-15T10:42:50.029Z</time>
      </trkpt>
      <trkpt lat="52.073626" lon="4.900052">
        <ele>-0.184554</ele>
        <time>2026-08-15T10:42:50.742Z</time>
      </trkpt>
      <trkpt lat="52.073742" lon="4.899892">
        <ele>-0.220058</ele>
        <time>2026-08-15T10:42:53.608Z</time>
      </trkpt>
      <trkpt lat="52.073887" lon="4.899607">
        <ele>-0.273147</ele>
        <time>2026-08-15T10:42:57.851Z</time>
      </trkpt>
      <trkpt lat="52.074219" lon="4.898593">
        <ele>-0.438009</ele>
        <time>2026-08-15T10:43:11.189Z</time>
      </trkpt>
      <trkpt lat="52.074287" lon="4.898000">
        <ele>-0.524569</ele>
        <time>2026-08-15T10:43:18.396Z</time>
      </trkpt>
      <trkpt lat="52.074282" lon="4.897153">
        <ele>-0.534759</ele>
        <time>2026-08-15T10:43:28.669Z</time>
      </trkpt>
      <trkpt lat="52.074423" lon="4.896174">
        <ele>-0.533775</ele>
        <time>2026-08-15T10:43:41.137Z</time>
      </trkpt>
      <trkpt lat="52.074416" lon="4.895928">
        <ele>-0.533534</ele>
        <time>2026-08-15T10:43:44.248Z</time>
      </trkpt>
      <trkpt lat="52.074377" lon="4.895746">
        <ele>-0.533345</ele>
        <time>2026-08-15T10:43:46.695Z</time>
      </trkpt>
      <trkpt lat="52.074245" lon="4.895430">
        <ele>-0.532971</ele>
        <time>2026-08-15T10:43:51.569Z</time>
      </trkpt>
      <trkpt lat="52.073933" lon="4.894882">
        <ele>-0.475481</ele>
        <time>2026-08-15T10:44:01.194Z</time>
      </trkpt>
      <trkpt lat="52.073880" lon="4.894671">
        <ele>-0.444306</ele>
        <time>2026-08-15T10:44:04.159Z</time>
      </trkpt>
      <trkpt lat="52.073788" lon="4.893471">
        <ele>-0.278915</ele>
        <time>2026-08-15T10:44:19.861Z</time>
      </trkpt>
      <trkpt lat="52.073740" lon="4.892235">
        <ele>-0.124429</ele>
        <time>2026-08-15T10:44:35.952Z</time>
      </trkpt>
      <trkpt lat="52.073698" lon="4.891641">
        <ele>-0.095857</ele>
        <time>2026-08-15T10:44:43.785Z</time>
      </trkpt>
      <trkpt lat="52.073491" lon="4.890496">
        <ele>-0.038824</ele>
        <time>2026-08-15T10:44:58.991Z</time>
      </trkpt>
      <trkpt lat="52.073434" lon="4.890030">
        <ele>-0.016119</ele>
        <time>2026-08-15T10:45:04.791Z</time>
      </trkpt>
      <trkpt lat="52.073417" lon="4.889812">
        <ele>-0.005618</ele>
        <time>2026-08-15T10:45:07.489Z</time>
      </trkpt>
      <trkpt lat="52.073436" lon="4.889479">
        <ele>0.003599</ele>
        <time>2026-08-15T10:45:11.575Z</time>
      </trkpt>
      <trkpt lat="52.073454" lon="4.889054">
        <ele>-0.022642</ele>
        <time>2026-08-15T10:45:16.707Z</time>
      </trkpt>
      <trkpt lat="52.073646" lon="4.886775">
        <ele>-0.164337</ele>
        <time>2026-08-15T10:45:44.498Z</time>
      </trkpt>
      <trkpt lat="52.073764" lon="4.885360">
        <ele>-0.101798</ele>
        <time>2026-08-15T10:46:02.479Z</time>
      </trkpt>
      <trkpt lat="52.073836" lon="4.884896">
        <ele>-0.075438</ele>
        <time>2026-08-15T10:46:08.784Z</time>
      </trkpt>
      <trkpt lat="52.073958" lon="4.884334">
        <ele>-0.042607</ele>
        <time>2026-08-15T10:46:16.462Z</time>
      </trkpt>
      <trkpt lat="52.073983" lon="4.884350">
        <ele>-0.040200</ele>
        <time>2026-08-15T10:46:17.013Z</time>
      </trkpt>
      <trkpt lat="52.074065" lon="4.884393">
        <ele>-0.032479</ele>
        <time>2026-08-15T10:46:18.797Z</time>
      </trkpt>
      <trkpt lat="52.074076" lon="4.884400">
        <ele>-0.031420</ele>
        <time>2026-08-15T10:46:19.037Z</time>
      </trkpt>
      <trkpt lat="52.074094" lon="4.884411">
        <ele>-0.029697</ele>
        <time>2026-08-15T10:46:19.436Z</time>
      </trkpt>
      <trkpt lat="52.074376" lon="4.883802">
        <ele>-0.002113</ele>
        <time>2026-08-15T10:46:28.976Z</time>
      </trkpt>
      <trkpt lat="52.074411" lon="4.883686">
        <ele>0.000722</ele>
        <time>2026-08-15T10:46:30.592Z</time>
      </trkpt>
      <trkpt lat="52.074523" lon="4.883301">
        <ele>0.010068</ele>
        <time>2026-08-15T10:46:35.960Z</time>
      </trkpt>
      <trkpt lat="52.074546" lon="4.883077">
        <ele>0.015050</ele>
        <time>2026-08-15T10:46:38.889Z</time>
      </trkpt>
      <trkpt lat="52.074869" lon="4.881763">
        <ele>0.046100</ele>
        <time>2026-08-15T10:46:56.713Z</time>
      </trkpt>
      <trkpt lat="52.075133" lon="4.881164">
        <ele>0.037091</ele>
        <time>2026-08-15T10:47:03.120Z</time>
      </trkpt>
      <trkpt lat="52.075398" lon="4.880610">
        <ele>0.012604</ele>
        <time>2026-08-15T10:47:09.311Z</time>
      </trkpt>
      <trkpt lat="52.075579" lon="4.880480">
        <ele>0.001375</ele>
        <time>2026-08-15T10:47:12.166Z</time>
      </trkpt>
      <trkpt lat="52.075623" lon="4.880416">
        <ele>-0.001975</ele>
        <time>2026-08-15T10:47:13.008Z</time>
      </trkpt>
      <trkpt lat="52.075657" lon="4.880300">
        <ele>-0.006458</ele>
        <time>2026-08-15T10:47:14.163Z</time>
      </trkpt>
      <trkpt lat="52.076251" lon="4.878086">
        <ele>0.029530</ele>
        <time>2026-08-15T10:47:35.918Z</time>
      </trkpt>
      <trkpt lat="52.076263" lon="4.878042">
        <ele>0.032753</ele>
        <time>2026-08-15T10:47:36.392Z</time>
      </trkpt>
      <trkpt lat="52.077067" lon="4.875685">
        <ele>0.161926</ele>
        <time>2026-08-15T10:48:02.643Z</time>
      </trkpt>
      <trkpt lat="52.077085" lon="4.875574">
        <ele>0.163712</ele>
        <time>2026-08-15T10:48:03.729Z</time>
      </trkpt>
      <trkpt lat="52.077069" lon="4.875469">
        <ele>0.165396</ele>
        <time>2026-08-15T10:48:04.753Z</time>
      </trkpt>
      <trkpt lat="52.076949" lon="4.875285">
        <ele>0.169571</ele>
        <time>2026-08-15T10:48:07.245Z</time>
      </trkpt>
      <trkpt lat="52.076321" lon="4.874363">
        <ele>0.190988</ele>
        <time>2026-08-15T10:48:19.463Z</time>
      </trkpt>
      <trkpt lat="52.075306" lon="4.872905">
        <ele>-0.300710</ele>
        <time>2026-08-15T10:48:37.767Z</time>
      </trkpt>
      <trkpt lat="52.075262" lon="4.872844">
        <ele>-0.322339</ele>
        <time>2026-08-15T10:48:38.534Z</time>
      </trkpt>
      <trkpt lat="52.074594" lon="4.871938">
        <ele>-0.602229</ele>
        <time>2026-08-15T10:48:50.266Z</time>
      </trkpt>
      <trkpt lat="52.074480" lon="4.871703">
        <ele>-0.652284</ele>
        <time>2026-08-15T10:48:52.799Z</time>
      </trkpt>
      <trkpt lat="52.073839" lon="4.869209">
        <ele>-0.991628</ele>
        <time>2026-08-15T10:49:16.204Z</time>
      </trkpt>
      <trkpt lat="52.073780" lon="4.868989">
        <ele>-0.998013</ele>
        <time>2026-08-15T10:49:18.325Z</time>
      </trkpt>
      <trkpt lat="52.073703" lon="4.868694">
        <ele>-1.006538</ele>
        <time>2026-08-15T10:49:21.157Z</time>
      </trkpt>
      <trkpt lat="52.072954" lon="4.865933">
        <ele>-1.068025</ele>
        <time>2026-08-15T10:49:48.944Z</time>
      </trkpt>
      <trkpt lat="52.072491" lon="4.864172">
        <ele>-1.128543</ele>
        <time>2026-08-15T10:50:06.011Z</time>
      </trkpt>
      <trkpt lat="52.072328" lon="4.863376">
        <ele>-1.205130</ele>
        <time>2026-08-15T10:50:16.190Z</time>
      </trkpt>
      <trkpt lat="52.072296" lon="4.863222">
        <ele>-1.219969</ele>
        <time>2026-08-15T10:50:18.185Z</time>
      </trkpt>
      <trkpt lat="52.072122" lon="4.862417">
        <ele>-1.297863</ele>
        <time>2026-08-15T10:50:28.501Z</time>
      </trkpt>
      <trkpt lat="52.072018" lon="4.861967">
        <ele>-1.341748</ele>
        <time>2026-08-15T10:50:34.260Z</time>
      </trkpt>
      <trkpt lat="52.071882" lon="4.861449">
        <ele>-1.362744</ele>
        <time>2026-08-15T10:50:41.006Z</time>
      </trkpt>
      <trkpt lat="52.071853" lon="4.861367">
        <ele>-1.364446</ele>
        <time>2026-08-15T10:50:42.140Z</time>
      </trkpt>
      <trkpt lat="52.071706" lon="4.860910">
        <ele>-1.373729</ele>
        <time>2026-08-15T10:50:48.369Z</time>
      </trkpt>
      <trkpt lat="52.071399" lon="4.859981">
        <ele>-1.392712</ele>
        <time>2026-08-15T10:51:01.149Z</time>
      </trkpt>
      <trkpt lat="52.070490" lon="4.857407">
        <ele>-1.232429</ele>
        <time>2026-08-15T10:51:39.296Z</time>
      </trkpt>
      <trkpt lat="52.070455" lon="4.857226">
        <ele>-1.216740</ele>
        <time>2026-08-15T10:51:41.823Z</time>
      </trkpt>
      <trkpt lat="52.070442" lon="4.856209">
        <ele>-1.206347</ele>
        <time>2026-08-15T10:51:54.768Z</time>
      </trkpt>
      <trkpt lat="52.070445" lon="4.855912">
        <ele>-1.236051</ele>
        <time>2026-08-15T10:51:57.433Z</time>
      </trkpt>
      <trkpt lat="52.070455" lon="4.855711">
        <ele>-1.256217</ele>
        <time>2026-08-15T10:51:59.871Z</time>
      </trkpt>
      <trkpt lat="52.070490" lon="4.855617">
        <ele>-1.267208</ele>
        <time>2026-08-15T10:52:01.211Z</time>
      </trkpt>
      <trkpt lat="52.070587" lon="4.855502">
        <ele>-1.286734</ele>
        <time>2026-08-15T10:52:03.546Z</time>
      </trkpt>
      <trkpt lat="52.070761" lon="4.855461">
        <ele>-1.315337</ele>
        <time>2026-08-15T10:52:06.925Z</time>
      </trkpt>
      <trkpt lat="52.070969" lon="4.855407">
        <ele>-1.349604</ele>
        <time>2026-08-15T10:52:10.899Z</time>
      </trkpt>
      <trkpt lat="52.071070" lon="4.855199">
        <ele>-1.376111</ele>
        <time>2026-08-15T10:52:13.937Z</time>
      </trkpt>
      <trkpt lat="52.071225" lon="4.853175">
        <ele>-1.337424</ele>
        <time>2026-08-15T10:52:38.384Z</time>
      </trkpt>
      <trkpt lat="52.071220" lon="4.852905">
        <ele>-1.310473</ele>
        <time>2026-08-15T10:52:42.048Z</time>
      </trkpt>
      <trkpt lat="52.071180" lon="4.852789">
        <ele>-1.297203</ele>
        <time>2026-08-15T10:52:43.844Z</time>
      </trkpt>
      <trkpt lat="52.071115" lon="4.852695">
        <ele>-1.283087</ele>
        <time>2026-08-15T10:52:45.722Z</time>
      </trkpt>
      <trkpt lat="52.070695" lon="4.852358">
        <ele>-1.207076</ele>
        <time>2026-08-15T10:52:55.918Z</time>
      </trkpt>
      <trkpt lat="52.070544" lon="4.852174">
        <ele>-1.176453</ele>
        <time>2026-08-15T10:53:00.119Z</time>
      </trkpt>
      <trkpt lat="52.070507" lon="4.852088">
        <ele>-1.165347</ele>
        <time>2026-08-15T10:53:01.577Z</time>
      </trkpt>
      <trkpt lat="52.070479" lon="4.851865">
        <ele>-1.121761</ele>
        <time>2026-08-15T10:53:04.750Z</time>
      </trkpt>
      <trkpt lat="52.070477" lon="4.851302">
        <ele>-1.013945</ele>
        <time>2026-08-15T10:53:12.484Z</time>
      </trkpt>
      <trkpt lat="52.070467" lon="4.847678">
        <ele>-0.587347</ele>
        <time>2026-08-15T10:53:59.517Z</time>
      </trkpt>
      <trkpt lat="52.070450" lon="4.846775">
        <ele>-0.575881</ele>
        <time>2026-08-15T10:54:10.463Z</time>
      </trkpt>
      <trkpt lat="52.070422" lon="4.845771">
        <ele>-0.611909</ele>
        <time>2026-08-15T10:54:22.348Z</time>
      </trkpt>
      <trkpt lat="52.070400" lon="4.845254">
        <ele>-0.658239</ele>
        <time>2026-08-15T10:54:28.478Z</time>
      </trkpt>
      <trkpt lat="52.070387" lon="4.844909">
        <ele>-0.689141</ele>
        <time>2026-08-15T10:54:32.626Z</time>
      </trkpt>
      <trkpt lat="52.070379" lon="4.844679">
        <ele>-0.709736</ele>
        <time>2026-08-15T10:54:35.418Z</time>
      </trkpt>
      <trkpt lat="52.070376" lon="4.844610">
        <ele>-0.715920</ele>
        <time>2026-08-15T10:54:36.252Z</time>
      </trkpt>
      <trkpt lat="52.070310" lon="4.843463">
        <ele>-0.818911</ele>
        <time>2026-08-15T10:54:50.179Z</time>
      </trkpt>
      <trkpt lat="52.070263" lon="4.842818">
        <ele>-0.826055</ele>
        <time>2026-08-15T10:54:58.464Z</time>
      </trkpt>
      <trkpt lat="52.070232" lon="4.842377">
        <ele>-0.821993</ele>
        <time>2026-08-15T10:55:04.078Z</time>
      </trkpt>
      <trkpt lat="52.070183" lon="4.841694">
        <ele>-0.815700</ele>
        <time>2026-08-15T10:55:12.779Z</time>
      </trkpt>
      <trkpt lat="52.070092" lon="4.840766">
        <ele>-0.807099</ele>
        <time>2026-08-15T10:55:24.454Z</time>
      </trkpt>
      <trkpt lat="52.069963" lon="4.839740">
        <ele>-0.853954</ele>
        <time>2026-08-15T10:55:37.362Z</time>
      </trkpt>
      <trkpt lat="52.069922" lon="4.839409">
        <ele>-0.877737</ele>
        <time>2026-08-15T10:55:41.462Z</time>
      </trkpt>
      <trkpt lat="52.069708" lon="4.837972">
        <ele>-0.981884</ele>
        <time>2026-08-15T10:55:54.342Z</time>
      </trkpt>
      <trkpt lat="52.069437" lon="4.836458">
        <ele>-1.016523</ele>
        <time>2026-08-15T10:56:08.193Z</time>
      </trkpt>
      <trkpt lat="52.068944" lon="4.834056">
        <ele>-0.992846</ele>
        <time>2026-08-15T10:56:31.759Z</time>
      </trkpt>
      <trkpt lat="52.068728" lon="4.833126">
        <ele>-0.950641</ele>
        <time>2026-08-15T10:56:41.119Z</time>
      </trkpt>
      <trkpt lat="52.068264" lon="4.830763">
        <ele>-0.944360</ele>
        <time>2026-08-15T10:57:03.825Z</time>
      </trkpt>
      <trkpt lat="52.067983" lon="4.828947">
        <ele>-1.028142</ele>
        <time>2026-08-15T10:57:20.456Z</time>
      </trkpt>
      <trkpt lat="52.067864" lon="4.827910">
        <ele>-1.152835</ele>
        <time>2026-08-15T10:57:29.615Z</time>
      </trkpt>
      <trkpt lat="52.067745" lon="4.826065">
        <ele>-1.339153</ele>
        <time>2026-08-15T10:57:45.558Z</time>
      </trkpt>
      <trkpt lat="52.067741" lon="4.825031">
        <ele>-1.331363</ele>
        <time>2026-08-15T10:57:54.606Z</time>
      </trkpt>
      <trkpt lat="52.067799" lon="4.824478">
        <ele>-1.327136</ele>
        <time>2026-08-15T10:57:59.687Z</time>
      </trkpt>
      <trkpt lat="52.067841" lon="4.824413">
        <ele>-1.326426</ele>
        <time>2026-08-15T10:58:00.569Z</time>
      </trkpt>
      <trkpt lat="52.067917" lon="4.824391">
        <ele>-1.325480</ele>
        <time>2026-08-15T10:58:01.764Z</time>
      </trkpt>
      <trkpt lat="52.068218" lon="4.824478">
        <ele>-1.321733</ele>
        <time>2026-08-15T10:58:06.628Z</time>
      </trkpt>
      <trkpt lat="52.068241" lon="4.824344">
        <ele>-1.320685</ele>
        <time>2026-08-15T10:58:08.010Z</time>
      </trkpt>
      <trkpt lat="52.068257" lon="4.824245">
        <ele>-1.319914</ele>
        <time>2026-08-15T10:58:09.043Z</time>
      </trkpt>
      <trkpt lat="52.068258" lon="4.824091">
        <ele>-1.316571</ele>
        <time>2026-08-15T10:58:10.598Z</time>
      </trkpt>
      <trkpt lat="52.068220" lon="4.824024">
        <ele>-1.311357</ele>
        <time>2026-08-15T10:58:11.515Z</time>
      </trkpt>
      <trkpt lat="52.067929" lon="4.823906">
        <ele>-1.283452</ele>
        <time>2026-08-15T10:58:16.477Z</time>
      </trkpt>
      <trkpt lat="52.067734" lon="4.823698">
        <ele>-1.261755</ele>
        <time>2026-08-15T10:58:20.252Z</time>
      </trkpt>
      <trkpt lat="52.067606" lon="4.823414">
        <ele>-1.241612</ele>
        <time>2026-08-15T10:58:23.636Z</time>
      </trkpt>
      <trkpt lat="52.067485" lon="4.823004">
        <ele>-1.215598</ele>
        <time>2026-08-15T10:58:27.755Z</time>
      </trkpt>
      <trkpt lat="52.067328" lon="4.822686">
        <ele>-1.192269</ele>
        <time>2026-08-15T10:58:31.445Z</time>
      </trkpt>
      <trkpt lat="52.067126" lon="4.822442">
        <ele>-1.168858</ele>
        <time>2026-08-15T10:58:35.082Z</time>
      </trkpt>
      <trkpt lat="52.066941" lon="4.822312">
        <ele>-1.153282</ele>
        <time>2026-08-15T10:58:37.931Z</time>
      </trkpt>
      <trkpt lat="52.066884" lon="4.822261">
        <ele>-1.159093</ele>
        <time>2026-08-15T10:58:38.857Z</time>
      </trkpt>
      <trkpt lat="52.066860" lon="4.822199">
        <ele>-1.163117</ele>
        <time>2026-08-15T10:58:39.495Z</time>
      </trkpt>
      <trkpt lat="52.066846" lon="4.822148">
        <ele>-1.166185</ele>
        <time>2026-08-15T10:58:40.162Z</time>
      </trkpt>
      <trkpt lat="52.066823" lon="4.822051">
        <ele>-1.171895</ele>
        <time>2026-08-15T10:58:41.395Z</time>
      </trkpt>
      <trkpt lat="52.066725" lon="4.821670">
        <ele>-1.194578</ele>
        <time>2026-08-15T10:58:46.308Z</time>
      </trkpt>
      <trkpt lat="52.066310" lon="4.820035">
        <ele>-1.291728</ele>
        <time>2026-08-15T10:59:08.017Z</time>
      </trkpt>
      <trkpt lat="52.065735" lon="4.817794">
        <ele>-1.589257</ele>
        <time>2026-08-15T10:59:37.974Z</time>
      </trkpt>
      <trkpt lat="52.065698" lon="4.817599">
        <ele>-1.616794</ele>
        <time>2026-08-15T10:59:40.309Z</time>
      </trkpt>
      <trkpt lat="52.065735" lon="4.817432">
        <ele>-1.640747</ele>
        <time>2026-08-15T10:59:42.351Z</time>
      </trkpt>
      <trkpt lat="52.065779" lon="4.817361">
        <ele>-1.654351</ele>
        <time>2026-08-15T10:59:43.482Z</time>
      </trkpt>
      <trkpt lat="52.065861" lon="4.817347">
        <ele>-1.672448</ele>
        <time>2026-08-15T10:59:45.039Z</time>
      </trkpt>
      <trkpt lat="52.066188" lon="4.817440">
        <ele>-1.772266</ele>
        <time>2026-08-15T10:59:51.118Z</time>
      </trkpt>
      <trkpt lat="52.066273" lon="4.817419">
        <ele>-1.804487</ele>
        <time>2026-08-15T10:59:52.691Z</time>
      </trkpt>
      <trkpt lat="52.066340" lon="4.817332">
        <ele>-1.836617</ele>
        <time>2026-08-15T10:59:54.236Z</time>
      </trkpt>
      <trkpt lat="52.066468" lon="4.816397">
        <ele>-2.057311</ele>
        <time>2026-08-15T11:00:04.802Z</time>
      </trkpt>
      <trkpt lat="52.066586" lon="4.815424">
        <ele>-2.285803</ele>
        <time>2026-08-15T11:00:16.807Z</time>
      </trkpt>
      <trkpt lat="52.066789" lon="4.813760">
        <ele>-2.472708</ele>
        <time>2026-08-15T11:00:37.805Z</time>
      </trkpt>
      <trkpt lat="52.066948" lon="4.812435">
        <ele>-2.568968</ele>
        <time>2026-08-15T11:00:54.190Z</time>
      </trkpt>
      <trkpt lat="52.066972" lon="4.812235">
        <ele>-2.583497</ele>
        <time>2026-08-15T11:00:56.566Z</time>
      </trkpt>
      <trkpt lat="52.067101" lon="4.811159">
        <ele>-2.768789</ele>
        <time>2026-08-15T11:01:09.348Z</time>
      </trkpt>
      <trkpt lat="52.067202" lon="4.810323">
        <ele>-2.920248</ele>
        <time>2026-08-15T11:01:19.616Z</time>
      </trkpt>
      <trkpt lat="52.067268" lon="4.809769">
        <ele>-3.020566</ele>
        <time>2026-08-15T11:01:26.086Z</time>
      </trkpt>
      <trkpt lat="52.067355" lon="4.809046">
        <ele>-3.091366</ele>
        <time>2026-08-15T11:01:34.587Z</time>
      </trkpt>
      <trkpt lat="52.067446" lon="4.808255">
        <ele>-3.026887</ele>
        <time>2026-08-15T11:01:44.183Z</time>
      </trkpt>
      <trkpt lat="52.067418" lon="4.808097">
        <ele>-3.013712</ele>
        <time>2026-08-15T11:01:46.212Z</time>
      </trkpt>
      <trkpt lat="52.067375" lon="4.808048">
        <ele>-3.006869</ele>
        <time>2026-08-15T11:01:47.235Z</time>
      </trkpt>
      <trkpt lat="52.066302" lon="4.807606">
        <ele>-2.839537</ele>
        <time>2026-08-15T11:02:11.391Z</time>
      </trkpt>
      <trkpt lat="52.066241" lon="4.807554">
        <ele>-2.814665</ele>
        <time>2026-08-15T11:02:13.042Z</time>
      </trkpt>
      <trkpt lat="52.066196" lon="4.807495">
        <ele>-2.793792</ele>
        <time>2026-08-15T11:02:14.392Z</time>
      </trkpt>
      <trkpt lat="52.066138" lon="4.807276">
        <ele>-2.740851</ele>
        <time>2026-08-15T11:02:17.804Z</time>
      </trkpt>
      <trkpt lat="52.066138" lon="4.807142">
        <ele>-2.711102</ele>
        <time>2026-08-15T11:02:19.703Z</time>
      </trkpt>
      <trkpt lat="52.066205" lon="4.806723">
        <ele>-2.614983</ele>
        <time>2026-08-15T11:02:25.699Z</time>
      </trkpt>
      <trkpt lat="52.066209" lon="4.806697">
        <ele>-2.609032</ele>
        <time>2026-08-15T11:02:26.076Z</time>
      </trkpt>
      <trkpt lat="52.066288" lon="4.806202">
        <ele>-2.495493</ele>
        <time>2026-08-15T11:02:33.067Z</time>
      </trkpt>
      <trkpt lat="52.066355" lon="4.805757">
        <ele>-2.393778</ele>
        <time>2026-08-15T11:02:39.286Z</time>
      </trkpt>
      <trkpt lat="52.066438" lon="4.805398">
        <ele>-2.308625</ele>
        <time>2026-08-15T11:02:44.244Z</time>
      </trkpt>
      <trkpt lat="52.066775" lon="4.804042">
        <ele>-2.235887</ele>
        <time>2026-08-15T11:03:01.596Z</time>
      </trkpt>
      <trkpt lat="52.067658" lon="4.800462">
        <ele>-2.164918</ele>
        <time>2026-08-15T11:03:50.079Z</time>
      </trkpt>
      <trkpt lat="52.068233" lon="4.798108">
        <ele>-2.143796</ele>
        <time>2026-08-15T11:04:22.268Z</time>
      </trkpt>
      <trkpt lat="52.068620" lon="4.796511">
        <ele>-2.217876</ele>
        <time>2026-08-15T11:04:42.897Z</time>
      </trkpt>
      <trkpt lat="52.069825" lon="4.791529">
        <ele>-3.081579</ele>
        <time>2026-08-15T11:05:46.615Z</time>
      </trkpt>
      <trkpt lat="52.069878" lon="4.791382">
        <ele>-3.103448</ele>
        <time>2026-08-15T11:05:48.761Z</time>
      </trkpt>
      <trkpt lat="52.070255" lon="4.791570">
        <ele>-3.158730</ele>
        <time>2026-08-15T11:05:53.799Z</time>
      </trkpt>
      <trkpt lat="52.070512" lon="4.791720">
        <ele>-3.197010</ele>
        <time>2026-08-15T11:05:57.295Z</time>
      </trkpt>
      <trkpt lat="52.070903" lon="4.791846">
        <ele>-3.252892</ele>
        <time>2026-08-15T11:06:02.702Z</time>
      </trkpt>
      <trkpt lat="52.071191" lon="4.791928">
        <ele>-3.293883</ele>
        <time>2026-08-15T11:06:07.033Z</time>
      </trkpt>
      <trkpt lat="52.072999" lon="4.792471">
        <ele>-2.598761</ele>
        <time>2026-08-15T11:06:38.226Z</time>
      </trkpt>
      <trkpt lat="52.073311" lon="4.792556">
        <ele>-2.435930</ele>
        <time>2026-08-15T11:06:43.901Z</time>
      </trkpt>
      <trkpt lat="52.073904" lon="4.792742">
        <ele>-2.261103</ele>
        <time>2026-08-15T11:06:53.822Z</time>
      </trkpt>
      <trkpt lat="52.074310" lon="4.792827">
        <ele>-2.146976</ele>
        <time>2026-08-15T11:07:00.002Z</time>
      </trkpt>
      <trkpt lat="52.075163" lon="4.792801">
        <ele>-1.915907</ele>
        <time>2026-08-15T11:07:13.453Z</time>
      </trkpt>
      <trkpt lat="52.075193" lon="4.792794">
        <ele>-1.912549</ele>
        <time>2026-08-15T11:07:13.926Z</time>
      </trkpt>
      <trkpt lat="52.075581" lon="4.792788">
        <ele>-1.869563</ele>
        <time>2026-08-15T11:07:19.921Z</time>
      </trkpt>
      <trkpt lat="52.075716" lon="4.792751">
        <ele>-1.854397</ele>
        <time>2026-08-15T11:07:22.031Z</time>
      </trkpt>
      <trkpt lat="52.077551" lon="4.792621">
        <ele>-1.555715</ele>
        <time>2026-08-15T11:07:49.887Z</time>
      </trkpt>
      <trkpt lat="52.077822" lon="4.792596">
        <ele>-1.484869</ele>
        <time>2026-08-15T11:07:54.384Z</time>
      </trkpt>
      <trkpt lat="52.078101" lon="4.792572">
        <ele>-1.411947</ele>
        <time>2026-08-15T11:07:58.980Z</time>
      </trkpt>
      <trkpt lat="52.078287" lon="4.792518">
        <ele>-1.362634</ele>
        <time>2026-08-15T11:08:02.094Z</time>
      </trkpt>
      <trkpt lat="52.078421" lon="4.792403">
        <ele>-1.323093</ele>
        <time>2026-08-15T11:08:04.588Z</time>
      </trkpt>
      <trkpt lat="52.078617" lon="4.792099">
        <ele>-1.252418</ele>
        <time>2026-08-15T11:08:09.015Z</time>
      </trkpt>
      <trkpt lat="52.079135" lon="4.791217">
        <ele>-1.224569</ele>
        <time>2026-08-15T11:08:20.604Z</time>
      </trkpt>
      <trkpt lat="52.079281" lon="4.791033">
        <ele>-1.217868</ele>
        <time>2026-08-15T11:08:23.256Z</time>
      </trkpt>
      <trkpt lat="52.079490" lon="4.790940">
        <ele>-1.210005</ele>
        <time>2026-08-15T11:08:26.278Z</time>
      </trkpt>
      <trkpt lat="52.079873" lon="4.790904">
        <ele>-1.196084</ele>
        <time>2026-08-15T11:08:31.611Z</time>
      </trkpt>
      <trkpt lat="52.080162" lon="4.790875">
        <ele>-1.182881</ele>
        <time>2026-08-15T11:08:35.717Z</time>
      </trkpt>
      <trkpt lat="52.082021" lon="4.790693">
        <ele>-0.889398</ele>
        <time>2026-08-15T11:09:04.909Z</time>
      </trkpt>
      <trkpt lat="52.082354" lon="4.790659">
        <ele>-0.816242</ele>
        <time>2026-08-15T11:09:10.411Z</time>
      </trkpt>
      <trkpt lat="52.084208" lon="4.790477">
        <ele>-0.535433</ele>
        <time>2026-08-15T11:09:39.467Z</time>
      </trkpt>
      <trkpt lat="52.084559" lon="4.790442">
        <ele>-0.551172</ele>
        <time>2026-08-15T11:09:44.592Z</time>
      </trkpt>
      <trkpt lat="52.084576" lon="4.790440">
        <ele>-0.551935</ele>
        <time>2026-08-15T11:09:44.818Z</time>
      </trkpt>
      <trkpt lat="52.084839" lon="4.790417">
        <ele>-0.563723</ele>
        <time>2026-08-15T11:09:48.522Z</time>
      </trkpt>
      <trkpt lat="52.085005" lon="4.790340">
        <ele>-0.571448</ele>
        <time>2026-08-15T11:09:50.882Z</time>
      </trkpt>
      <trkpt lat="52.084740" lon="4.789544">
        <ele>-0.598375</ele>
        <time>2026-08-15T11:09:58.611Z</time>
      </trkpt>
      <trkpt lat="52.084713" lon="4.789459">
        <ele>-0.603896</ele>
        <time>2026-08-15T11:09:59.477Z</time>
      </trkpt>
      <trkpt lat="52.084487" lon="4.788701">
        <ele>-0.652509</ele>
        <time>2026-08-15T11:10:07.304Z</time>
      </trkpt>
      <trkpt lat="52.084150" lon="4.787608">
        <ele>-0.723070</ele>
        <time>2026-08-15T11:10:18.066Z</time>
      </trkpt>
      <trkpt lat="52.083979" lon="4.787066">
        <ele>-0.758225</ele>
        <time>2026-08-15T11:10:23.441Z</time>
      </trkpt>
      <trkpt lat="52.083694" lon="4.786104">
        <ele>-0.806709</ele>
        <time>2026-08-15T11:10:33.044Z</time>
      </trkpt>
      <trkpt lat="52.083668" lon="4.785948">
        <ele>-0.813865</ele>
        <time>2026-08-15T11:10:34.440Z</time>
      </trkpt>
      <trkpt lat="52.083648" lon="4.785778">
        <ele>-0.821528</ele>
        <time>2026-08-15T11:10:35.927Z</time>
      </trkpt>
      <trkpt lat="52.083619" lon="4.785174">
        <ele>-0.848351</ele>
        <time>2026-08-15T11:10:41.204Z</time>
      </trkpt>
      <trkpt lat="52.083564" lon="4.784829">
        <ele>-0.864131</ele>
        <time>2026-08-15T11:10:44.392Z</time>
      </trkpt>
      <trkpt lat="52.083435" lon="4.784385">
        <ele>-0.885874</ele>
        <time>2026-08-15T11:10:48.983Z</time>
      </trkpt>
      <trkpt lat="52.082886" lon="4.782490">
        <ele>-0.812373</ele>
        <time>2026-08-15T11:11:08.391Z</time>
      </trkpt>
      <trkpt lat="52.082623" lon="4.781303">
        <ele>-0.725454</ele>
        <time>2026-08-15T11:11:19.947Z</time>
      </trkpt>
      <trkpt lat="52.082476" lon="4.780640">
        <ele>-0.606259</ele>
        <time>2026-08-15T11:11:26.830Z</time>
      </trkpt>
      <trkpt lat="52.082392" lon="4.780380">
        <ele>-0.556584</ele>
        <time>2026-08-15T11:11:29.695Z</time>
      </trkpt>
      <trkpt lat="52.082268" lon="4.780130">
        <ele>-0.502253</ele>
        <time>2026-08-15T11:11:32.866Z</time>
      </trkpt>
      <trkpt lat="52.082157" lon="4.779916">
        <ele>-0.454895</ele>
        <time>2026-08-15T11:11:35.654Z</time>
      </trkpt>
      <trkpt lat="52.082137" lon="4.779866">
        <ele>-0.444806</ele>
        <time>2026-08-15T11:11:36.251Z</time>
      </trkpt>
      <trkpt lat="52.082056" lon="4.779606">
        <ele>-0.395510</ele>
        <time>2026-08-15T11:11:39.203Z</time>
      </trkpt>
      <trkpt lat="52.081847" lon="4.778484">
        <ele>-0.224027</ele>
        <time>2026-08-15T11:11:51.343Z</time>
      </trkpt>
      <trkpt lat="52.081815" lon="4.778310">
        <ele>-0.203750</ele>
        <time>2026-08-15T11:11:53.162Z</time>
      </trkpt>
      <trkpt lat="52.081707" lon="4.777726">
        <ele>-0.135662</ele>
        <time>2026-08-15T11:11:58.899Z</time>
      </trkpt>
      <trkpt lat="52.081498" lon="4.776676">
        <ele>-0.012442</ele>
        <time>2026-08-15T11:12:09.175Z</time>
      </trkpt>
      <trkpt lat="52.081294" lon="4.775687">
        <ele>0.035183</ele>
        <time>2026-08-15T11:12:18.948Z</time>
      </trkpt>
      <trkpt lat="52.081221" lon="4.775356">
        <ele>0.023763</ele>
        <time>2026-08-15T11:12:22.231Z</time>
      </trkpt>
      <trkpt lat="52.081207" lon="4.775289">
        <ele>0.021464</ele>
        <time>2026-08-15T11:12:22.888Z</time>
      </trkpt>
      <trkpt lat="52.081138" lon="4.774970">
        <ele>0.010482</ele>
        <time>2026-08-15T11:12:25.960Z</time>
      </trkpt>
      <trkpt lat="52.080925" lon="4.773952">
        <ele>-0.024441</ele>
        <time>2026-08-15T11:12:35.425Z</time>
      </trkpt>
      <trkpt lat="52.080837" lon="4.773523">
        <ele>-0.039128</ele>
        <time>2026-08-15T11:12:39.355Z</time>
      </trkpt>
      <trkpt lat="52.080833" lon="4.773494">
        <ele>-0.040093</ele>
        <time>2026-08-15T11:12:39.623Z</time>
      </trkpt>
      <trkpt lat="52.080806" lon="4.773331">
        <ele>-0.047161</ele>
        <time>2026-08-15T11:12:41.077Z</time>
      </trkpt>
      <trkpt lat="52.080799" lon="4.773290">
        <ele>-0.050330</ele>
        <time>2026-08-15T11:12:41.432Z</time>
      </trkpt>
      <trkpt lat="52.080725" lon="4.772804">
        <ele>-0.087629</ele>
        <time>2026-08-15T11:12:45.742Z</time>
      </trkpt>
      <trkpt lat="52.080683" lon="4.772569">
        <ele>-0.105861</ele>
        <time>2026-08-15T11:12:47.892Z</time>
      </trkpt>
      <trkpt lat="52.080637" lon="4.772307">
        <ele>-0.126159</ele>
        <time>2026-08-15T11:12:50.294Z</time>
      </trkpt>
      <trkpt lat="52.080613" lon="4.772172">
        <ele>-0.136628</ele>
        <time>2026-08-15T11:12:51.532Z</time>
      </trkpt>
      <trkpt lat="52.080504" lon="4.771422">
        <ele>-0.194040</ele>
        <time>2026-08-15T11:12:58.274Z</time>
      </trkpt>
      <trkpt lat="52.080412" lon="4.770689">
        <ele>-0.249772</ele>
        <time>2026-08-15T11:13:04.798Z</time>
      </trkpt>
      <trkpt lat="52.080299" lon="4.769563">
        <ele>-0.208154</ele>
        <time>2026-08-15T11:13:15.248Z</time>
      </trkpt>
      <trkpt lat="52.080233" lon="4.768904">
        <ele>-0.170894</ele>
        <time>2026-08-15T11:13:21.653Z</time>
      </trkpt>
      <trkpt lat="52.080223" lon="4.768791">
        <ele>-0.164524</ele>
        <time>2026-08-15T11:13:22.708Z</time>
      </trkpt>
      <trkpt lat="52.080157" lon="4.767955">
        <ele>-0.117489</ele>
        <time>2026-08-15T11:13:30.500Z</time>
      </trkpt>
      <trkpt lat="52.080132" lon="4.767562">
        <ele>-0.098259</ele>
        <time>2026-08-15T11:13:34.306Z</time>
      </trkpt>
      <trkpt lat="52.080123" lon="4.767422">
        <ele>-0.096526</ele>
        <time>2026-08-15T11:13:35.654Z</time>
      </trkpt>
      <trkpt lat="52.080093" lon="4.766926">
        <ele>-0.090391</ele>
        <time>2026-08-15T11:13:40.709Z</time>
      </trkpt>
      <trkpt lat="52.080064" lon="4.766154">
        <ele>-0.080870</ele>
        <time>2026-08-15T11:13:48.078Z</time>
      </trkpt>
      <trkpt lat="52.080043" lon="4.765572">
        <ele>-0.073693</ele>
        <time>2026-08-15T11:13:53.049Z</time>
      </trkpt>
      <trkpt lat="52.080036" lon="4.765213">
        <ele>-0.069272</ele>
        <time>2026-08-15T11:13:56.055Z</time>
      </trkpt>
      <trkpt lat="52.080030" lon="4.764250">
        <ele>-0.052565</ele>
        <time>2026-08-15T11:14:04.739Z</time>
      </trkpt>
      <trkpt lat="52.080042" lon="4.763637">
        <ele>-0.038488</ele>
        <time>2026-08-15T11:14:10.381Z</time>
      </trkpt>
      <trkpt lat="52.080102" lon="4.762698">
        <ele>-0.016820</ele>
        <time>2026-08-15T11:14:19.159Z</time>
      </trkpt>
      <trkpt lat="52.080168" lon="4.762253">
        <ele>-0.006313</ele>
        <time>2026-08-15T11:14:23.350Z</time>
      </trkpt>
      <trkpt lat="52.080301" lon="4.761359">
        <ele>0.047868</ele>
        <time>2026-08-15T11:14:32.245Z</time>
      </trkpt>
      <trkpt lat="52.080318" lon="4.761258">
        <ele>0.057733</ele>
        <time>2026-08-15T11:14:33.258Z</time>
      </trkpt>
      <trkpt lat="52.080329" lon="4.761152">
        <ele>0.067859</ele>
        <time>2026-08-15T11:14:34.659Z</time>
      </trkpt>
      <trkpt lat="52.080458" lon="4.761199">
        <ele>0.088122</ele>
        <time>2026-08-15T11:14:36.693Z</time>
      </trkpt>
      <trkpt lat="52.080498" lon="4.761228">
        <ele>0.094834</ele>
        <time>2026-08-15T11:14:37.364Z</time>
      </trkpt>
      <trkpt lat="52.080522" lon="4.761252">
        <ele>0.099152</ele>
        <time>2026-08-15T11:14:37.917Z</time>
      </trkpt>
      <trkpt lat="52.080576" lon="4.761324">
        <ele>0.109853</ele>
        <time>2026-08-15T11:14:39.352Z</time>
      </trkpt>
      <trkpt lat="52.080842" lon="4.761441">
        <ele>0.152088</ele>
        <time>2026-08-15T11:14:45.018Z</time>
      </trkpt>
      <trkpt lat="52.081309" lon="4.761566">
        <ele>0.224631</ele>
        <time>2026-08-15T11:14:54.899Z</time>
      </trkpt>
      <trkpt lat="52.081392" lon="4.761554">
        <ele>0.237403</ele>
        <time>2026-08-15T11:14:56.652Z</time>
      </trkpt>
      <trkpt lat="52.081449" lon="4.761427">
        <ele>0.252217</ele>
        <time>2026-08-15T11:14:58.653Z</time>
      </trkpt>
      <trkpt lat="52.081533" lon="4.761426">
        <ele>0.265093</ele>
        <time>2026-08-15T11:15:00.369Z</time>
      </trkpt>
      <trkpt lat="52.081624" lon="4.761435">
        <ele>0.279067</ele>
        <time>2026-08-15T11:15:02.232Z</time>
      </trkpt>
      <trkpt lat="52.081574" lon="4.760783">
        <ele>0.310601</ele>
        <time>2026-08-15T11:15:10.603Z</time>
      </trkpt>
      <trkpt lat="52.081712" lon="4.760226">
        <ele>0.339072</ele>
        <time>2026-08-15T11:15:16.354Z</time>
      </trkpt>
      <trkpt lat="52.081742" lon="4.760104">
        <ele>0.345302</ele>
        <time>2026-08-15T11:15:17.574Z</time>
      </trkpt>
      <trkpt lat="52.081859" lon="4.759636">
        <ele>0.369255</ele>
        <time>2026-08-15T11:15:22.300Z</time>
      </trkpt>
      <trkpt lat="52.081907" lon="4.759443">
        <ele>0.379126</ele>
        <time>2026-08-15T11:15:24.239Z</time>
      </trkpt>
      <trkpt lat="52.082142" lon="4.758693">
        <ele>0.417756</ele>
        <time>2026-08-15T11:15:31.907Z</time>
      </trkpt>
      <trkpt lat="52.082237" lon="4.758389">
        <ele>0.387003</ele>
        <time>2026-08-15T11:15:34.924Z</time>
      </trkpt>
      <trkpt lat="52.082352" lon="4.758037">
        <ele>0.351056</ele>
        <time>2026-08-15T11:15:38.650Z</time>
      </trkpt>
      <trkpt lat="52.082453" lon="4.757739">
        <ele>0.320369</ele>
        <time>2026-08-15T11:15:41.900Z</time>
      </trkpt>
      <trkpt lat="52.082593" lon="4.757613">
        <ele>0.296894</ele>
        <time>2026-08-15T11:15:45.192Z</time>
      </trkpt>
      <trkpt lat="52.082762" lon="4.757689">
        <ele>0.271167</ele>
        <time>2026-08-15T11:15:48.689Z</time>
      </trkpt>
      <trkpt lat="52.082795" lon="4.757567">
        <ele>0.259147</ele>
        <time>2026-08-15T11:15:50.296Z</time>
      </trkpt>
      <trkpt lat="52.082841" lon="4.757387">
        <ele>0.241569</ele>
        <time>2026-08-15T11:15:52.595Z</time>
      </trkpt>
      <trkpt lat="52.083214" lon="4.757626">
        <ele>0.182748</ele>
        <time>2026-08-15T11:16:00.216Z</time>
      </trkpt>
      <trkpt lat="52.083302" lon="4.757683">
        <ele>0.168850</ele>
        <time>2026-08-15T11:16:02.016Z</time>
      </trkpt>
      <trkpt lat="52.084120" lon="4.758205">
        <ele>-0.106136</ele>
        <time>2026-08-15T11:16:18.117Z</time>
      </trkpt>
      <trkpt lat="52.084352" lon="4.758280">
        <ele>-0.185019</ele>
        <time>2026-08-15T11:16:22.503Z</time>
      </trkpt>
      <trkpt lat="52.084832" lon="4.758533">
        <ele>-0.353286</ele>
        <time>2026-08-15T11:16:29.492Z</time>
      </trkpt>
      <trkpt lat="52.085937" lon="4.759209">
        <ele>-0.343356</ele>
        <time>2026-08-15T11:16:47.478Z</time>
      </trkpt>
      <trkpt lat="52.086203" lon="4.759236">
        <ele>-0.313372</ele>
        <time>2026-08-15T11:16:51.778Z</time>
      </trkpt>
      <trkpt lat="52.086327" lon="4.759209">
        <ele>-0.299298</ele>
        <time>2026-08-15T11:16:53.765Z</time>
      </trkpt>
      <trkpt lat="52.086425" lon="4.759147">
        <ele>-0.287469</ele>
        <time>2026-08-15T11:16:55.429Z</time>
      </trkpt>
      <trkpt lat="52.086624" lon="4.758881">
        <ele>-0.258497</ele>
        <time>2026-08-15T11:16:59.440Z</time>
      </trkpt>
      <trkpt lat="52.086794" lon="4.758512">
        <ele>-0.227810</ele>
        <time>2026-08-15T11:17:03.761Z</time>
      </trkpt>
      <trkpt lat="52.087401" lon="4.756984">
        <ele>-0.111314</ele>
        <time>2026-08-15T11:17:20.356Z</time>
      </trkpt>
      <trkpt lat="52.087554" lon="4.756397">
        <ele>-0.070489</ele>
        <time>2026-08-15T11:17:26.290Z</time>
      </trkpt>
      <trkpt lat="52.087733" lon="4.756022">
        <ele>0.005215</ele>
        <time>2026-08-15T11:17:32.497Z</time>
      </trkpt>
      <trkpt lat="52.088073" lon="4.755160">
        <ele>0.264793</ele>
        <time>2026-08-15T11:17:46.323Z</time>
      </trkpt>
      <trkpt lat="52.088328" lon="4.754510">
        <ele>0.460223</ele>
        <time>2026-08-15T11:17:57.028Z</time>
      </trkpt>
      <trkpt lat="52.088374" lon="4.754393">
        <ele>0.495422</ele>
        <time>2026-08-15T11:17:59.034Z</time>
      </trkpt>
      <trkpt lat="52.088850" lon="4.752733">
        <ele>0.582733</ele>
        <time>2026-08-15T11:18:23.070Z</time>
      </trkpt>
      <trkpt lat="52.089070" lon="4.752081">
        <ele>0.511212</ele>
        <time>2026-08-15T11:18:31.954Z</time>
      </trkpt>
      <trkpt lat="52.089245" lon="4.751579">
        <ele>0.455718</ele>
        <time>2026-08-15T11:18:38.640Z</time>
      </trkpt>
      <trkpt lat="52.089436" lon="4.751121">
        <ele>0.397881</ele>
        <time>2026-08-15T11:18:44.701Z</time>
      </trkpt>
      <trkpt lat="52.089497" lon="4.750863">
        <ele>0.321193</ele>
        <time>2026-08-15T11:18:47.737Z</time>
      </trkpt>
      <trkpt lat="52.089510" lon="4.750535">
        <ele>0.230013</ele>
        <time>2026-08-15T11:18:51.396Z</time>
      </trkpt>
      <trkpt lat="52.089590" lon="4.750399">
        <ele>0.177783</ele>
        <time>2026-08-15T11:18:53.526Z</time>
      </trkpt>
      <trkpt lat="52.089644" lon="4.750305">
        <ele>0.142084</ele>
        <time>2026-08-15T11:18:54.987Z</time>
      </trkpt>
      <trkpt lat="52.089691" lon="4.750283">
        <ele>0.120004</ele>
        <time>2026-08-15T11:18:55.890Z</time>
      </trkpt>
      <trkpt lat="52.089786" lon="4.750369">
        <ele>0.070924</ele>
        <time>2026-08-15T11:18:57.924Z</time>
      </trkpt>
      <trkpt lat="52.089889" lon="4.750335">
        <ele>0.023473</ele>
        <time>2026-08-15T11:18:59.887Z</time>
      </trkpt>
      <trkpt lat="52.089915" lon="4.750326">
        <ele>0.011472</ele>
        <time>2026-08-15T11:19:00.392Z</time>
      </trkpt>
      <trkpt lat="52.090702" lon="4.749161">
        <ele>-0.410991</ele>
        <time>2026-08-15T11:19:20.429Z</time>
      </trkpt>
      <trkpt lat="52.090849" lon="4.748943">
        <ele>-0.416610</ele>
        <time>2026-08-15T11:19:24.392Z</time>
      </trkpt>
      <trkpt lat="52.091217" lon="4.748402">
        <ele>-0.430622</ele>
        <time>2026-08-15T11:19:34.469Z</time>
      </trkpt>
      <trkpt lat="52.091318" lon="4.748252">
        <ele>-0.434485</ele>
        <time>2026-08-15T11:19:37.271Z</time>
      </trkpt>
      <trkpt lat="52.091532" lon="4.747826">
        <ele>-0.444038</ele>
        <time>2026-08-15T11:19:44.097Z</time>
      </trkpt>
      <trkpt lat="52.091603" lon="4.747397">
        <ele>-0.451751</ele>
        <time>2026-08-15T11:19:49.685Z</time>
      </trkpt>
      <trkpt lat="52.091591" lon="4.746927">
        <ele>-0.445970</ele>
        <time>2026-08-15T11:19:55.646Z</time>
      </trkpt>
      <trkpt lat="52.091544" lon="4.746669">
        <ele>-0.417510</ele>
        <time>2026-08-15T11:19:59.056Z</time>
      </trkpt>
      <trkpt lat="52.091447" lon="4.746425">
        <ele>-0.386775</ele>
        <time>2026-08-15T11:20:02.772Z</time>
      </trkpt>
      <trkpt lat="52.090690" lon="4.744700">
        <ele>-0.162589</ele>
        <time>2026-08-15T11:20:30.279Z</time>
      </trkpt>
      <trkpt lat="52.090264" lon="4.743887">
        <ele>-0.007606</ele>
        <time>2026-08-15T11:20:44.105Z</time>
      </trkpt>
      <trkpt lat="52.090034" lon="4.743360">
        <ele>0.089817</ele>
        <time>2026-08-15T11:20:52.597Z</time>
      </trkpt>
      <trkpt lat="52.090116" lon="4.743244">
        <ele>0.116467</ele>
        <time>2026-08-15T11:20:54.919Z</time>
      </trkpt>
      <trkpt lat="52.090168" lon="4.743167">
        <ele>0.133711</ele>
        <time>2026-08-15T11:20:56.432Z</time>
      </trkpt>
      <trkpt lat="52.090240" lon="4.743025">
        <ele>0.161458</ele>
        <time>2026-08-15T11:20:58.908Z</time>
      </trkpt>
      <trkpt lat="52.090219" lon="4.742768">
        <ele>0.200532</ele>
        <time>2026-08-15T11:21:02.410Z</time>
      </trkpt>
      <trkpt lat="52.090331" lon="4.742455">
        <ele>0.255121</ele>
        <time>2026-08-15T11:21:07.176Z</time>
      </trkpt>
      <trkpt lat="52.090332" lon="4.742209">
        <ele>0.292197</ele>
        <time>2026-08-15T11:21:10.347Z</time>
      </trkpt>
      <trkpt lat="52.090221" lon="4.741927">
        <ele>0.231465</ele>
        <time>2026-08-15T11:21:14.531Z</time>
      </trkpt>
      <trkpt lat="52.090113" lon="4.741770">
        <ele>0.187721</ele>
        <time>2026-08-15T11:21:17.375Z</time>
      </trkpt>
      <trkpt lat="52.089974" lon="4.741306">
        <ele>0.091909</ele>
        <time>2026-08-15T11:21:21.969Z</time>
      </trkpt>
      <trkpt lat="52.089790" lon="4.740432">
        <ele>-0.079569</ele>
        <time>2026-08-15T11:21:29.906Z</time>
      </trkpt>
      <trkpt lat="52.089773" lon="4.740343">
        <ele>-0.096868</ele>
        <time>2026-08-15T11:21:30.653Z</time>
      </trkpt>
      <trkpt lat="52.089723" lon="4.740088">
        <ele>-0.146549</ele>
        <time>2026-08-15T11:21:32.789Z</time>
      </trkpt>
      <trkpt lat="52.089716" lon="4.739994">
        <ele>-0.164124</ele>
        <time>2026-08-15T11:21:33.547Z</time>
      </trkpt>
      <trkpt lat="52.089759" lon="4.739864">
        <ele>-0.191527</ele>
        <time>2026-08-15T11:21:34.691Z</time>
      </trkpt>
      <trkpt lat="52.089833" lon="4.739791">
        <ele>-0.217667</ele>
        <time>2026-08-15T11:21:35.780Z</time>
      </trkpt>
      <trkpt lat="52.089970" lon="4.739712">
        <ele>-0.265455</ele>
        <time>2026-08-15T11:21:37.567Z</time>
      </trkpt>
      <trkpt lat="52.090177" lon="4.739621">
        <ele>-0.352935</ele>
        <time>2026-08-15T11:21:40.176Z</time>
      </trkpt>
      <trkpt lat="52.090680" lon="4.739467">
        <ele>-0.561753</ele>
        <time>2026-08-15T11:21:46.697Z</time>
      </trkpt>
      <trkpt lat="52.091221" lon="4.739324">
        <ele>-0.785367</ele>
        <time>2026-08-15T11:21:54.138Z</time>
      </trkpt>
      <trkpt lat="52.092370" lon="4.739100">
        <ele>-0.977478</ele>
        <time>2026-08-15T11:22:11.782Z</time>
      </trkpt>
      <trkpt lat="52.092712" lon="4.739022">
        <ele>-0.973946</ele>
        <time>2026-08-15T11:22:16.969Z</time>
      </trkpt>
      <trkpt lat="52.092837" lon="4.739009">
        <ele>-0.972665</ele>
        <time>2026-08-15T11:22:18.829Z</time>
      </trkpt>
      <trkpt lat="52.093580" lon="4.738947">
        <ele>-0.955405</ele>
        <time>2026-08-15T11:22:29.584Z</time>
      </trkpt>
      <trkpt lat="52.094654" lon="4.738885">
        <ele>-0.823099</ele>
        <time>2026-08-15T11:22:45.553Z</time>
      </trkpt>
      <trkpt lat="52.096193" lon="4.738688">
        <ele>-0.722867</ele>
        <time>2026-08-15T11:23:10.562Z</time>
      </trkpt>
      <trkpt lat="52.097414" lon="4.738593">
        <ele>-0.761258</ele>
        <time>2026-08-15T11:23:27.477Z</time>
      </trkpt>
      <trkpt lat="52.097677" lon="4.738650">
        <ele>-0.809426</ele>
        <time>2026-08-15T11:23:31.032Z</time>
      </trkpt>
      <trkpt lat="52.097744" lon="4.738760">
        <ele>-0.826702</ele>
        <time>2026-08-15T11:23:32.309Z</time>
      </trkpt>
      <trkpt lat="52.097804" lon="4.738755">
        <ele>-0.837609</ele>
        <time>2026-08-15T11:23:33.119Z</time>
      </trkpt>
      <trkpt lat="52.097850" lon="4.738696">
        <ele>-0.848241</ele>
        <time>2026-08-15T11:23:33.911Z</time>
      </trkpt>
      <trkpt lat="52.097866" lon="4.738604">
        <ele>-0.858904</ele>
        <time>2026-08-15T11:23:34.726Z</time>
      </trkpt>
      <trkpt lat="52.098075" lon="4.738431">
        <ele>-0.901471</ele>
        <time>2026-08-15T11:23:38.009Z</time>
      </trkpt>
      <trkpt lat="52.098818" lon="4.738047">
        <ele>-1.023592</ele>
        <time>2026-08-15T11:23:49.778Z</time>
      </trkpt>
      <trkpt lat="52.099365" lon="4.737637">
        <ele>-0.990851</ele>
        <time>2026-08-15T11:23:58.841Z</time>
      </trkpt>
      <trkpt lat="52.099384" lon="4.737617">
        <ele>-0.989621</ele>
        <time>2026-08-15T11:23:59.178Z</time>
      </trkpt>
      <trkpt lat="52.099571" lon="4.737442">
        <ele>-0.977894</ele>
        <time>2026-08-15T11:24:02.427Z</time>
      </trkpt>
      <trkpt lat="52.100512" lon="4.736713">
        <ele>-0.926090</ele>
        <time>2026-08-15T11:24:18.161Z</time>
      </trkpt>
      <trkpt lat="52.101474" lon="4.735757">
        <ele>-0.897725</ele>
        <time>2026-08-15T11:24:34.951Z</time>
      </trkpt>
      <trkpt lat="52.101672" lon="4.735553">
        <ele>-0.891828</ele>
        <time>2026-08-15T11:24:38.499Z</time>
      </trkpt>
      <trkpt lat="52.103805" lon="4.733309">
        <ele>-0.748034</ele>
        <time>2026-08-15T11:25:16.271Z</time>
      </trkpt>
      <trkpt lat="52.104414" lon="4.732838">
        <ele>-0.654943</ele>
        <time>2026-08-15T11:25:26.814Z</time>
      </trkpt>
      <trkpt lat="52.104684" lon="4.732569">
        <ele>-0.611237</ele>
        <time>2026-08-15T11:25:31.761Z</time>
      </trkpt>
      <trkpt lat="52.105155" lon="4.732006">
        <ele>-0.535127</ele>
        <time>2026-08-15T11:25:40.826Z</time>
      </trkpt>
      <trkpt lat="52.105402" lon="4.731827">
        <ele>-0.502809</ele>
        <time>2026-08-15T11:25:45.085Z</time>
      </trkpt>
      <trkpt lat="52.105908" lon="4.731604">
        <ele>-0.440147</ele>
        <time>2026-08-15T11:25:53.031Z</time>
      </trkpt>
      <trkpt lat="52.106183" lon="4.731487">
        <ele>-0.406170</ele>
        <time>2026-08-15T11:25:57.376Z</time>
      </trkpt>
      <trkpt lat="52.106350" lon="4.731416">
        <ele>-0.385538</ele>
        <time>2026-08-15T11:26:00.046Z</time>
      </trkpt>
      <trkpt lat="52.106497" lon="4.731306">
        <ele>-0.366199</ele>
        <time>2026-08-15T11:26:02.562Z</time>
      </trkpt>
      <trkpt lat="52.106581" lon="4.731333">
        <ele>-0.355965</ele>
        <time>2026-08-15T11:26:03.894Z</time>
      </trkpt>
      <trkpt lat="52.106828" lon="4.731272">
        <ele>-0.408499</ele>
        <time>2026-08-15T11:26:07.688Z</time>
      </trkpt>
      <trkpt lat="52.106934" lon="4.731240">
        <ele>-0.440841</ele>
        <time>2026-08-15T11:26:09.300Z</time>
      </trkpt>
      <trkpt lat="52.107124" lon="4.731172">
        <ele>-0.499204</ele>
        <time>2026-08-15T11:26:12.167Z</time>
      </trkpt>
      <trkpt lat="52.107169" lon="4.731140">
        <ele>-0.513936</ele>
        <time>2026-08-15T11:26:12.871Z</time>
      </trkpt>
      <trkpt lat="52.107274" lon="4.731076">
        <ele>-0.547572</ele>
        <time>2026-08-15T11:26:14.455Z</time>
      </trkpt>
      <trkpt lat="52.107356" lon="4.731007">
        <ele>-0.575264</ele>
        <time>2026-08-15T11:26:15.736Z</time>
      </trkpt>
      <trkpt lat="52.107444" lon="4.731211">
        <ele>-0.621198</ele>
        <time>2026-08-15T11:26:18.646Z</time>
      </trkpt>
      <trkpt lat="52.107459" lon="4.731361">
        <ele>-0.649201</ele>
        <time>2026-08-15T11:26:19.883Z</time>
      </trkpt>
      <trkpt lat="52.107444" lon="4.733098">
        <ele>-0.989395</ele>
        <time>2026-08-15T11:26:33.895Z</time>
      </trkpt>
      <trkpt lat="52.107512" lon="4.734156">
        <ele>-1.234595</ele>
        <time>2026-08-15T11:26:42.415Z</time>
      </trkpt>
      <trkpt lat="52.107611" lon="4.735120">
        <ele>-1.459882</ele>
        <time>2026-08-15T11:26:50.810Z</time>
      </trkpt>
      <trkpt lat="52.107635" lon="4.735669">
        <ele>-1.562534</ele>
        <time>2026-08-15T11:26:55.722Z</time>
      </trkpt>
      <trkpt lat="52.107633" lon="4.736101">
        <ele>-1.555129</ele>
        <time>2026-08-15T11:26:59.653Z</time>
      </trkpt>
      <trkpt lat="52.107587" lon="4.736580">
        <ele>-1.546819</ele>
        <time>2026-08-15T11:27:04.091Z</time>
      </trkpt>
      <trkpt lat="52.107474" lon="4.737223">
        <ele>-1.535356</ele>
        <time>2026-08-15T11:27:10.262Z</time>
      </trkpt>
      <trkpt lat="52.107227" lon="4.738135">
        <ele>-1.518271</ele>
        <time>2026-08-15T11:27:19.473Z</time>
      </trkpt>
      <trkpt lat="52.106915" lon="4.738789">
        <ele>-1.473586</ele>
        <time>2026-08-15T11:27:27.163Z</time>
      </trkpt>
      <trkpt lat="52.106881" lon="4.739003">
        <ele>-1.458171</ele>
        <time>2026-08-15T11:27:29.241Z</time>
      </trkpt>
      <trkpt lat="52.106895" lon="4.739257">
        <ele>-1.440386</ele>
        <time>2026-08-15T11:27:31.640Z</time>
      </trkpt>
      <trkpt lat="52.106943" lon="4.739444">
        <ele>-1.426253</ele>
        <time>2026-08-15T11:27:33.560Z</time>
      </trkpt>
      <trkpt lat="52.107042" lon="4.739630">
        <ele>-1.409089</ele>
        <time>2026-08-15T11:27:35.886Z</time>
      </trkpt>
      <trkpt lat="52.107173" lon="4.739788">
        <ele>-1.390578</ele>
        <time>2026-08-15T11:27:38.420Z</time>
      </trkpt>
      <trkpt lat="52.108555" lon="4.741097">
        <ele>-1.424569</ele>
        <time>2026-08-15T11:28:02.804Z</time>
      </trkpt>
      <trkpt lat="52.108960" lon="4.741480">
        <ele>-1.485150</ele>
        <time>2026-08-15T11:28:09.270Z</time>
      </trkpt>
      <trkpt lat="52.108983" lon="4.741614">
        <ele>-1.496204</ele>
        <time>2026-08-15T11:28:18.654Z</time>
      </trkpt>
      <trkpt lat="52.109152" lon="4.741771">
        <ele>-1.521372</ele>
        <time>2026-08-15T11:28:39.993Z</time>
      </trkpt>
      <trkpt lat="52.109232" lon="4.741846">
        <ele>-1.533312</ele>
        <time>2026-08-15T11:28:50.159Z</time>
      </trkpt>
      <trkpt lat="52.109294" lon="4.741829">
        <ele>-1.541445</ele>
        <time>2026-08-15T11:28:56.941Z</time>
      </trkpt>
      <trkpt lat="52.110816" lon="4.743337">
        <ele>-2.228355</ele>
        <time>2026-08-15T11:29:20.813Z</time>
      </trkpt>
      <trkpt lat="52.112015" lon="4.744580">
        <ele>-2.519074</ele>
        <time>2026-08-15T11:29:41.291Z</time>
      </trkpt>
      <trkpt lat="52.113439" lon="4.746142">
        <ele>-2.796521</ele>
        <time>2026-08-15T11:30:05.368Z</time>
      </trkpt>
      <trkpt lat="52.117937" lon="4.750760">
        <ele>-2.720228</ele>
        <time>2026-08-15T11:31:24.807Z</time>
      </trkpt>
      <trkpt lat="52.118419" lon="4.751222">
        <ele>-2.708343</ele>
        <time>2026-08-15T11:31:33.350Z</time>
      </trkpt>
      <trkpt lat="52.119023" lon="4.751823">
        <ele>-3.080005</ele>
        <time>2026-08-15T11:31:43.575Z</time>
      </trkpt>
      <trkpt lat="52.119231" lon="4.752168">
        <ele>-3.236600</ele>
        <time>2026-08-15T11:31:47.398Z</time>
      </trkpt>
      <trkpt lat="52.119315" lon="4.752332">
        <ele>-3.305769</ele>
        <time>2026-08-15T11:31:49.017Z</time>
      </trkpt>
      <trkpt lat="52.119360" lon="4.752421">
        <ele>-3.343109</ele>
        <time>2026-08-15T11:31:49.875Z</time>
      </trkpt>
      <trkpt lat="52.119562" lon="4.752656">
        <ele>-3.474049</ele>
        <time>2026-08-15T11:31:52.909Z</time>
      </trkpt>
      <trkpt lat="52.120280" lon="4.753351">
        <ele>-3.743776</ele>
        <time>2026-08-15T11:32:03.236Z</time>
      </trkpt>
      <trkpt lat="52.120402" lon="4.753470">
        <ele>-3.769042</ele>
        <time>2026-08-15T11:32:05.030Z</time>
      </trkpt>
      <trkpt lat="52.122993" lon="4.755552">
        <ele>-3.527925</ele>
        <time>2026-08-15T11:32:50.725Z</time>
      </trkpt>
      <trkpt lat="52.124118" lon="4.756225">
        <ele>-3.319306</ele>
        <time>2026-08-15T11:33:09.494Z</time>
      </trkpt>
      <trkpt lat="52.124840" lon="4.756611">
        <ele>-3.182425</ele>
        <time>2026-08-15T11:33:21.180Z</time>
      </trkpt>
      <trkpt lat="52.124999" lon="4.756649">
        <ele>-3.137520</ele>
        <time>2026-08-15T11:33:23.698Z</time>
      </trkpt>
      <trkpt lat="52.125397" lon="4.756862">
        <ele>-3.020458</ele>
        <time>2026-08-15T11:33:30.303Z</time>
      </trkpt>
      <trkpt lat="52.127825" lon="4.758263">
        <ele>-2.307656</ele>
        <time>2026-08-15T11:34:12.041Z</time>
      </trkpt>
      <trkpt lat="52.128032" lon="4.758361">
        <ele>-2.248464</ele>
        <time>2026-08-15T11:34:15.299Z</time>
      </trkpt>
      <trkpt lat="52.129296" lon="4.759162">
        <ele>-2.214624</ele>
        <time>2026-08-15T11:34:34.893Z</time>
      </trkpt>
      <trkpt lat="52.130284" lon="4.759698">
        <ele>-1.994813</ele>
        <time>2026-08-15T11:34:50.699Z</time>
      </trkpt>
      <trkpt lat="52.130923" lon="4.759967">
        <ele>-1.671947</ele>
        <time>2026-08-15T11:35:01.745Z</time>
      </trkpt>
      <trkpt lat="52.131376" lon="4.759961">
        <ele>-1.450333</ele>
        <time>2026-08-15T11:35:09.864Z</time>
      </trkpt>
      <trkpt lat="52.131442" lon="4.760116">
        <ele>-1.393686</ele>
        <time>2026-08-15T11:35:12.587Z</time>
      </trkpt>
      <trkpt lat="52.131498" lon="4.760249">
        <ele>-1.345254</ele>
        <time>2026-08-15T11:35:14.937Z</time>
      </trkpt>
      <trkpt lat="52.131576" lon="4.760434">
        <ele>-1.337492</ele>
        <time>2026-08-15T11:35:18.159Z</time>
      </trkpt>
      <trkpt lat="52.131623" lon="4.760546">
        <ele>-1.337492</ele>
        <time>2026-08-15T11:35:20.049Z</time>
      </trkpt>
      <trkpt lat="52.131684" lon="4.760692">
        <ele>-1.337492</ele>
        <time>2026-08-15T11:35:22.584Z</time>
      </trkpt>
      <trkpt lat="52.131736" lon="4.760815">
        <ele>-1.337492</ele>
        <time>2026-08-15T11:35:24.713Z</time>
      </trkpt>
      <trkpt lat="52.131913" lon="4.761236">
        <ele>-1.337492</ele>
        <time>2026-08-15T11:35:31.871Z</time>
      </trkpt>
      <trkpt lat="52.132068" lon="4.761606">
        <ele>-1.337492</ele>
        <time>2026-08-15T11:35:38.053Z</time>
      </trkpt>
      <trkpt lat="52.132129" lon="4.761750">
        <ele>-1.337492</ele>
        <time>2026-08-15T11:35:40.348Z</time>
      </trkpt>
      <trkpt lat="52.132219" lon="4.761967">
        <ele>-1.337492</ele>
        <time>2026-08-15T11:35:43.775Z</time>
      </trkpt>
      <trkpt lat="52.132380" lon="4.762353">
        <ele>-1.337492</ele>
        <time>2026-08-15T11:35:49.875Z</time>
      </trkpt>
      <trkpt lat="52.132495" lon="4.762599">
        <ele>-1.337492</ele>
        <time>2026-08-15T11:35:53.780Z</time>
      </trkpt>
      <trkpt lat="52.132551" lon="4.762695">
        <ele>-1.337492</ele>
        <time>2026-08-15T11:35:55.398Z</time>
      </trkpt>
      <trkpt lat="52.132726" lon="4.762964">
        <ele>-1.337492</ele>
        <time>2026-08-15T11:36:00.183Z</time>
      </trkpt>
      <trkpt lat="52.132768" lon="4.763050">
        <ele>-1.337492</ele>
        <time>2026-08-15T11:36:01.498Z</time>
      </trkpt>
    </trkseg>
  </trk>
</gpx>